<?xml version="1.0" encoding="UTF-8" standalone="no" ?>
<gpx xmlns="http://www.topografix.com/GPX/1/1" xmlns:xsi="http://www.w3.org/2001/XMLSchema-instance" xsi:schemaLocation="http://www.topografix.com/GPX/1/1 http://www.topografix.com/GPX/1/1/gpx.xsd" version="1.1" creator="VisuGPX - https://www.visugpx.com">
  <metadata>
    <name>La Loube au départ de la Roquebrussanne</name>
    <desc><![CDATA[Montagne de la Loube au départ de LA ROQUEBRUSSANNE]]></desc>
  </metadata>
  <trk>
    <name><![CDATA[La Loube en rando nettoyée]]></name>
    <trkseg>
      <trkpt lat="43.33777" lon="5.9773">
        <ele>362.45703125</ele>
        <time>2016-01-17T15:14:40Z</time>
      </trkpt>
      <trkpt lat="43.33775" lon="5.97726">
        <ele>362.18359375</ele>
        <time>2016-01-17T15:14:16Z</time>
      </trkpt>
      <trkpt lat="43.33779" lon="5.97726">
        <ele>362.40234375</ele>
        <time>2016-01-17T15:13:51Z</time>
      </trkpt>
      <trkpt lat="43.33796" lon="5.9772">
        <ele>363.0703125</ele>
        <time>2016-01-17T15:13:33Z</time>
      </trkpt>
      <trkpt lat="43.33804" lon="5.97708">
        <ele>362.8984375</ele>
        <time>2016-01-17T15:13:23Z</time>
      </trkpt>
      <trkpt lat="43.33815" lon="5.9769">
        <ele>362.38671875</ele>
        <time>2016-01-17T15:13:06Z</time>
      </trkpt>
      <trkpt lat="43.33825" lon="5.97677">
        <ele>362.296875</ele>
        <time>2016-01-17T15:12:52Z</time>
      </trkpt>
      <trkpt lat="43.33825" lon="5.97676">
        <ele>362.26953125</ele>
        <time>2016-01-17T15:12:37Z</time>
      </trkpt>
      <trkpt lat="43.33829" lon="5.97677">
        <ele>362.40625</ele>
        <time>2016-01-17T15:12:23Z</time>
      </trkpt>
      <trkpt lat="43.33837" lon="5.97698">
        <ele>363.9453125</ele>
        <time>2016-01-17T15:12:04Z</time>
      </trkpt>
      <trkpt lat="43.33841" lon="5.97704">
        <ele>364.7578125</ele>
        <time>2016-01-17T15:11:57Z</time>
      </trkpt>
      <trkpt lat="43.33847" lon="5.97708">
        <ele>365.55859375</ele>
        <time>2016-01-17T15:11:34Z</time>
      </trkpt>
      <trkpt lat="43.33855" lon="5.97715">
        <ele>367.02734375</ele>
        <time>2016-01-17T15:11:17Z</time>
      </trkpt>
      <trkpt lat="43.33881" lon="5.97698">
        <ele>366.703125</ele>
        <time>2016-01-17T15:10:57Z</time>
      </trkpt>
      <trkpt lat="43.33899" lon="5.9769">
        <ele>366.73046875</ele>
        <time>2016-01-17T15:10:36Z</time>
      </trkpt>
      <trkpt lat="43.33918" lon="5.97677">
        <ele>367.17578125</ele>
        <time>2016-01-17T15:10:22Z</time>
      </trkpt>
      <trkpt lat="43.33951" lon="5.9767">
        <ele>368.97265625</ele>
        <time>2016-01-17T15:10:03Z</time>
      </trkpt>
      <trkpt lat="43.33959" lon="5.97662">
        <ele>368.67578125</ele>
        <time>2016-01-17T15:09:56Z</time>
      </trkpt>
      <trkpt lat="43.33979" lon="5.97664">
        <ele>369.83984375</ele>
        <time>2016-01-17T15:09:37Z</time>
      </trkpt>
      <trkpt lat="43.33983" lon="5.97647">
        <ele>367.828125</ele>
        <time>2016-01-17T15:09:22Z</time>
      </trkpt>
      <trkpt lat="43.33991" lon="5.97646">
        <ele>367.95703125</ele>
        <time>2016-01-17T15:09:04Z</time>
      </trkpt>
      <trkpt lat="43.33997" lon="5.97657">
        <ele>369.46875</ele>
        <time>2016-01-17T15:08:54Z</time>
      </trkpt>
      <trkpt lat="43.3402" lon="5.97654">
        <ele>369.82421875</ele>
        <time>2016-01-17T15:08:44Z</time>
      </trkpt>
      <trkpt lat="43.34023" lon="5.97658">
        <ele>370.26953125</ele>
        <time>2016-01-17T15:08:40Z</time>
      </trkpt>
      <trkpt lat="43.34023" lon="5.97668">
        <ele>371.42578125</ele>
        <time>2016-01-17T15:08:18Z</time>
      </trkpt>
      <trkpt lat="43.34013" lon="5.97688">
        <ele>373.390625</ele>
        <time>2016-01-17T15:08:00Z</time>
      </trkpt>
      <trkpt lat="43.34014" lon="5.97693">
        <ele>374.04296875</ele>
        <time>2016-01-17T15:07:53Z</time>
      </trkpt>
      <trkpt lat="43.3402" lon="5.977">
        <ele>375.7578125</ele>
        <time>2016-01-17T15:07:30Z</time>
      </trkpt>
      <trkpt lat="43.34027" lon="5.97703">
        <ele>376.4453125</ele>
        <time>2016-01-17T15:07:12Z</time>
      </trkpt>
      <trkpt lat="43.34055" lon="5.97706">
        <ele>376.94921875</ele>
        <time>2016-01-17T15:06:54Z</time>
      </trkpt>
      <trkpt lat="43.34057" lon="5.97706">
        <ele>376.84765625</ele>
        <time>2016-01-17T15:06:53Z</time>
      </trkpt>
      <trkpt lat="43.34059" lon="5.97706">
        <ele>376.796875</ele>
        <time>2016-01-17T15:06:52Z</time>
      </trkpt>
      <trkpt lat="43.34061" lon="5.97706">
        <ele>376.77734375</ele>
        <time>2016-01-17T15:06:51Z</time>
      </trkpt>
      <trkpt lat="43.34062" lon="5.97706">
        <ele>376.7421875</ele>
        <time>2016-01-17T15:06:50Z</time>
      </trkpt>
      <trkpt lat="43.34064" lon="5.97706">
        <ele>376.796875</ele>
        <time>2016-01-17T15:06:49Z</time>
      </trkpt>
      <trkpt lat="43.34067" lon="5.97706">
        <ele>376.69921875</ele>
        <time>2016-01-17T15:06:48Z</time>
      </trkpt>
      <trkpt lat="43.34071" lon="5.97704">
        <ele>376.359375</ele>
        <time>2016-01-17T15:06:47Z</time>
      </trkpt>
      <trkpt lat="43.34073" lon="5.97704">
        <ele>376.40625</ele>
        <time>2016-01-17T15:06:46Z</time>
      </trkpt>
      <trkpt lat="43.34073" lon="5.97705">
        <ele>376.5234375</ele>
        <time>2016-01-17T15:06:44Z</time>
      </trkpt>
      <trkpt lat="43.3409" lon="5.97718">
        <ele>378.66796875</ele>
        <time>2016-01-17T15:06:30Z</time>
      </trkpt>
      <trkpt lat="43.34113" lon="5.97721">
        <ele>379.05859375</ele>
        <time>2016-01-17T15:06:13Z</time>
      </trkpt>
      <trkpt lat="43.34135" lon="5.97723">
        <ele>379.25</ele>
        <time>2016-01-17T15:05:57Z</time>
      </trkpt>
      <trkpt lat="43.34159" lon="5.97735">
        <ele>380.32421875</ele>
        <time>2016-01-17T15:05:36Z</time>
      </trkpt>
      <trkpt lat="43.3418" lon="5.97753">
        <ele>381.99609375</ele>
        <time>2016-01-17T15:05:18Z</time>
      </trkpt>
      <trkpt lat="43.34198" lon="5.97773">
        <ele>383.875</ele>
        <time>2016-01-17T15:04:58Z</time>
      </trkpt>
      <trkpt lat="43.34222" lon="5.97794">
        <ele>382.94140625</ele>
        <time>2016-01-17T15:04:36Z</time>
      </trkpt>
      <trkpt lat="43.34232" lon="5.9781">
        <ele>383.4609375</ele>
        <time>2016-01-17T15:04:24Z</time>
      </trkpt>
      <trkpt lat="43.34245" lon="5.97836">
        <ele>385.0390625</ele>
        <time>2016-01-17T15:04:08Z</time>
      </trkpt>
      <trkpt lat="43.34252" lon="5.97856">
        <ele>386.91015625</ele>
        <time>2016-01-17T15:03:56Z</time>
      </trkpt>
      <trkpt lat="43.34255" lon="5.97863">
        <ele>387.34375</ele>
        <time>2016-01-17T15:03:51Z</time>
      </trkpt>
      <trkpt lat="43.3427" lon="5.97893">
        <ele>388.30078125</ele>
        <time>2016-01-17T15:03:29Z</time>
      </trkpt>
      <trkpt lat="43.34277" lon="5.97917">
        <ele>390.1796875</ele>
        <time>2016-01-17T15:03:10Z</time>
      </trkpt>
      <trkpt lat="43.34273" lon="5.97948">
        <ele>394.21875</ele>
        <time>2016-01-17T15:02:50Z</time>
      </trkpt>
      <trkpt lat="43.3427" lon="5.97974">
        <ele>397.41015625</ele>
        <time>2016-01-17T15:02:33Z</time>
      </trkpt>
      <trkpt lat="43.34271" lon="5.97988">
        <ele>399.61328125</ele>
        <time>2016-01-17T15:02:24Z</time>
      </trkpt>
      <trkpt lat="43.34272" lon="5.98008">
        <ele>402.6796875</ele>
        <time>2016-01-17T15:02:07Z</time>
      </trkpt>
      <trkpt lat="43.34272" lon="5.98009">
        <ele>402.8984375</ele>
        <time>2016-01-17T09:04:34Z</time>
      </trkpt>
      <trkpt lat="43.34277" lon="5.9801">
        <ele>403.140625</ele>
        <time>2016-01-17T09:04:55Z</time>
      </trkpt>
      <trkpt lat="43.34283" lon="5.9801">
        <ele>403.34765625</ele>
        <time>2016-01-17T09:05:20Z</time>
      </trkpt>
      <trkpt lat="43.3429" lon="5.9801">
        <ele>403.640625</ele>
        <time>2016-01-17T09:05:39Z</time>
      </trkpt>
      <trkpt lat="43.343" lon="5.9801">
        <ele>404.0546875</ele>
        <time>2016-01-17T09:05:50Z</time>
      </trkpt>
      <trkpt lat="43.34308" lon="5.9801">
        <ele>404.5234375</ele>
        <time>2016-01-17T09:06:05Z</time>
      </trkpt>
      <trkpt lat="43.34323" lon="5.98009">
        <ele>405.29296875</ele>
        <time>2016-01-17T09:06:19Z</time>
      </trkpt>
      <trkpt lat="43.34329" lon="5.98008">
        <ele>405.5390625</ele>
        <time>2016-01-17T09:06:24Z</time>
      </trkpt>
      <trkpt lat="43.34342" lon="5.98007">
        <ele>406.05859375</ele>
        <time>2016-01-17T09:06:36Z</time>
      </trkpt>
      <trkpt lat="43.34351" lon="5.98008">
        <ele>407.0234375</ele>
        <time>2016-01-17T09:06:45Z</time>
      </trkpt>
      <trkpt lat="43.34356" lon="5.98008">
        <ele>407.2578125</ele>
        <time>2016-01-17T09:06:48Z</time>
      </trkpt>
      <trkpt lat="43.34358" lon="5.98009">
        <ele>407.66015625</ele>
        <time>2016-01-17T09:06:50Z</time>
      </trkpt>
      <trkpt lat="43.3436" lon="5.98009">
        <ele>407.87109375</ele>
        <time>2016-01-17T09:06:51Z</time>
      </trkpt>
      <trkpt lat="43.34361" lon="5.98009">
        <ele>408.046875</ele>
        <time>2016-01-17T09:06:52Z</time>
      </trkpt>
      <trkpt lat="43.34377" lon="5.9801">
        <ele>409.43359375</ele>
        <time>2016-01-17T09:07:06Z</time>
      </trkpt>
      <trkpt lat="43.34391" lon="5.98004">
        <ele>409.05078125</ele>
        <time>2016-01-17T09:07:18Z</time>
      </trkpt>
      <trkpt lat="43.34395" lon="5.98002">
        <ele>409.01171875</ele>
        <time>2016-01-17T09:07:22Z</time>
      </trkpt>
      <trkpt lat="43.34397" lon="5.98001">
        <ele>408.7421875</ele>
        <time>2016-01-17T09:07:24Z</time>
      </trkpt>
      <trkpt lat="43.344" lon="5.97999">
        <ele>408.50390625</ele>
        <time>2016-01-17T09:07:26Z</time>
      </trkpt>
      <trkpt lat="43.34407" lon="5.97992">
        <ele>407.09375</ele>
        <time>2016-01-17T09:07:33Z</time>
      </trkpt>
      <trkpt lat="43.34425" lon="5.97986">
        <ele>405.94921875</ele>
        <time>2016-01-17T09:07:51Z</time>
      </trkpt>
      <trkpt lat="43.34443" lon="5.97984">
        <ele>405.19921875</ele>
        <time>2016-01-17T09:08:07Z</time>
      </trkpt>
      <trkpt lat="43.34459" lon="5.97979">
        <ele>403.62109375</ele>
        <time>2016-01-17T09:08:22Z</time>
      </trkpt>
      <trkpt lat="43.34475" lon="5.97969">
        <ele>400.57421875</ele>
        <time>2016-01-17T09:08:36Z</time>
      </trkpt>
      <trkpt lat="43.3449" lon="5.97962">
        <ele>398.20703125</ele>
        <time>2016-01-17T09:08:46Z</time>
      </trkpt>
      <trkpt lat="43.34504" lon="5.97954">
        <ele>396.04296875</ele>
        <time>2016-01-17T09:08:56Z</time>
      </trkpt>
      <trkpt lat="43.34517" lon="5.97953">
        <ele>395.14453125</ele>
        <time>2016-01-17T09:09:06Z</time>
      </trkpt>
      <trkpt lat="43.34518" lon="5.97952">
        <ele>394.921875</ele>
        <time>2016-01-17T09:09:07Z</time>
      </trkpt>
      <trkpt lat="43.34519" lon="5.9795">
        <ele>394.640625</ele>
        <time>2016-01-17T09:09:08Z</time>
      </trkpt>
      <trkpt lat="43.3452" lon="5.97948">
        <ele>394.21875</ele>
        <time>2016-01-17T09:09:09Z</time>
      </trkpt>
      <trkpt lat="43.34521" lon="5.97946">
        <ele>393.8515625</ele>
        <time>2016-01-17T09:09:10Z</time>
      </trkpt>
      <trkpt lat="43.34526" lon="5.97943">
        <ele>393.22265625</ele>
        <time>2016-01-17T09:09:14Z</time>
      </trkpt>
      <trkpt lat="43.34526" lon="5.97942">
        <ele>393.15234375</ele>
        <time>2016-01-17T09:09:15Z</time>
      </trkpt>
      <trkpt lat="43.34541" lon="5.97933">
        <ele>391.7421875</ele>
        <time>2016-01-17T09:09:25Z</time>
      </trkpt>
      <trkpt lat="43.34555" lon="5.9793">
        <ele>391.43359375</ele>
        <time>2016-01-17T09:09:36Z</time>
      </trkpt>
      <trkpt lat="43.34564" lon="5.97934">
        <ele>391.8515625</ele>
        <time>2016-01-17T09:09:43Z</time>
      </trkpt>
      <trkpt lat="43.34565" lon="5.97934">
        <ele>391.921875</ele>
        <time>2016-01-17T09:09:44Z</time>
      </trkpt>
      <trkpt lat="43.34581" lon="5.97943">
        <ele>392.6484375</ele>
        <time>2016-01-17T09:09:57Z</time>
      </trkpt>
      <trkpt lat="43.34593" lon="5.97949">
        <ele>393.59375</ele>
        <time>2016-01-17T09:10:08Z</time>
      </trkpt>
      <trkpt lat="43.34609" lon="5.97957">
        <ele>394.9296875</ele>
        <time>2016-01-17T09:10:23Z</time>
      </trkpt>
      <trkpt lat="43.34612" lon="5.97959">
        <ele>395.1953125</ele>
        <time>2016-01-17T09:10:26Z</time>
      </trkpt>
      <trkpt lat="43.34628" lon="5.97965">
        <ele>396.36328125</ele>
        <time>2016-01-17T09:10:40Z</time>
      </trkpt>
      <trkpt lat="43.34641" lon="5.97969">
        <ele>396.9921875</ele>
        <time>2016-01-17T09:10:52Z</time>
      </trkpt>
      <trkpt lat="43.34655" lon="5.97973">
        <ele>397.67578125</ele>
        <time>2016-01-17T09:11:07Z</time>
      </trkpt>
      <trkpt lat="43.34666" lon="5.97978">
        <ele>398.75390625</ele>
        <time>2016-01-17T09:11:19Z</time>
      </trkpt>
      <trkpt lat="43.34667" lon="5.97979">
        <ele>398.86328125</ele>
        <time>2016-01-17T09:11:20Z</time>
      </trkpt>
      <trkpt lat="43.34681" lon="5.97986">
        <ele>400.4140625</ele>
        <time>2016-01-17T09:11:34Z</time>
      </trkpt>
      <trkpt lat="43.34682" lon="5.97986">
        <ele>400.51953125</ele>
        <time>2016-01-17T09:11:35Z</time>
      </trkpt>
      <trkpt lat="43.34684" lon="5.97987">
        <ele>400.65625</ele>
        <time>2016-01-17T09:11:36Z</time>
      </trkpt>
      <trkpt lat="43.34685" lon="5.97988">
        <ele>400.90234375</ele>
        <time>2016-01-17T09:11:37Z</time>
      </trkpt>
      <trkpt lat="43.34697" lon="5.97995">
        <ele>402.16796875</ele>
        <time>2016-01-17T09:11:51Z</time>
      </trkpt>
      <trkpt lat="43.34704" lon="5.97997">
        <ele>402.29296875</ele>
        <time>2016-01-17T09:11:57Z</time>
      </trkpt>
      <trkpt lat="43.34715" lon="5.98004">
        <ele>403.05859375</ele>
        <time>2016-01-17T09:12:10Z</time>
      </trkpt>
      <trkpt lat="43.34725" lon="5.98009">
        <ele>403.1953125</ele>
        <time>2016-01-17T09:12:21Z</time>
      </trkpt>
      <trkpt lat="43.34736" lon="5.98015">
        <ele>403.35546875</ele>
        <time>2016-01-17T09:12:32Z</time>
      </trkpt>
      <trkpt lat="43.34737" lon="5.98015">
        <ele>403.26953125</ele>
        <time>2016-01-17T09:12:33Z</time>
      </trkpt>
      <trkpt lat="43.34752" lon="5.9802">
        <ele>402.80078125</ele>
        <time>2016-01-17T09:12:44Z</time>
      </trkpt>
      <trkpt lat="43.34763" lon="5.98025">
        <ele>402.6796875</ele>
        <time>2016-01-17T09:12:53Z</time>
      </trkpt>
      <trkpt lat="43.34777" lon="5.9803">
        <ele>402.5078125</ele>
        <time>2016-01-17T09:13:05Z</time>
      </trkpt>
      <trkpt lat="43.34778" lon="5.9803">
        <ele>402.44921875</ele>
        <time>2016-01-17T09:13:06Z</time>
      </trkpt>
      <trkpt lat="43.34792" lon="5.98033">
        <ele>401.7109375</ele>
        <time>2016-01-17T09:13:18Z</time>
      </trkpt>
      <trkpt lat="43.34794" lon="5.98035">
        <ele>401.76953125</ele>
        <time>2016-01-17T09:13:20Z</time>
      </trkpt>
      <trkpt lat="43.34795" lon="5.98036">
        <ele>401.81640625</ele>
        <time>2016-01-17T09:13:21Z</time>
      </trkpt>
      <trkpt lat="43.34805" lon="5.98043">
        <ele>402.18359375</ele>
        <time>2016-01-17T09:13:29Z</time>
      </trkpt>
      <trkpt lat="43.34807" lon="5.98046">
        <ele>402.5390625</ele>
        <time>2016-01-17T09:13:31Z</time>
      </trkpt>
      <trkpt lat="43.3482" lon="5.98055">
        <ele>403.28515625</ele>
        <time>2016-01-17T09:13:41Z</time>
      </trkpt>
      <trkpt lat="43.34821" lon="5.98056">
        <ele>403.4140625</ele>
        <time>2016-01-17T09:13:42Z</time>
      </trkpt>
      <trkpt lat="43.34822" lon="5.98058">
        <ele>403.52734375</ele>
        <time>2016-01-17T09:13:43Z</time>
      </trkpt>
      <trkpt lat="43.34834" lon="5.98073">
        <ele>404.65234375</ele>
        <time>2016-01-17T09:13:56Z</time>
      </trkpt>
      <trkpt lat="43.3484" lon="5.98078">
        <ele>404.76171875</ele>
        <time>2016-01-17T09:14:04Z</time>
      </trkpt>
      <trkpt lat="43.34843" lon="5.98082">
        <ele>405.05859375</ele>
        <time>2016-01-17T09:14:05Z</time>
      </trkpt>
      <trkpt lat="43.34844" lon="5.98083">
        <ele>405.1640625</ele>
        <time>2016-01-17T09:14:06Z</time>
      </trkpt>
      <trkpt lat="43.3485" lon="5.98086">
        <ele>405.30859375</ele>
        <time>2016-01-17T09:14:09Z</time>
      </trkpt>
      <trkpt lat="43.34853" lon="5.98088">
        <ele>405.3203125</ele>
        <time>2016-01-17T09:14:13Z</time>
      </trkpt>
      <trkpt lat="43.34854" lon="5.98089">
        <ele>405.33203125</ele>
        <time>2016-01-17T09:14:14Z</time>
      </trkpt>
      <trkpt lat="43.34861" lon="5.98092">
        <ele>405.26171875</ele>
        <time>2016-01-17T09:14:28Z</time>
      </trkpt>
      <trkpt lat="43.34867" lon="5.98095">
        <ele>405.54296875</ele>
        <time>2016-01-17T09:14:43Z</time>
      </trkpt>
      <trkpt lat="43.34869" lon="5.98098">
        <ele>405.93359375</ele>
        <time>2016-01-17T09:14:58Z</time>
      </trkpt>
      <trkpt lat="43.34871" lon="5.98099">
        <ele>406.08203125</ele>
        <time>2016-01-17T09:15:24Z</time>
      </trkpt>
      <trkpt lat="43.34874" lon="5.98102">
        <ele>406.3671875</ele>
        <time>2016-01-17T09:15:41Z</time>
      </trkpt>
      <trkpt lat="43.34875" lon="5.98103">
        <ele>406.45703125</ele>
        <time>2016-01-17T09:17:11Z</time>
      </trkpt>
      <trkpt lat="43.34878" lon="5.98106">
        <ele>406.7421875</ele>
        <time>2016-01-17T09:17:12Z</time>
      </trkpt>
      <trkpt lat="43.3488" lon="5.98109">
        <ele>406.94921875</ele>
        <time>2016-01-17T09:17:18Z</time>
      </trkpt>
      <trkpt lat="43.34882" lon="5.98111">
        <ele>407.10546875</ele>
        <time>2016-01-17T09:17:21Z</time>
      </trkpt>
      <trkpt lat="43.34884" lon="5.98113">
        <ele>407.1640625</ele>
        <time>2016-01-17T09:17:22Z</time>
      </trkpt>
      <trkpt lat="43.34885" lon="5.98114">
        <ele>407.30859375</ele>
        <time>2016-01-17T09:17:23Z</time>
      </trkpt>
      <trkpt lat="43.34886" lon="5.98116">
        <ele>407.39453125</ele>
        <time>2016-01-17T09:17:24Z</time>
      </trkpt>
      <trkpt lat="43.34887" lon="5.98117">
        <ele>407.49609375</ele>
        <time>2016-01-17T09:17:25Z</time>
      </trkpt>
      <trkpt lat="43.34896" lon="5.98129">
        <ele>407.84765625</ele>
        <time>2016-01-17T09:17:35Z</time>
      </trkpt>
      <trkpt lat="43.34897" lon="5.9813">
        <ele>407.8828125</ele>
        <time>2016-01-17T09:17:36Z</time>
      </trkpt>
      <trkpt lat="43.34898" lon="5.98132">
        <ele>407.8984375</ele>
        <time>2016-01-17T09:17:37Z</time>
      </trkpt>
      <trkpt lat="43.34906" lon="5.98139">
        <ele>407.8125</ele>
        <time>2016-01-17T09:17:45Z</time>
      </trkpt>
      <trkpt lat="43.34907" lon="5.9814">
        <ele>407.83984375</ele>
        <time>2016-01-17T09:17:46Z</time>
      </trkpt>
      <trkpt lat="43.34908" lon="5.98141">
        <ele>407.8984375</ele>
        <time>2016-01-17T09:17:47Z</time>
      </trkpt>
      <trkpt lat="43.34909" lon="5.98142">
        <ele>407.859375</ele>
        <time>2016-01-17T09:17:48Z</time>
      </trkpt>
      <trkpt lat="43.34919" lon="5.98149">
        <ele>408.05078125</ele>
        <time>2016-01-17T09:17:56Z</time>
      </trkpt>
      <trkpt lat="43.34921" lon="5.98151">
        <ele>408.265625</ele>
        <time>2016-01-17T09:17:57Z</time>
      </trkpt>
      <trkpt lat="43.34922" lon="5.98152">
        <ele>408.48828125</ele>
        <time>2016-01-17T09:17:58Z</time>
      </trkpt>
      <trkpt lat="43.34928" lon="5.98159">
        <ele>409.16796875</ele>
        <time>2016-01-17T09:18:04Z</time>
      </trkpt>
      <trkpt lat="43.3493" lon="5.98163">
        <ele>409.5703125</ele>
        <time>2016-01-17T09:18:08Z</time>
      </trkpt>
      <trkpt lat="43.34933" lon="5.98165">
        <ele>409.671875</ele>
        <time>2016-01-17T09:18:12Z</time>
      </trkpt>
      <trkpt lat="43.34935" lon="5.98166">
        <ele>409.7578125</ele>
        <time>2016-01-17T09:18:13Z</time>
      </trkpt>
      <trkpt lat="43.34939" lon="5.98174">
        <ele>410.44140625</ele>
        <time>2016-01-17T09:18:23Z</time>
      </trkpt>
      <trkpt lat="43.34942" lon="5.98184">
        <ele>411.171875</ele>
        <time>2016-01-17T09:18:36Z</time>
      </trkpt>
      <trkpt lat="43.34945" lon="5.98187">
        <ele>411.29296875</ele>
        <time>2016-01-17T09:18:47Z</time>
      </trkpt>
      <trkpt lat="43.34948" lon="5.98193">
        <ele>411.515625</ele>
        <time>2016-01-17T09:18:53Z</time>
      </trkpt>
      <trkpt lat="43.34954" lon="5.98203">
        <ele>412.19921875</ele>
        <time>2016-01-17T09:19:04Z</time>
      </trkpt>
      <trkpt lat="43.34956" lon="5.98211">
        <ele>413.015625</ele>
        <time>2016-01-17T09:19:13Z</time>
      </trkpt>
      <trkpt lat="43.34958" lon="5.98219">
        <ele>413.71484375</ele>
        <time>2016-01-17T09:19:22Z</time>
      </trkpt>
      <trkpt lat="43.34958" lon="5.98226">
        <ele>414.5625</ele>
        <time>2016-01-17T09:19:29Z</time>
      </trkpt>
      <trkpt lat="43.34956" lon="5.98235">
        <ele>416.09765625</ele>
        <time>2016-01-17T09:19:38Z</time>
      </trkpt>
      <trkpt lat="43.34956" lon="5.98238">
        <ele>416.44140625</ele>
        <time>2016-01-17T09:19:39Z</time>
      </trkpt>
      <trkpt lat="43.34957" lon="5.98246">
        <ele>417.37109375</ele>
        <time>2016-01-17T09:19:43Z</time>
      </trkpt>
      <trkpt lat="43.34957" lon="5.98252">
        <ele>417.953125</ele>
        <time>2016-01-17T09:19:46Z</time>
      </trkpt>
      <trkpt lat="43.3496" lon="5.98259">
        <ele>418.4765625</ele>
        <time>2016-01-17T09:19:50Z</time>
      </trkpt>
      <trkpt lat="43.34961" lon="5.98266">
        <ele>419.14453125</ele>
        <time>2016-01-17T09:19:54Z</time>
      </trkpt>
      <trkpt lat="43.34964" lon="5.98282">
        <ele>420.83984375</ele>
        <time>2016-01-17T09:20:07Z</time>
      </trkpt>
      <trkpt lat="43.34968" lon="5.98295">
        <ele>421.59765625</ele>
        <time>2016-01-17T09:20:18Z</time>
      </trkpt>
      <trkpt lat="43.34972" lon="5.98313">
        <ele>423.64453125</ele>
        <time>2016-01-17T09:20:33Z</time>
      </trkpt>
      <trkpt lat="43.34975" lon="5.98329">
        <ele>426.01171875</ele>
        <time>2016-01-17T09:20:45Z</time>
      </trkpt>
      <trkpt lat="43.34979" lon="5.98347">
        <ele>428.28515625</ele>
        <time>2016-01-17T09:20:58Z</time>
      </trkpt>
      <trkpt lat="43.3498" lon="5.98371">
        <ele>431.53125</ele>
        <time>2016-01-17T09:21:15Z</time>
      </trkpt>
      <trkpt lat="43.34982" lon="5.98386">
        <ele>433.296875</ele>
        <time>2016-01-17T09:21:26Z</time>
      </trkpt>
      <trkpt lat="43.34996" lon="5.98409">
        <ele>434.2421875</ele>
        <time>2016-01-17T09:21:43Z</time>
      </trkpt>
      <trkpt lat="43.35006" lon="5.98425">
        <ele>434.75</ele>
        <time>2016-01-17T09:21:56Z</time>
      </trkpt>
      <trkpt lat="43.35009" lon="5.98432">
        <ele>435.30859375</ele>
        <time>2016-01-17T09:22:03Z</time>
      </trkpt>
      <trkpt lat="43.35024" lon="5.9845">
        <ele>435.62109375</ele>
        <time>2016-01-17T09:22:18Z</time>
      </trkpt>
      <trkpt lat="43.35024" lon="5.98468">
        <ele>437.98046875</ele>
        <time>2016-01-17T09:22:30Z</time>
      </trkpt>
      <trkpt lat="43.35024" lon="5.9847">
        <ele>438.51171875</ele>
        <time>2016-01-17T09:22:32Z</time>
      </trkpt>
      <trkpt lat="43.35024" lon="5.98486">
        <ele>441.03125</ele>
        <time>2016-01-17T09:22:42Z</time>
      </trkpt>
      <trkpt lat="43.35024" lon="5.98487">
        <ele>441.14453125</ele>
        <time>2016-01-17T09:22:43Z</time>
      </trkpt>
      <trkpt lat="43.35026" lon="5.98489">
        <ele>441.2734375</ele>
        <time>2016-01-17T09:22:46Z</time>
      </trkpt>
      <trkpt lat="43.3503" lon="5.9849">
        <ele>441.44140625</ele>
        <time>2016-01-17T09:22:51Z</time>
      </trkpt>
      <trkpt lat="43.35043" lon="5.98493">
        <ele>441.71875</ele>
        <time>2016-01-17T09:23:04Z</time>
      </trkpt>
      <trkpt lat="43.35051" lon="5.98512">
        <ele>444.0546875</ele>
        <time>2016-01-17T09:23:19Z</time>
      </trkpt>
      <trkpt lat="43.3505" lon="5.98527">
        <ele>446.140625</ele>
        <time>2016-01-17T09:23:31Z</time>
      </trkpt>
      <trkpt lat="43.3505" lon="5.98528">
        <ele>446.37890625</ele>
        <time>2016-01-17T09:23:32Z</time>
      </trkpt>
      <trkpt lat="43.35052" lon="5.98545">
        <ele>449.15234375</ele>
        <time>2016-01-17T09:23:46Z</time>
      </trkpt>
      <trkpt lat="43.35042" lon="5.98552">
        <ele>451.40234375</ele>
        <time>2016-01-17T09:24:00Z</time>
      </trkpt>
      <trkpt lat="43.3504" lon="5.98563">
        <ele>453.72265625</ele>
        <time>2016-01-17T09:24:14Z</time>
      </trkpt>
      <trkpt lat="43.35038" lon="5.98576">
        <ele>456.40234375</ele>
        <time>2016-01-17T09:24:28Z</time>
      </trkpt>
      <trkpt lat="43.35038" lon="5.98577">
        <ele>456.5546875</ele>
        <time>2016-01-17T09:24:29Z</time>
      </trkpt>
      <trkpt lat="43.35044" lon="5.98591">
        <ele>458.765625</ele>
        <time>2016-01-17T09:24:42Z</time>
      </trkpt>
      <trkpt lat="43.35048" lon="5.98605">
        <ele>461.515625</ele>
        <time>2016-01-17T09:24:54Z</time>
      </trkpt>
      <trkpt lat="43.3505" lon="5.98624">
        <ele>465.31640625</ele>
        <time>2016-01-17T09:25:08Z</time>
      </trkpt>
      <trkpt lat="43.3505" lon="5.98643">
        <ele>469.59375</ele>
        <time>2016-01-17T09:25:24Z</time>
      </trkpt>
      <trkpt lat="43.35048" lon="5.98654">
        <ele>472.94921875</ele>
        <time>2016-01-17T09:25:35Z</time>
      </trkpt>
      <trkpt lat="43.35048" lon="5.98663">
        <ele>475.10546875</ele>
        <time>2016-01-17T09:25:45Z</time>
      </trkpt>
      <trkpt lat="43.35052" lon="5.98678">
        <ele>478</ele>
        <time>2016-01-17T09:25:59Z</time>
      </trkpt>
      <trkpt lat="43.35057" lon="5.98688">
        <ele>479.23828125</ele>
        <time>2016-01-17T09:26:11Z</time>
      </trkpt>
      <trkpt lat="43.35059" lon="5.98691">
        <ele>479.4921875</ele>
        <time>2016-01-17T09:26:15Z</time>
      </trkpt>
      <trkpt lat="43.35062" lon="5.98695">
        <ele>480.171875</ele>
        <time>2016-01-17T09:26:19Z</time>
      </trkpt>
      <trkpt lat="43.3507" lon="5.98707">
        <ele>481.375</ele>
        <time>2016-01-17T09:26:31Z</time>
      </trkpt>
      <trkpt lat="43.35072" lon="5.9872">
        <ele>484.64453125</ele>
        <time>2016-01-17T09:26:45Z</time>
      </trkpt>
      <trkpt lat="43.35076" lon="5.98725">
        <ele>485.16015625</ele>
        <time>2016-01-17T09:26:50Z</time>
      </trkpt>
      <trkpt lat="43.35083" lon="5.9874">
        <ele>487.8671875</ele>
        <time>2016-01-17T09:27:04Z</time>
      </trkpt>
      <trkpt lat="43.35088" lon="5.98757">
        <ele>491.6484375</ele>
        <time>2016-01-17T09:27:18Z</time>
      </trkpt>
      <trkpt lat="43.3509" lon="5.98767">
        <ele>494.31640625</ele>
        <time>2016-01-17T09:27:28Z</time>
      </trkpt>
      <trkpt lat="43.35093" lon="5.98782">
        <ele>498.24609375</ele>
        <time>2016-01-17T09:27:42Z</time>
      </trkpt>
      <trkpt lat="43.35096" lon="5.98795">
        <ele>501.25</ele>
        <time>2016-01-17T09:27:56Z</time>
      </trkpt>
      <trkpt lat="43.35097" lon="5.98799">
        <ele>502.1171875</ele>
        <time>2016-01-17T09:28:00Z</time>
      </trkpt>
      <trkpt lat="43.35101" lon="5.9881">
        <ele>504.234375</ele>
        <time>2016-01-17T09:28:11Z</time>
      </trkpt>
      <trkpt lat="43.35106" lon="5.98821">
        <ele>505.8828125</ele>
        <time>2016-01-17T09:28:27Z</time>
      </trkpt>
      <trkpt lat="43.35108" lon="5.98824">
        <ele>506.0703125</ele>
        <time>2016-01-17T09:28:31Z</time>
      </trkpt>
      <trkpt lat="43.35111" lon="5.98831">
        <ele>506.94921875</ele>
        <time>2016-01-17T09:28:45Z</time>
      </trkpt>
      <trkpt lat="43.35114" lon="5.98834">
        <ele>507.078125</ele>
        <time>2016-01-17T09:37:10Z</time>
      </trkpt>
      <trkpt lat="43.35115" lon="5.98836">
        <ele>507.3046875</ele>
        <time>2016-01-17T09:37:35Z</time>
      </trkpt>
      <trkpt lat="43.35122" lon="5.98836">
        <ele>505.21484375</ele>
        <time>2016-01-17T09:37:52Z</time>
      </trkpt>
      <trkpt lat="43.3513" lon="5.98841">
        <ele>504.26953125</ele>
        <time>2016-01-17T09:38:03Z</time>
      </trkpt>
      <trkpt lat="43.3513" lon="5.98841">
        <ele>504.15234375</ele>
        <time>2016-01-17T09:38:04Z</time>
      </trkpt>
      <trkpt lat="43.35144" lon="5.98846">
        <ele>502.1171875</ele>
        <time>2016-01-17T09:38:18Z</time>
      </trkpt>
      <trkpt lat="43.35149" lon="5.98849">
        <ele>502.05078125</ele>
        <time>2016-01-17T09:38:23Z</time>
      </trkpt>
      <trkpt lat="43.35161" lon="5.98856">
        <ele>501.83203125</ele>
        <time>2016-01-17T09:38:35Z</time>
      </trkpt>
      <trkpt lat="43.3517" lon="5.9886">
        <ele>501.32421875</ele>
        <time>2016-01-17T09:38:45Z</time>
      </trkpt>
      <trkpt lat="43.35174" lon="5.98862">
        <ele>501.08984375</ele>
        <time>2016-01-17T09:38:49Z</time>
      </trkpt>
      <trkpt lat="43.35182" lon="5.98866">
        <ele>501.046875</ele>
        <time>2016-01-17T09:38:57Z</time>
      </trkpt>
      <trkpt lat="43.35189" lon="5.98872">
        <ele>501.2578125</ele>
        <time>2016-01-17T09:39:04Z</time>
      </trkpt>
      <trkpt lat="43.35204" lon="5.9888">
        <ele>505.3359375</ele>
        <time>2016-01-17T09:39:18Z</time>
      </trkpt>
      <trkpt lat="43.3522" lon="5.98884">
        <ele>509.5859375</ele>
        <time>2016-01-17T09:39:32Z</time>
      </trkpt>
      <trkpt lat="43.35225" lon="5.98885">
        <ele>510.8125</ele>
        <time>2016-01-17T09:39:38Z</time>
      </trkpt>
      <trkpt lat="43.35242" lon="5.98874">
        <ele>511.04296875</ele>
        <time>2016-01-17T09:39:55Z</time>
      </trkpt>
      <trkpt lat="43.35251" lon="5.98862">
        <ele>510.24609375</ele>
        <time>2016-01-17T09:40:06Z</time>
      </trkpt>
      <trkpt lat="43.35253" lon="5.98857">
        <ele>509.91015625</ele>
        <time>2016-01-17T09:40:11Z</time>
      </trkpt>
      <trkpt lat="43.35256" lon="5.9885">
        <ele>509.60546875</ele>
        <time>2016-01-17T09:40:14Z</time>
      </trkpt>
      <trkpt lat="43.35257" lon="5.98848">
        <ele>509.46875</ele>
        <time>2016-01-17T09:40:15Z</time>
      </trkpt>
      <trkpt lat="43.35264" lon="5.98835">
        <ele>508.82421875</ele>
        <time>2016-01-17T09:40:24Z</time>
      </trkpt>
      <trkpt lat="43.35265" lon="5.98833">
        <ele>508.6484375</ele>
        <time>2016-01-17T09:40:27Z</time>
      </trkpt>
      <trkpt lat="43.35266" lon="5.98832">
        <ele>508.73828125</ele>
        <time>2016-01-17T09:40:28Z</time>
      </trkpt>
      <trkpt lat="43.35268" lon="5.9883">
        <ele>508.77734375</ele>
        <time>2016-01-17T09:40:29Z</time>
      </trkpt>
      <trkpt lat="43.35271" lon="5.9882">
        <ele>507.4296875</ele>
        <time>2016-01-17T09:40:37Z</time>
      </trkpt>
      <trkpt lat="43.3527" lon="5.98807">
        <ele>504.1875</ele>
        <time>2016-01-17T09:40:46Z</time>
      </trkpt>
      <trkpt lat="43.3527" lon="5.98806">
        <ele>503.78515625</ele>
        <time>2016-01-17T09:40:47Z</time>
      </trkpt>
      <trkpt lat="43.3527" lon="5.98803">
        <ele>503.20703125</ele>
        <time>2016-01-17T09:40:48Z</time>
      </trkpt>
      <trkpt lat="43.3527" lon="5.988">
        <ele>502.55859375</ele>
        <time>2016-01-17T09:40:49Z</time>
      </trkpt>
      <trkpt lat="43.3527" lon="5.98797">
        <ele>501.86328125</ele>
        <time>2016-01-17T09:40:50Z</time>
      </trkpt>
      <trkpt lat="43.3527" lon="5.98794">
        <ele>501.3359375</ele>
        <time>2016-01-17T09:40:51Z</time>
      </trkpt>
      <trkpt lat="43.35269" lon="5.98793">
        <ele>501.04296875</ele>
        <time>2016-01-17T09:40:54Z</time>
      </trkpt>
      <trkpt lat="43.35272" lon="5.9877">
        <ele>497.0234375</ele>
        <time>2016-01-17T09:41:05Z</time>
      </trkpt>
      <trkpt lat="43.35273" lon="5.98763">
        <ele>495.6640625</ele>
        <time>2016-01-17T09:41:10Z</time>
      </trkpt>
      <trkpt lat="43.35274" lon="5.9876">
        <ele>495.359375</ele>
        <time>2016-01-17T09:41:11Z</time>
      </trkpt>
      <trkpt lat="43.35277" lon="5.98756">
        <ele>494.77734375</ele>
        <time>2016-01-17T09:41:16Z</time>
      </trkpt>
      <trkpt lat="43.35286" lon="5.9875">
        <ele>494.0859375</ele>
        <time>2016-01-17T09:41:27Z</time>
      </trkpt>
      <trkpt lat="43.35289" lon="5.98751">
        <ele>494.28515625</ele>
        <time>2016-01-17T09:41:29Z</time>
      </trkpt>
      <trkpt lat="43.35295" lon="5.98751">
        <ele>494.8671875</ele>
        <time>2016-01-17T09:41:34Z</time>
      </trkpt>
      <trkpt lat="43.35297" lon="5.98752">
        <ele>495.25390625</ele>
        <time>2016-01-17T09:41:36Z</time>
      </trkpt>
      <trkpt lat="43.35298" lon="5.98753">
        <ele>495.578125</ele>
        <time>2016-01-17T09:41:37Z</time>
      </trkpt>
      <trkpt lat="43.35307" lon="5.98757">
        <ele>497.1953125</ele>
        <time>2016-01-17T09:41:46Z</time>
      </trkpt>
      <trkpt lat="43.35308" lon="5.98759">
        <ele>497.73046875</ele>
        <time>2016-01-17T09:41:47Z</time>
      </trkpt>
      <trkpt lat="43.3531" lon="5.98761">
        <ele>498.3125</ele>
        <time>2016-01-17T09:41:48Z</time>
      </trkpt>
      <trkpt lat="43.35313" lon="5.98763">
        <ele>499.23828125</ele>
        <time>2016-01-17T09:41:52Z</time>
      </trkpt>
      <trkpt lat="43.35314" lon="5.98764">
        <ele>499.65234375</ele>
        <time>2016-01-17T09:41:53Z</time>
      </trkpt>
      <trkpt lat="43.35316" lon="5.98765">
        <ele>500.08203125</ele>
        <time>2016-01-17T09:41:54Z</time>
      </trkpt>
      <trkpt lat="43.35319" lon="5.98766">
        <ele>500.49609375</ele>
        <time>2016-01-17T09:41:59Z</time>
      </trkpt>
      <trkpt lat="43.3532" lon="5.98767">
        <ele>500.6953125</ele>
        <time>2016-01-17T09:42:00Z</time>
      </trkpt>
      <trkpt lat="43.35321" lon="5.98767">
        <ele>500.90234375</ele>
        <time>2016-01-17T09:42:01Z</time>
      </trkpt>
      <trkpt lat="43.35324" lon="5.98768">
        <ele>501.18359375</ele>
        <time>2016-01-17T09:42:04Z</time>
      </trkpt>
      <trkpt lat="43.35326" lon="5.98769">
        <ele>501.6328125</ele>
        <time>2016-01-17T09:42:05Z</time>
      </trkpt>
      <trkpt lat="43.35332" lon="5.98774">
        <ele>503.71484375</ele>
        <time>2016-01-17T09:42:11Z</time>
      </trkpt>
      <trkpt lat="43.35336" lon="5.98775">
        <ele>504.42578125</ele>
        <time>2016-01-17T09:42:15Z</time>
      </trkpt>
      <trkpt lat="43.35338" lon="5.98775">
        <ele>504.66796875</ele>
        <time>2016-01-17T09:42:18Z</time>
      </trkpt>
      <trkpt lat="43.35339" lon="5.98776">
        <ele>504.9609375</ele>
        <time>2016-01-17T09:42:19Z</time>
      </trkpt>
      <trkpt lat="43.35349" lon="5.98779">
        <ele>506.79296875</ele>
        <time>2016-01-17T09:42:29Z</time>
      </trkpt>
      <trkpt lat="43.3535" lon="5.9878">
        <ele>507.4296875</ele>
        <time>2016-01-17T09:42:30Z</time>
      </trkpt>
      <trkpt lat="43.35354" lon="5.98782">
        <ele>508.375</ele>
        <time>2016-01-17T09:42:34Z</time>
      </trkpt>
      <trkpt lat="43.35355" lon="5.98783">
        <ele>508.9453125</ele>
        <time>2016-01-17T09:42:35Z</time>
      </trkpt>
      <trkpt lat="43.3536" lon="5.98786">
        <ele>510.74609375</ele>
        <time>2016-01-17T09:42:40Z</time>
      </trkpt>
      <trkpt lat="43.35365" lon="5.98787">
        <ele>512.78125</ele>
        <time>2016-01-17T09:42:44Z</time>
      </trkpt>
      <trkpt lat="43.35366" lon="5.98788">
        <ele>513.30859375</ele>
        <time>2016-01-17T09:42:45Z</time>
      </trkpt>
      <trkpt lat="43.35367" lon="5.98789">
        <ele>514.015625</ele>
        <time>2016-01-17T09:42:46Z</time>
      </trkpt>
      <trkpt lat="43.35371" lon="5.9879">
        <ele>515.6484375</ele>
        <time>2016-01-17T09:42:50Z</time>
      </trkpt>
      <trkpt lat="43.35373" lon="5.9879">
        <ele>516.140625</ele>
        <time>2016-01-17T09:42:51Z</time>
      </trkpt>
      <trkpt lat="43.35374" lon="5.9879">
        <ele>516.62109375</ele>
        <time>2016-01-17T09:42:52Z</time>
      </trkpt>
      <trkpt lat="43.35377" lon="5.9879">
        <ele>517.171875</ele>
        <time>2016-01-17T09:42:55Z</time>
      </trkpt>
      <trkpt lat="43.35378" lon="5.9879">
        <ele>517.578125</ele>
        <time>2016-01-17T09:42:56Z</time>
      </trkpt>
      <trkpt lat="43.3538" lon="5.9879">
        <ele>517.95703125</ele>
        <time>2016-01-17T09:42:57Z</time>
      </trkpt>
      <trkpt lat="43.35392" lon="5.9879">
        <ele>521.26171875</ele>
        <time>2016-01-17T09:43:07Z</time>
      </trkpt>
      <trkpt lat="43.35408" lon="5.98784">
        <ele>525.88671875</ele>
        <time>2016-01-17T09:43:16Z</time>
      </trkpt>
      <trkpt lat="43.35418" lon="5.98775">
        <ele>530.20703125</ele>
        <time>2016-01-17T09:43:29Z</time>
      </trkpt>
      <trkpt lat="43.35422" lon="5.98768">
        <ele>537.62890625</ele>
        <time>2016-01-17T09:43:39Z</time>
      </trkpt>
      <trkpt lat="43.35426" lon="5.98763">
        <ele>538.9296875</ele>
        <time>2016-01-17T09:43:41Z</time>
      </trkpt>
      <trkpt lat="43.35429" lon="5.98759">
        <ele>539.48828125</ele>
        <time>2016-01-17T09:43:42Z</time>
      </trkpt>
      <trkpt lat="43.35435" lon="5.98756">
        <ele>542.828125</ele>
        <time>2016-01-17T09:43:51Z</time>
      </trkpt>
      <trkpt lat="43.35439" lon="5.98759">
        <ele>543.6015625</ele>
        <time>2016-01-17T09:43:52Z</time>
      </trkpt>
      <trkpt lat="43.3544" lon="5.98769">
        <ele>548.05078125</ele>
        <time>2016-01-17T09:44:03Z</time>
      </trkpt>
      <trkpt lat="43.3544" lon="5.98776">
        <ele>551.89453125</ele>
        <time>2016-01-17T09:44:16Z</time>
      </trkpt>
      <trkpt lat="43.35438" lon="5.98785">
        <ele>554.5</ele>
        <time>2016-01-17T09:44:33Z</time>
      </trkpt>
      <trkpt lat="43.35432" lon="5.98799">
        <ele>554.8984375</ele>
        <time>2016-01-17T09:45:15Z</time>
      </trkpt>
      <trkpt lat="43.35432" lon="5.988">
        <ele>547.11328125</ele>
        <time>2016-01-17T09:47:54Z</time>
      </trkpt>
      <trkpt lat="43.35431" lon="5.98804">
        <ele>547.6640625</ele>
        <time>2016-01-17T09:47:55Z</time>
      </trkpt>
      <trkpt lat="43.35427" lon="5.98811">
        <ele>545.96875</ele>
        <time>2016-01-17T09:49:11Z</time>
      </trkpt>
      <trkpt lat="43.35425" lon="5.98818">
        <ele>545.31640625</ele>
        <time>2016-01-17T09:49:23Z</time>
      </trkpt>
      <trkpt lat="43.35419" lon="5.98825">
        <ele>543.359375</ele>
        <time>2016-01-17T09:49:39Z</time>
      </trkpt>
      <trkpt lat="43.35417" lon="5.98828">
        <ele>546.53125</ele>
        <time>2016-01-17T09:49:49Z</time>
      </trkpt>
      <trkpt lat="43.35419" lon="5.98834">
        <ele>549.90625</ele>
        <time>2016-01-17T09:50:07Z</time>
      </trkpt>
      <trkpt lat="43.35419" lon="5.98835">
        <ele>550.3203125</ele>
        <time>2016-01-17T09:50:13Z</time>
      </trkpt>
      <trkpt lat="43.35419" lon="5.98835">
        <ele>550.26171875</ele>
        <time>2016-01-17T09:50:14Z</time>
      </trkpt>
      <trkpt lat="43.35419" lon="5.98834">
        <ele>549.95703125</ele>
        <time>2016-01-17T09:50:16Z</time>
      </trkpt>
      <trkpt lat="43.35417" lon="5.98828">
        <ele>546.10546875</ele>
        <time>2016-01-17T09:50:36Z</time>
      </trkpt>
      <trkpt lat="43.35419" lon="5.98828">
        <ele>546.953125</ele>
        <time>2016-01-17T09:50:56Z</time>
      </trkpt>
      <trkpt lat="43.35419" lon="5.98831">
        <ele>548.1484375</ele>
        <time>2016-01-17T09:51:09Z</time>
      </trkpt>
      <trkpt lat="43.35419" lon="5.98834">
        <ele>549.69140625</ele>
        <time>2016-01-17T09:51:18Z</time>
      </trkpt>
      <trkpt lat="43.35418" lon="5.98834">
        <ele>549.37890625</ele>
        <time>2016-01-17T09:51:38Z</time>
      </trkpt>
      <trkpt lat="43.3542" lon="5.98834">
        <ele>549.984375</ele>
        <time>2016-01-17T09:51:58Z</time>
      </trkpt>
      <trkpt lat="43.35421" lon="5.98835">
        <ele>550.953125</ele>
        <time>2016-01-17T09:52:22Z</time>
      </trkpt>
      <trkpt lat="43.35419" lon="5.98834">
        <ele>549.75</ele>
        <time>2016-01-17T09:52:43Z</time>
      </trkpt>
      <trkpt lat="43.35421" lon="5.98832">
        <ele>549.3359375</ele>
        <time>2016-01-17T09:53:07Z</time>
      </trkpt>
      <trkpt lat="43.35419" lon="5.98835">
        <ele>550</ele>
        <time>2016-01-17T09:53:28Z</time>
      </trkpt>
      <trkpt lat="43.3542" lon="5.98835">
        <ele>550.53515625</ele>
        <time>2016-01-17T09:53:47Z</time>
      </trkpt>
      <trkpt lat="43.35419" lon="5.98835">
        <ele>550.390625</ele>
        <time>2016-01-17T09:54:02Z</time>
      </trkpt>
      <trkpt lat="43.35419" lon="5.98836">
        <ele>550.70703125</ele>
        <time>2016-01-17T09:54:18Z</time>
      </trkpt>
      <trkpt lat="43.35422" lon="5.98837">
        <ele>552.125</ele>
        <time>2016-01-17T09:54:27Z</time>
      </trkpt>
      <trkpt lat="43.35419" lon="5.98843">
        <ele>554.03515625</ele>
        <time>2016-01-17T09:54:40Z</time>
      </trkpt>
      <trkpt lat="43.35424" lon="5.98843">
        <ele>555.375</ele>
        <time>2016-01-17T09:54:51Z</time>
      </trkpt>
      <trkpt lat="43.35429" lon="5.98843">
        <ele>556.01171875</ele>
        <time>2016-01-17T09:55:07Z</time>
      </trkpt>
      <trkpt lat="43.35426" lon="5.98848">
        <ele>557.859375</ele>
        <time>2016-01-17T09:55:22Z</time>
      </trkpt>
      <trkpt lat="43.35426" lon="5.9885">
        <ele>558.66015625</ele>
        <time>2016-01-17T09:55:44Z</time>
      </trkpt>
      <trkpt lat="43.35428" lon="5.98851">
        <ele>559.39453125</ele>
        <time>2016-01-17T09:56:05Z</time>
      </trkpt>
      <trkpt lat="43.35426" lon="5.98852">
        <ele>559.41796875</ele>
        <time>2016-01-17T09:56:21Z</time>
      </trkpt>
      <trkpt lat="43.35424" lon="5.98858">
        <ele>561.8046875</ele>
        <time>2016-01-17T09:56:39Z</time>
      </trkpt>
      <trkpt lat="43.35428" lon="5.98855">
        <ele>561.125</ele>
        <time>2016-01-17T09:57:01Z</time>
      </trkpt>
      <trkpt lat="43.35431" lon="5.98855">
        <ele>561.31640625</ele>
        <time>2016-01-17T09:57:21Z</time>
      </trkpt>
      <trkpt lat="43.35429" lon="5.98857">
        <ele>561.95703125</ele>
        <time>2016-01-17T09:57:43Z</time>
      </trkpt>
      <trkpt lat="43.35426" lon="5.98861">
        <ele>562.69921875</ele>
        <time>2016-01-17T09:58:07Z</time>
      </trkpt>
      <trkpt lat="43.35425" lon="5.98864">
        <ele>563.296875</ele>
        <time>2016-01-17T09:58:27Z</time>
      </trkpt>
      <trkpt lat="43.35429" lon="5.98857">
        <ele>562.06640625</ele>
        <time>2016-01-17T09:58:50Z</time>
      </trkpt>
      <trkpt lat="43.35429" lon="5.98859">
        <ele>562.44140625</ele>
        <time>2016-01-17T09:59:11Z</time>
      </trkpt>
      <trkpt lat="43.3543" lon="5.98861">
        <ele>563</ele>
        <time>2016-01-17T09:59:37Z</time>
      </trkpt>
      <trkpt lat="43.35432" lon="5.98858">
        <ele>562.50390625</ele>
        <time>2016-01-17T09:59:58Z</time>
      </trkpt>
      <trkpt lat="43.35436" lon="5.9886">
        <ele>563.15234375</ele>
        <time>2016-01-17T10:00:10Z</time>
      </trkpt>
      <trkpt lat="43.35435" lon="5.98863">
        <ele>563.59765625</ele>
        <time>2016-01-17T10:00:31Z</time>
      </trkpt>
      <trkpt lat="43.3543" lon="5.98867">
        <ele>564.19921875</ele>
        <time>2016-01-17T10:01:01Z</time>
      </trkpt>
      <trkpt lat="43.35432" lon="5.98867">
        <ele>564.19921875</ele>
        <time>2016-01-17T10:01:21Z</time>
      </trkpt>
      <trkpt lat="43.35436" lon="5.98863">
        <ele>563.7265625</ele>
        <time>2016-01-17T10:01:43Z</time>
      </trkpt>
      <trkpt lat="43.35437" lon="5.98861">
        <ele>563.37890625</ele>
        <time>2016-01-17T10:01:57Z</time>
      </trkpt>
      <trkpt lat="43.35438" lon="5.98862">
        <ele>563.54296875</ele>
        <time>2016-01-17T10:02:10Z</time>
      </trkpt>
      <trkpt lat="43.35436" lon="5.98865">
        <ele>564</ele>
        <time>2016-01-17T10:02:34Z</time>
      </trkpt>
      <trkpt lat="43.35432" lon="5.98865">
        <ele>563.86328125</ele>
        <time>2016-01-17T10:02:53Z</time>
      </trkpt>
      <trkpt lat="43.35433" lon="5.98864">
        <ele>563.703125</ele>
        <time>2016-01-17T10:03:02Z</time>
      </trkpt>
      <trkpt lat="43.35433" lon="5.98867">
        <ele>564.25</ele>
        <time>2016-01-17T10:03:20Z</time>
      </trkpt>
      <trkpt lat="43.35433" lon="5.98867">
        <ele>564.28515625</ele>
        <time>2016-01-17T10:03:21Z</time>
      </trkpt>
      <trkpt lat="43.35435" lon="5.98867">
        <ele>564.2890625</ele>
        <time>2016-01-17T10:03:39Z</time>
      </trkpt>
      <trkpt lat="43.35436" lon="5.98866">
        <ele>564.1328125</ele>
        <time>2016-01-17T10:03:52Z</time>
      </trkpt>
      <trkpt lat="43.35438" lon="5.98866">
        <ele>564.25</ele>
        <time>2016-01-17T10:04:13Z</time>
      </trkpt>
      <trkpt lat="43.35439" lon="5.98867">
        <ele>564.4453125</ele>
        <time>2016-01-17T10:04:31Z</time>
      </trkpt>
      <trkpt lat="43.35439" lon="5.98869">
        <ele>564.76953125</ele>
        <time>2016-01-17T10:04:44Z</time>
      </trkpt>
      <trkpt lat="43.35439" lon="5.9887">
        <ele>565.07421875</ele>
        <time>2016-01-17T10:05:03Z</time>
      </trkpt>
      <trkpt lat="43.35443" lon="5.98879">
        <ele>566.546875</ele>
        <time>2016-01-17T10:05:16Z</time>
      </trkpt>
      <trkpt lat="43.35445" lon="5.98887">
        <ele>567.578125</ele>
        <time>2016-01-17T10:05:29Z</time>
      </trkpt>
      <trkpt lat="43.35446" lon="5.98894">
        <ele>568.515625</ele>
        <time>2016-01-17T10:05:41Z</time>
      </trkpt>
      <trkpt lat="43.35448" lon="5.98899">
        <ele>569</ele>
        <time>2016-01-17T10:05:58Z</time>
      </trkpt>
      <trkpt lat="43.35452" lon="5.98906">
        <ele>569.37109375</ele>
        <time>2016-01-17T10:06:10Z</time>
      </trkpt>
      <trkpt lat="43.35457" lon="5.98913">
        <ele>569.28515625</ele>
        <time>2016-01-17T10:06:25Z</time>
      </trkpt>
      <trkpt lat="43.35462" lon="5.98925">
        <ele>568.89453125</ele>
        <time>2016-01-17T10:06:37Z</time>
      </trkpt>
      <trkpt lat="43.35463" lon="5.98941">
        <ele>569.6484375</ele>
        <time>2016-01-17T10:06:50Z</time>
      </trkpt>
      <trkpt lat="43.35461" lon="5.98955">
        <ele>570.65625</ele>
        <time>2016-01-17T10:07:04Z</time>
      </trkpt>
      <trkpt lat="43.35463" lon="5.98961">
        <ele>570.62109375</ele>
        <time>2016-01-17T10:07:17Z</time>
      </trkpt>
      <trkpt lat="43.35465" lon="5.98966">
        <ele>570.65234375</ele>
        <time>2016-01-17T10:07:28Z</time>
      </trkpt>
      <trkpt lat="43.35468" lon="5.98978">
        <ele>570.03125</ele>
        <time>2016-01-17T10:07:45Z</time>
      </trkpt>
      <trkpt lat="43.35475" lon="5.98992">
        <ele>570.76953125</ele>
        <time>2016-01-17T10:08:00Z</time>
      </trkpt>
      <trkpt lat="43.35478" lon="5.99011">
        <ele>570.76953125</ele>
        <time>2016-01-17T10:08:14Z</time>
      </trkpt>
      <trkpt lat="43.35479" lon="5.99017">
        <ele>570.82421875</ele>
        <time>2016-01-17T10:08:19Z</time>
      </trkpt>
      <trkpt lat="43.3548" lon="5.99032">
        <ele>570.97265625</ele>
        <time>2016-01-17T10:08:31Z</time>
      </trkpt>
      <trkpt lat="43.35493" lon="5.99043">
        <ele>572.859375</ele>
        <time>2016-01-17T10:08:46Z</time>
      </trkpt>
      <trkpt lat="43.35496" lon="5.99048">
        <ele>573.1484375</ele>
        <time>2016-01-17T10:08:51Z</time>
      </trkpt>
      <trkpt lat="43.35501" lon="5.99069">
        <ele>573.16015625</ele>
        <time>2016-01-17T10:09:08Z</time>
      </trkpt>
      <trkpt lat="43.35501" lon="5.99079">
        <ele>572.85546875</ele>
        <time>2016-01-17T10:09:17Z</time>
      </trkpt>
      <trkpt lat="43.35502" lon="5.99083">
        <ele>572.76171875</ele>
        <time>2016-01-17T10:09:22Z</time>
      </trkpt>
      <trkpt lat="43.35512" lon="5.99091">
        <ele>573.234375</ele>
        <time>2016-01-17T10:09:37Z</time>
      </trkpt>
      <trkpt lat="43.35511" lon="5.99098">
        <ele>572.79296875</ele>
        <time>2016-01-17T10:09:51Z</time>
      </trkpt>
      <trkpt lat="43.35514" lon="5.99084">
        <ele>573.75390625</ele>
        <time>2016-01-17T10:10:09Z</time>
      </trkpt>
      <trkpt lat="43.35514" lon="5.99075">
        <ele>574.234375</ele>
        <time>2016-01-17T10:10:25Z</time>
      </trkpt>
      <trkpt lat="43.35514" lon="5.99076">
        <ele>574.21875</ele>
        <time>2016-01-17T10:10:34Z</time>
      </trkpt>
      <trkpt lat="43.35514" lon="5.99076">
        <ele>574.203125</ele>
        <time>2016-01-17T10:10:35Z</time>
      </trkpt>
      <trkpt lat="43.35514" lon="5.99075">
        <ele>574.2578125</ele>
        <time>2016-01-17T10:10:50Z</time>
      </trkpt>
      <trkpt lat="43.35519" lon="5.99077">
        <ele>574.65234375</ele>
        <time>2016-01-17T10:11:17Z</time>
      </trkpt>
      <trkpt lat="43.35526" lon="5.99093">
        <ele>574.5546875</ele>
        <time>2016-01-17T10:11:33Z</time>
      </trkpt>
      <trkpt lat="43.35527" lon="5.99096">
        <ele>574.7578125</ele>
        <time>2016-01-17T10:11:35Z</time>
      </trkpt>
      <trkpt lat="43.35535" lon="5.99117">
        <ele>575.77734375</ele>
        <time>2016-01-17T10:11:51Z</time>
      </trkpt>
      <trkpt lat="43.35538" lon="5.99126">
        <ele>575.6796875</ele>
        <time>2016-01-17T10:11:59Z</time>
      </trkpt>
      <trkpt lat="43.3554" lon="5.99154">
        <ele>572.28515625</ele>
        <time>2016-01-17T10:12:17Z</time>
      </trkpt>
      <trkpt lat="43.35542" lon="5.99157">
        <ele>572.171875</ele>
        <time>2016-01-17T10:12:22Z</time>
      </trkpt>
      <trkpt lat="43.35556" lon="5.9917">
        <ele>572.73046875</ele>
        <time>2016-01-17T10:12:40Z</time>
      </trkpt>
      <trkpt lat="43.35561" lon="5.99172">
        <ele>573.3984375</ele>
        <time>2016-01-17T10:12:48Z</time>
      </trkpt>
      <trkpt lat="43.35567" lon="5.99173">
        <ele>574.05859375</ele>
        <time>2016-01-17T10:13:01Z</time>
      </trkpt>
      <trkpt lat="43.35571" lon="5.99183">
        <ele>572.5625</ele>
        <time>2016-01-17T10:13:09Z</time>
      </trkpt>
      <trkpt lat="43.35575" lon="5.99199">
        <ele>569.38671875</ele>
        <time>2016-01-17T10:13:23Z</time>
      </trkpt>
      <trkpt lat="43.35582" lon="5.99211">
        <ele>567.234375</ele>
        <time>2016-01-17T10:13:35Z</time>
      </trkpt>
      <trkpt lat="43.3559" lon="5.99218">
        <ele>566.0546875</ele>
        <time>2016-01-17T10:13:48Z</time>
      </trkpt>
      <trkpt lat="43.35597" lon="5.99217">
        <ele>566.453125</ele>
        <time>2016-01-17T10:13:54Z</time>
      </trkpt>
      <trkpt lat="43.35601" lon="5.99218">
        <ele>566.484375</ele>
        <time>2016-01-17T10:14:00Z</time>
      </trkpt>
      <trkpt lat="43.35609" lon="5.9922">
        <ele>566.40625</ele>
        <time>2016-01-17T10:14:06Z</time>
      </trkpt>
      <trkpt lat="43.35613" lon="5.99219">
        <ele>566.66015625</ele>
        <time>2016-01-17T10:14:11Z</time>
      </trkpt>
      <trkpt lat="43.35625" lon="5.99221">
        <ele>566.73828125</ele>
        <time>2016-01-17T10:14:27Z</time>
      </trkpt>
      <trkpt lat="43.3563" lon="5.99219">
        <ele>567.5390625</ele>
        <time>2016-01-17T10:14:33Z</time>
      </trkpt>
      <trkpt lat="43.35633" lon="5.99215">
        <ele>568.80078125</ele>
        <time>2016-01-17T10:14:45Z</time>
      </trkpt>
      <trkpt lat="43.35633" lon="5.99203">
        <ele>571.6328125</ele>
        <time>2016-01-17T10:14:59Z</time>
      </trkpt>
      <trkpt lat="43.35633" lon="5.99196">
        <ele>573.5078125</ele>
        <time>2016-01-17T10:15:11Z</time>
      </trkpt>
      <trkpt lat="43.35636" lon="5.99187">
        <ele>576.03125</ele>
        <time>2016-01-17T10:15:22Z</time>
      </trkpt>
      <trkpt lat="43.3564" lon="5.99181">
        <ele>578.484375</ele>
        <time>2016-01-17T10:15:35Z</time>
      </trkpt>
      <trkpt lat="43.35644" lon="5.99175">
        <ele>581.1875</ele>
        <time>2016-01-17T10:15:52Z</time>
      </trkpt>
      <trkpt lat="43.35648" lon="5.99175">
        <ele>581.890625</ele>
        <time>2016-01-17T10:16:04Z</time>
      </trkpt>
      <trkpt lat="43.35656" lon="5.99174">
        <ele>583.41796875</ele>
        <time>2016-01-17T10:16:20Z</time>
      </trkpt>
      <trkpt lat="43.35659" lon="5.99173">
        <ele>583.9609375</ele>
        <time>2016-01-17T10:16:24Z</time>
      </trkpt>
      <trkpt lat="43.35664" lon="5.99167">
        <ele>586.390625</ele>
        <time>2016-01-17T10:16:39Z</time>
      </trkpt>
      <trkpt lat="43.35668" lon="5.99164">
        <ele>587.73046875</ele>
        <time>2016-01-17T10:16:45Z</time>
      </trkpt>
      <trkpt lat="43.35678" lon="5.9916">
        <ele>590.0625</ele>
        <time>2016-01-17T10:16:58Z</time>
      </trkpt>
      <trkpt lat="43.35683" lon="5.99153">
        <ele>592.23046875</ele>
        <time>2016-01-17T10:17:14Z</time>
      </trkpt>
      <trkpt lat="43.35687" lon="5.99143">
        <ele>594.90625</ele>
        <time>2016-01-17T10:17:32Z</time>
      </trkpt>
      <trkpt lat="43.35692" lon="5.99138">
        <ele>596.34375</ele>
        <time>2016-01-17T10:17:49Z</time>
      </trkpt>
      <trkpt lat="43.35692" lon="5.99137">
        <ele>596.66796875</ele>
        <time>2016-01-17T10:17:51Z</time>
      </trkpt>
      <trkpt lat="43.35692" lon="5.99126">
        <ele>599.9453125</ele>
        <time>2016-01-17T10:18:08Z</time>
      </trkpt>
      <trkpt lat="43.35691" lon="5.9912">
        <ele>601.9453125</ele>
        <time>2016-01-17T10:18:25Z</time>
      </trkpt>
      <trkpt lat="43.35693" lon="5.99109">
        <ele>605.78515625</ele>
        <time>2016-01-17T10:18:43Z</time>
      </trkpt>
      <trkpt lat="43.35695" lon="5.99099">
        <ele>609.203125</ele>
        <time>2016-01-17T10:19:01Z</time>
      </trkpt>
      <trkpt lat="43.35701" lon="5.99094">
        <ele>612.0703125</ele>
        <time>2016-01-17T10:19:17Z</time>
      </trkpt>
      <trkpt lat="43.35708" lon="5.99093">
        <ele>613.82421875</ele>
        <time>2016-01-17T10:19:29Z</time>
      </trkpt>
      <trkpt lat="43.35711" lon="5.99092">
        <ele>614.859375</ele>
        <time>2016-01-17T10:19:47Z</time>
      </trkpt>
      <trkpt lat="43.35711" lon="5.99087">
        <ele>616.40234375</ele>
        <time>2016-01-17T10:19:59Z</time>
      </trkpt>
      <trkpt lat="43.35709" lon="5.99086">
        <ele>616.265625</ele>
        <time>2016-01-17T10:20:03Z</time>
      </trkpt>
      <trkpt lat="43.35706" lon="5.99084">
        <ele>616.48828125</ele>
        <time>2016-01-17T10:20:15Z</time>
      </trkpt>
      <trkpt lat="43.35705" lon="5.99081">
        <ele>617.2265625</ele>
        <time>2016-01-17T10:20:27Z</time>
      </trkpt>
      <trkpt lat="43.35704" lon="5.9908">
        <ele>617.30078125</ele>
        <time>2016-01-17T10:20:47Z</time>
      </trkpt>
      <trkpt lat="43.35706" lon="5.99075">
        <ele>619.16015625</ele>
        <time>2016-01-17T10:21:02Z</time>
      </trkpt>
      <trkpt lat="43.35706" lon="5.99071">
        <ele>620.78515625</ele>
        <time>2016-01-17T10:21:21Z</time>
      </trkpt>
      <trkpt lat="43.35712" lon="5.9907">
        <ele>622.25</ele>
        <time>2016-01-17T10:21:36Z</time>
      </trkpt>
      <trkpt lat="43.35714" lon="5.99068">
        <ele>623.3359375</ele>
        <time>2016-01-17T10:21:42Z</time>
      </trkpt>
      <trkpt lat="43.35723" lon="5.99065">
        <ele>625.8828125</ele>
        <time>2016-01-17T10:21:57Z</time>
      </trkpt>
      <trkpt lat="43.35728" lon="5.99059">
        <ele>628.8984375</ele>
        <time>2016-01-17T10:22:13Z</time>
      </trkpt>
      <trkpt lat="43.3573" lon="5.99064">
        <ele>627.62109375</ele>
        <time>2016-01-17T10:22:27Z</time>
      </trkpt>
      <trkpt lat="43.35727" lon="5.99058">
        <ele>629.109375</ele>
        <time>2016-01-17T10:22:48Z</time>
      </trkpt>
      <trkpt lat="43.35725" lon="5.99054">
        <ele>630.03515625</ele>
        <time>2016-01-17T10:22:57Z</time>
      </trkpt>
      <trkpt lat="43.35723" lon="5.99052">
        <ele>630.375</ele>
        <time>2016-01-17T10:23:08Z</time>
      </trkpt>
      <trkpt lat="43.35725" lon="5.99051">
        <ele>631.046875</ele>
        <time>2016-01-17T10:23:22Z</time>
      </trkpt>
      <trkpt lat="43.35724" lon="5.9905">
        <ele>631.2421875</ele>
        <time>2016-01-17T10:23:33Z</time>
      </trkpt>
      <trkpt lat="43.35722" lon="5.99046">
        <ele>632.16796875</ele>
        <time>2016-01-17T10:23:44Z</time>
      </trkpt>
      <trkpt lat="43.35722" lon="5.99046">
        <ele>632.19140625</ele>
        <time>2016-01-17T10:23:59Z</time>
      </trkpt>
      <trkpt lat="43.35722" lon="5.99038">
        <ele>634.74609375</ele>
        <time>2016-01-17T10:24:13Z</time>
      </trkpt>
      <trkpt lat="43.3572" lon="5.99032">
        <ele>636.59765625</ele>
        <time>2016-01-17T10:24:23Z</time>
      </trkpt>
      <trkpt lat="43.35716" lon="5.99028">
        <ele>636.92578125</ele>
        <time>2016-01-17T10:24:36Z</time>
      </trkpt>
      <trkpt lat="43.35716" lon="5.99024">
        <ele>638.375</ele>
        <time>2016-01-17T10:24:49Z</time>
      </trkpt>
      <trkpt lat="43.35715" lon="5.99022">
        <ele>638.265625</ele>
        <time>2016-01-17T10:24:54Z</time>
      </trkpt>
      <trkpt lat="43.35715" lon="5.99014">
        <ele>640.1484375</ele>
        <time>2016-01-17T10:25:07Z</time>
      </trkpt>
      <trkpt lat="43.3572" lon="5.9901">
        <ele>642.14453125</ele>
        <time>2016-01-17T10:25:21Z</time>
      </trkpt>
      <trkpt lat="43.35728" lon="5.99006">
        <ele>644.48828125</ele>
        <time>2016-01-17T10:25:34Z</time>
      </trkpt>
      <trkpt lat="43.35732" lon="5.99006">
        <ele>645.4765625</ele>
        <time>2016-01-17T10:25:49Z</time>
      </trkpt>
      <trkpt lat="43.35735" lon="5.99006">
        <ele>646.13671875</ele>
        <time>2016-01-17T10:25:53Z</time>
      </trkpt>
      <trkpt lat="43.35742" lon="5.99">
        <ele>648.671875</ele>
        <time>2016-01-17T10:26:05Z</time>
      </trkpt>
      <trkpt lat="43.35748" lon="5.98994">
        <ele>651.11328125</ele>
        <time>2016-01-17T10:26:12Z</time>
      </trkpt>
      <trkpt lat="43.35753" lon="5.98994">
        <ele>652.4375</ele>
        <time>2016-01-17T10:26:28Z</time>
      </trkpt>
      <trkpt lat="43.35755" lon="5.99001">
        <ele>651.5390625</ele>
        <time>2016-01-17T10:26:44Z</time>
      </trkpt>
      <trkpt lat="43.35758" lon="5.99004">
        <ele>651.828125</ele>
        <time>2016-01-17T10:27:03Z</time>
      </trkpt>
      <trkpt lat="43.35768" lon="5.99015">
        <ele>652.21875</ele>
        <time>2016-01-17T10:27:22Z</time>
      </trkpt>
      <trkpt lat="43.35771" lon="5.99014">
        <ele>652.95703125</ele>
        <time>2016-01-17T10:27:28Z</time>
      </trkpt>
      <trkpt lat="43.35775" lon="5.99018">
        <ele>653.296875</ele>
        <time>2016-01-17T10:27:34Z</time>
      </trkpt>
      <trkpt lat="43.3578" lon="5.99023">
        <ele>653.3125</ele>
        <time>2016-01-17T10:27:42Z</time>
      </trkpt>
      <trkpt lat="43.35783" lon="5.99027">
        <ele>653.11328125</ele>
        <time>2016-01-17T10:27:46Z</time>
      </trkpt>
      <trkpt lat="43.35787" lon="5.99035">
        <ele>651.40625</ele>
        <time>2016-01-17T10:28:00Z</time>
      </trkpt>
      <trkpt lat="43.35789" lon="5.99034">
        <ele>652.22265625</ele>
        <time>2016-01-17T10:28:04Z</time>
      </trkpt>
      <trkpt lat="43.35792" lon="5.99036">
        <ele>652.4921875</ele>
        <time>2016-01-17T10:28:07Z</time>
      </trkpt>
      <trkpt lat="43.35795" lon="5.99037">
        <ele>652.86328125</ele>
        <time>2016-01-17T10:28:11Z</time>
      </trkpt>
      <trkpt lat="43.35804" lon="5.9904">
        <ele>654.0078125</ele>
        <time>2016-01-17T10:28:21Z</time>
      </trkpt>
      <trkpt lat="43.35805" lon="5.9904">
        <ele>654.46875</ele>
        <time>2016-01-17T10:28:22Z</time>
      </trkpt>
      <trkpt lat="43.35824" lon="5.99039">
        <ele>659.546875</ele>
        <time>2016-01-17T10:28:39Z</time>
      </trkpt>
      <trkpt lat="43.35839" lon="5.99045">
        <ele>662.09765625</ele>
        <time>2016-01-17T10:28:55Z</time>
      </trkpt>
      <trkpt lat="43.3584" lon="5.99045">
        <ele>662.23828125</ele>
        <time>2016-01-17T10:28:56Z</time>
      </trkpt>
      <trkpt lat="43.3586" lon="5.99055">
        <ele>664.953125</ele>
        <time>2016-01-17T10:29:15Z</time>
      </trkpt>
      <trkpt lat="43.35878" lon="5.99061">
        <ele>666.9765625</ele>
        <time>2016-01-17T10:29:32Z</time>
      </trkpt>
      <trkpt lat="43.35878" lon="5.99062">
        <ele>666.9140625</ele>
        <time>2016-01-17T10:29:33Z</time>
      </trkpt>
      <trkpt lat="43.35891" lon="5.99068">
        <ele>668.25</ele>
        <time>2016-01-17T10:29:47Z</time>
      </trkpt>
      <trkpt lat="43.35908" lon="5.99077">
        <ele>670.96484375</ele>
        <time>2016-01-17T10:30:05Z</time>
      </trkpt>
      <trkpt lat="43.3592" lon="5.9908">
        <ele>673.03125</ele>
        <time>2016-01-17T10:30:18Z</time>
      </trkpt>
      <trkpt lat="43.35934" lon="5.99074">
        <ele>675.88671875</ele>
        <time>2016-01-17T10:30:33Z</time>
      </trkpt>
      <trkpt lat="43.35949" lon="5.99065">
        <ele>678.4921875</ele>
        <time>2016-01-17T10:30:53Z</time>
      </trkpt>
      <trkpt lat="43.3595" lon="5.9906">
        <ele>678.6953125</ele>
        <time>2016-01-17T10:31:11Z</time>
      </trkpt>
      <trkpt lat="43.35951" lon="5.99059">
        <ele>678.7890625</ele>
        <time>2016-01-17T10:33:29Z</time>
      </trkpt>
      <trkpt lat="43.35948" lon="5.99052">
        <ele>678.53125</ele>
        <time>2016-01-17T10:33:51Z</time>
      </trkpt>
      <trkpt lat="43.35951" lon="5.99043">
        <ele>678.9453125</ele>
        <time>2016-01-17T10:34:01Z</time>
      </trkpt>
      <trkpt lat="43.35957" lon="5.99018">
        <ele>679.02734375</ele>
        <time>2016-01-17T10:34:19Z</time>
      </trkpt>
      <trkpt lat="43.35966" lon="5.98991">
        <ele>677.59765625</ele>
        <time>2016-01-17T10:34:39Z</time>
      </trkpt>
      <trkpt lat="43.35957" lon="5.98964">
        <ele>676.26953125</ele>
        <time>2016-01-17T10:34:57Z</time>
      </trkpt>
      <trkpt lat="43.3597" lon="5.98952">
        <ele>675.31640625</ele>
        <time>2016-01-17T10:35:15Z</time>
      </trkpt>
      <trkpt lat="43.3598" lon="5.98958">
        <ele>674.625</ele>
        <time>2016-01-17T10:35:25Z</time>
      </trkpt>
      <trkpt lat="43.35994" lon="5.98964">
        <ele>673.55859375</ele>
        <time>2016-01-17T10:35:38Z</time>
      </trkpt>
      <trkpt lat="43.35997" lon="5.98964">
        <ele>673.21484375</ele>
        <time>2016-01-17T10:35:42Z</time>
      </trkpt>
      <trkpt lat="43.36012" lon="5.9896">
        <ele>671.59765625</ele>
        <time>2016-01-17T10:35:58Z</time>
      </trkpt>
      <trkpt lat="43.3602" lon="5.98963">
        <ele>671.02734375</ele>
        <time>2016-01-17T10:36:04Z</time>
      </trkpt>
      <trkpt lat="43.3603" lon="5.98968">
        <ele>670.87890625</ele>
        <time>2016-01-17T10:36:12Z</time>
      </trkpt>
      <trkpt lat="43.36044" lon="5.98981">
        <ele>672.0625</ele>
        <time>2016-01-17T10:36:26Z</time>
      </trkpt>
      <trkpt lat="43.3606" lon="5.98992">
        <ele>672.41796875</ele>
        <time>2016-01-17T10:36:42Z</time>
      </trkpt>
      <trkpt lat="43.36069" lon="5.98989">
        <ele>671.70703125</ele>
        <time>2016-01-17T10:36:49Z</time>
      </trkpt>
      <trkpt lat="43.36083" lon="5.98983">
        <ele>671.296875</ele>
        <time>2016-01-17T10:37:02Z</time>
      </trkpt>
      <trkpt lat="43.36094" lon="5.98988">
        <ele>673.66796875</ele>
        <time>2016-01-17T10:37:17Z</time>
      </trkpt>
      <trkpt lat="43.3611" lon="5.99008">
        <ele>676.59765625</ele>
        <time>2016-01-17T10:37:36Z</time>
      </trkpt>
      <trkpt lat="43.36122" lon="5.99023">
        <ele>678.31640625</ele>
        <time>2016-01-17T10:37:52Z</time>
      </trkpt>
      <trkpt lat="43.36135" lon="5.99027">
        <ele>680.37890625</ele>
        <time>2016-01-17T10:38:05Z</time>
      </trkpt>
      <trkpt lat="43.3614" lon="5.99027">
        <ele>680.96484375</ele>
        <time>2016-01-17T10:38:09Z</time>
      </trkpt>
      <trkpt lat="43.36155" lon="5.99035">
        <ele>683.984375</ele>
        <time>2016-01-17T10:38:25Z</time>
      </trkpt>
      <trkpt lat="43.36172" lon="5.99047">
        <ele>686.859375</ele>
        <time>2016-01-17T10:38:45Z</time>
      </trkpt>
      <trkpt lat="43.36189" lon="5.99064">
        <ele>688.81640625</ele>
        <time>2016-01-17T10:39:05Z</time>
      </trkpt>
      <trkpt lat="43.362" lon="5.99072">
        <ele>691.98046875</ele>
        <time>2016-01-17T10:39:16Z</time>
      </trkpt>
      <trkpt lat="43.36212" lon="5.99075">
        <ele>696.17578125</ele>
        <time>2016-01-17T10:39:28Z</time>
      </trkpt>
      <trkpt lat="43.36214" lon="5.99084">
        <ele>697.32421875</ele>
        <time>2016-01-17T10:39:36Z</time>
      </trkpt>
      <trkpt lat="43.36217" lon="5.99093">
        <ele>699.1875</ele>
        <time>2016-01-17T10:39:43Z</time>
      </trkpt>
      <trkpt lat="43.36222" lon="5.99111">
        <ele>702.109375</ele>
        <time>2016-01-17T10:39:58Z</time>
      </trkpt>
      <trkpt lat="43.36219" lon="5.99137">
        <ele>703.8359375</ele>
        <time>2016-01-17T10:40:18Z</time>
      </trkpt>
      <trkpt lat="43.36216" lon="5.99145">
        <ele>704.31640625</ele>
        <time>2016-01-17T10:40:33Z</time>
      </trkpt>
      <trkpt lat="43.36215" lon="5.99148">
        <ele>704.6171875</ele>
        <time>2016-01-17T10:40:35Z</time>
      </trkpt>
      <trkpt lat="43.36215" lon="5.99161">
        <ele>706.77734375</ele>
        <time>2016-01-17T10:40:47Z</time>
      </trkpt>
      <trkpt lat="43.36219" lon="5.99164">
        <ele>707.97265625</ele>
        <time>2016-01-17T10:40:51Z</time>
      </trkpt>
      <trkpt lat="43.36234" lon="5.99172">
        <ele>711.828125</ele>
        <time>2016-01-17T10:41:08Z</time>
      </trkpt>
      <trkpt lat="43.36235" lon="5.99173">
        <ele>712.1015625</ele>
        <time>2016-01-17T10:41:09Z</time>
      </trkpt>
      <trkpt lat="43.36246" lon="5.99181">
        <ele>714.828125</ele>
        <time>2016-01-17T10:41:21Z</time>
      </trkpt>
      <trkpt lat="43.36256" lon="5.99182">
        <ele>716.88671875</ele>
        <time>2016-01-17T10:41:33Z</time>
      </trkpt>
      <trkpt lat="43.36259" lon="5.99182">
        <ele>717.48828125</ele>
        <time>2016-01-17T10:41:38Z</time>
      </trkpt>
      <trkpt lat="43.36265" lon="5.99184">
        <ele>719.08984375</ele>
        <time>2016-01-17T10:41:47Z</time>
      </trkpt>
      <trkpt lat="43.36268" lon="5.99186">
        <ele>719.73828125</ele>
        <time>2016-01-17T10:41:51Z</time>
      </trkpt>
      <trkpt lat="43.36281" lon="5.99187">
        <ele>722.4765625</ele>
        <time>2016-01-17T10:42:08Z</time>
      </trkpt>
      <trkpt lat="43.36293" lon="5.99185">
        <ele>724.8984375</ele>
        <time>2016-01-17T10:42:24Z</time>
      </trkpt>
      <trkpt lat="43.36305" lon="5.99182">
        <ele>726.72265625</ele>
        <time>2016-01-17T10:42:39Z</time>
      </trkpt>
      <trkpt lat="43.36319" lon="5.99179">
        <ele>727.79296875</ele>
        <time>2016-01-17T10:42:57Z</time>
      </trkpt>
      <trkpt lat="43.36332" lon="5.99182">
        <ele>728.91015625</ele>
        <time>2016-01-17T10:43:11Z</time>
      </trkpt>
      <trkpt lat="43.3634" lon="5.99181">
        <ele>729.52734375</ele>
        <time>2016-01-17T10:43:22Z</time>
      </trkpt>
      <trkpt lat="43.36353" lon="5.99184">
        <ele>730.5859375</ele>
        <time>2016-01-17T10:43:35Z</time>
      </trkpt>
      <trkpt lat="43.3636" lon="5.99184">
        <ele>731.16796875</ele>
        <time>2016-01-17T10:43:49Z</time>
      </trkpt>
      <trkpt lat="43.36358" lon="5.99185">
        <ele>731.04296875</ele>
        <time>2016-01-17T10:44:04Z</time>
      </trkpt>
      <trkpt lat="43.36361" lon="5.99185">
        <ele>731.2890625</ele>
        <time>2016-01-17T10:44:31Z</time>
      </trkpt>
      <trkpt lat="43.3636" lon="5.99186">
        <ele>731.2265625</ele>
        <time>2016-01-17T10:44:51Z</time>
      </trkpt>
      <trkpt lat="43.36359" lon="5.99186">
        <ele>731.08984375</ele>
        <time>2016-01-17T10:45:16Z</time>
      </trkpt>
      <trkpt lat="43.36358" lon="5.99186">
        <ele>731.04296875</ele>
        <time>2016-01-17T10:45:42Z</time>
      </trkpt>
      <trkpt lat="43.36358" lon="5.99187">
        <ele>730.9765625</ele>
        <time>2016-01-17T10:46:07Z</time>
      </trkpt>
      <trkpt lat="43.36356" lon="5.99186">
        <ele>730.89453125</ele>
        <time>2016-01-17T10:46:40Z</time>
      </trkpt>
      <trkpt lat="43.36356" lon="5.99186">
        <ele>730.85546875</ele>
        <time>2016-01-17T10:47:11Z</time>
      </trkpt>
      <trkpt lat="43.36357" lon="5.99183">
        <ele>730.9609375</ele>
        <time>2016-01-17T10:47:33Z</time>
      </trkpt>
      <trkpt lat="43.36358" lon="5.99186">
        <ele>731.0390625</ele>
        <time>2016-01-17T10:47:55Z</time>
      </trkpt>
      <trkpt lat="43.36359" lon="5.99184">
        <ele>731.0703125</ele>
        <time>2016-01-17T10:48:19Z</time>
      </trkpt>
      <trkpt lat="43.36357" lon="5.99185">
        <ele>730.9609375</ele>
        <time>2016-01-17T10:48:29Z</time>
      </trkpt>
      <trkpt lat="43.36358" lon="5.99185">
        <ele>730.99609375</ele>
        <time>2016-01-17T10:48:30Z</time>
      </trkpt>
      <trkpt lat="43.3636" lon="5.99185">
        <ele>731.1953125</ele>
        <time>2016-01-17T10:48:49Z</time>
      </trkpt>
      <trkpt lat="43.3636" lon="5.99185">
        <ele>731.2265625</ele>
        <time>2016-01-17T10:49:08Z</time>
      </trkpt>
      <trkpt lat="43.36362" lon="5.99183">
        <ele>731.359375</ele>
        <time>2016-01-17T10:49:33Z</time>
      </trkpt>
      <trkpt lat="43.36366" lon="5.99182">
        <ele>731.84765625</ele>
        <time>2016-01-17T10:49:44Z</time>
      </trkpt>
      <trkpt lat="43.36376" lon="5.99172">
        <ele>733.015625</ele>
        <time>2016-01-17T10:50:00Z</time>
      </trkpt>
      <trkpt lat="43.36385" lon="5.99183">
        <ele>733.69921875</ele>
        <time>2016-01-17T10:50:15Z</time>
      </trkpt>
      <trkpt lat="43.36392" lon="5.99201">
        <ele>733.73046875</ele>
        <time>2016-01-17T10:50:31Z</time>
      </trkpt>
      <trkpt lat="43.36404" lon="5.99213">
        <ele>733.94140625</ele>
        <time>2016-01-17T10:50:48Z</time>
      </trkpt>
      <trkpt lat="43.36404" lon="5.99217">
        <ele>733.7578125</ele>
        <time>2016-01-17T10:50:51Z</time>
      </trkpt>
      <trkpt lat="43.36416" lon="5.99242">
        <ele>732.5390625</ele>
        <time>2016-01-17T10:51:07Z</time>
      </trkpt>
      <trkpt lat="43.36432" lon="5.99257">
        <ele>733</ele>
        <time>2016-01-17T10:51:24Z</time>
      </trkpt>
      <trkpt lat="43.36436" lon="5.99259">
        <ele>733.19921875</ele>
        <time>2016-01-17T10:51:27Z</time>
      </trkpt>
      <trkpt lat="43.36455" lon="5.99261">
        <ele>734.68359375</ele>
        <time>2016-01-17T10:51:43Z</time>
      </trkpt>
      <trkpt lat="43.36472" lon="5.99262">
        <ele>736.03125</ele>
        <time>2016-01-17T10:51:58Z</time>
      </trkpt>
      <trkpt lat="43.36489" lon="5.99261">
        <ele>737.40625</ele>
        <time>2016-01-17T10:52:13Z</time>
      </trkpt>
      <trkpt lat="43.36503" lon="5.99266">
        <ele>738.25</ele>
        <time>2016-01-17T10:52:27Z</time>
      </trkpt>
      <trkpt lat="43.36514" lon="5.99266">
        <ele>739.109375</ele>
        <time>2016-01-17T10:52:38Z</time>
      </trkpt>
      <trkpt lat="43.36528" lon="5.99269">
        <ele>740.2578125</ele>
        <time>2016-01-17T10:52:55Z</time>
      </trkpt>
      <trkpt lat="43.36531" lon="5.99279">
        <ele>740.02734375</ele>
        <time>2016-01-17T10:53:04Z</time>
      </trkpt>
      <trkpt lat="43.36538" lon="5.9928">
        <ele>740.9296875</ele>
        <time>2016-01-17T10:53:19Z</time>
      </trkpt>
      <trkpt lat="43.36543" lon="5.99279">
        <ele>741.61328125</ele>
        <time>2016-01-17T10:53:23Z</time>
      </trkpt>
      <trkpt lat="43.36563" lon="5.99271">
        <ele>744.41015625</ele>
        <time>2016-01-17T10:53:43Z</time>
      </trkpt>
      <trkpt lat="43.36569" lon="5.99268">
        <ele>745.19921875</ele>
        <time>2016-01-17T10:53:48Z</time>
      </trkpt>
      <trkpt lat="43.36583" lon="5.99262">
        <ele>747.41015625</ele>
        <time>2016-01-17T10:54:01Z</time>
      </trkpt>
      <trkpt lat="43.36602" lon="5.99255">
        <ele>751.75</ele>
        <time>2016-01-17T10:54:17Z</time>
      </trkpt>
      <trkpt lat="43.36618" lon="5.99251">
        <ele>755.15234375</ele>
        <time>2016-01-17T10:54:31Z</time>
      </trkpt>
      <trkpt lat="43.36634" lon="5.99249">
        <ele>758.66796875</ele>
        <time>2016-01-17T10:54:45Z</time>
      </trkpt>
      <trkpt lat="43.36652" lon="5.99252">
        <ele>763.04296875</ele>
        <time>2016-01-17T10:55:02Z</time>
      </trkpt>
      <trkpt lat="43.36671" lon="5.99258">
        <ele>767.62109375</ele>
        <time>2016-01-17T10:55:18Z</time>
      </trkpt>
      <trkpt lat="43.36678" lon="5.9926">
        <ele>769.203125</ele>
        <time>2016-01-17T10:55:24Z</time>
      </trkpt>
      <trkpt lat="43.36689" lon="5.99274">
        <ele>772.10546875</ele>
        <time>2016-01-17T10:55:38Z</time>
      </trkpt>
      <trkpt lat="43.36691" lon="5.99281">
        <ele>772.66796875</ele>
        <time>2016-01-17T10:55:44Z</time>
      </trkpt>
      <trkpt lat="43.36694" lon="5.99305">
        <ele>773.8203125</ele>
        <time>2016-01-17T10:56:00Z</time>
      </trkpt>
      <trkpt lat="43.36694" lon="5.99325">
        <ele>774.8828125</ele>
        <time>2016-01-17T10:56:16Z</time>
      </trkpt>
      <trkpt lat="43.36692" lon="5.99341">
        <ele>775.375</ele>
        <time>2016-01-17T10:56:34Z</time>
      </trkpt>
      <trkpt lat="43.36689" lon="5.99352">
        <ele>775.26171875</ele>
        <time>2016-01-17T10:57:10Z</time>
      </trkpt>
      <trkpt lat="43.36687" lon="5.99356">
        <ele>775.1953125</ele>
        <time>2016-01-17T10:57:11Z</time>
      </trkpt>
      <trkpt lat="43.36684" lon="5.99367">
        <ele>774.70703125</ele>
        <time>2016-01-17T10:58:06Z</time>
      </trkpt>
      <trkpt lat="43.36683" lon="5.99379">
        <ele>774.625</ele>
        <time>2016-01-17T10:59:40Z</time>
      </trkpt>
      <trkpt lat="43.36685" lon="5.99388">
        <ele>775.12890625</ele>
        <time>2016-01-17T11:00:00Z</time>
      </trkpt>
      <trkpt lat="43.36692" lon="5.994">
        <ele>776.85546875</ele>
        <time>2016-01-17T11:00:26Z</time>
      </trkpt>
      <trkpt lat="43.36705" lon="5.99403">
        <ele>778.671875</ele>
        <time>2016-01-17T11:00:45Z</time>
      </trkpt>
      <trkpt lat="43.36717" lon="5.994">
        <ele>780.20703125</ele>
        <time>2016-01-17T11:01:04Z</time>
      </trkpt>
      <trkpt lat="43.36726" lon="5.994">
        <ele>781.4765625</ele>
        <time>2016-01-17T11:01:19Z</time>
      </trkpt>
      <trkpt lat="43.36735" lon="5.99393">
        <ele>782.69140625</ele>
        <time>2016-01-17T11:01:38Z</time>
      </trkpt>
      <trkpt lat="43.36749" lon="5.99405">
        <ele>784.29296875</ele>
        <time>2016-01-17T11:01:57Z</time>
      </trkpt>
      <trkpt lat="43.36757" lon="5.9941">
        <ele>784.58984375</ele>
        <time>2016-01-17T11:02:11Z</time>
      </trkpt>
      <trkpt lat="43.36762" lon="5.99404">
        <ele>785.03515625</ele>
        <time>2016-01-17T11:02:18Z</time>
      </trkpt>
      <trkpt lat="43.36772" lon="5.99388">
        <ele>786.01171875</ele>
        <time>2016-01-17T11:02:31Z</time>
      </trkpt>
      <trkpt lat="43.36789" lon="5.99369">
        <ele>787.6640625</ele>
        <time>2016-01-17T11:02:50Z</time>
      </trkpt>
      <trkpt lat="43.36795" lon="5.99349">
        <ele>789.14453125</ele>
        <time>2016-01-17T11:03:04Z</time>
      </trkpt>
      <trkpt lat="43.36796" lon="5.99348">
        <ele>789.26953125</ele>
        <time>2016-01-17T11:03:05Z</time>
      </trkpt>
      <trkpt lat="43.36799" lon="5.99327">
        <ele>791.359375</ele>
        <time>2016-01-17T11:03:20Z</time>
      </trkpt>
      <trkpt lat="43.36799" lon="5.99325">
        <ele>791.484375</ele>
        <time>2016-01-17T11:03:21Z</time>
      </trkpt>
      <trkpt lat="43.36799" lon="5.9932">
        <ele>791.9375</ele>
        <time>2016-01-17T11:03:24Z</time>
      </trkpt>
      <trkpt lat="43.36799" lon="5.99316">
        <ele>792.2734375</ele>
        <time>2016-01-17T11:03:26Z</time>
      </trkpt>
      <trkpt lat="43.36798" lon="5.99301">
        <ele>793.34765625</ele>
        <time>2016-01-17T11:03:34Z</time>
      </trkpt>
      <trkpt lat="43.36795" lon="5.99278">
        <ele>795.703125</ele>
        <time>2016-01-17T11:03:49Z</time>
      </trkpt>
      <trkpt lat="43.36794" lon="5.99269">
        <ele>796.45703125</ele>
        <time>2016-01-17T11:03:54Z</time>
      </trkpt>
      <trkpt lat="43.36793" lon="5.99251">
        <ele>798.25390625</ele>
        <time>2016-01-17T11:04:05Z</time>
      </trkpt>
      <trkpt lat="43.36791" lon="5.9923">
        <ele>800.11328125</ele>
        <time>2016-01-17T11:04:20Z</time>
      </trkpt>
      <trkpt lat="43.3679" lon="5.99213">
        <ele>801.76171875</ele>
        <time>2016-01-17T11:04:34Z</time>
      </trkpt>
      <trkpt lat="43.36787" lon="5.99192">
        <ele>803.359375</ele>
        <time>2016-01-17T11:04:49Z</time>
      </trkpt>
      <trkpt lat="43.36778" lon="5.9917">
        <ele>800.6640625</ele>
        <time>2016-01-17T11:05:07Z</time>
      </trkpt>
      <trkpt lat="43.36771" lon="5.99157">
        <ele>799.71484375</ele>
        <time>2016-01-17T11:05:18Z</time>
      </trkpt>
      <trkpt lat="43.36763" lon="5.99143">
        <ele>799.79296875</ele>
        <time>2016-01-17T11:05:33Z</time>
      </trkpt>
      <trkpt lat="43.36759" lon="5.99129">
        <ele>799.51171875</ele>
        <time>2016-01-17T11:05:48Z</time>
      </trkpt>
      <trkpt lat="43.36752" lon="5.99113">
        <ele>798.734375</ele>
        <time>2016-01-17T11:06:04Z</time>
      </trkpt>
      <trkpt lat="43.36745" lon="5.99098">
        <ele>799.00390625</ele>
        <time>2016-01-17T11:06:20Z</time>
      </trkpt>
      <trkpt lat="43.36741" lon="5.9909">
        <ele>798.828125</ele>
        <time>2016-01-17T11:06:27Z</time>
      </trkpt>
      <trkpt lat="43.36726" lon="5.99071">
        <ele>798.16015625</ele>
        <time>2016-01-17T11:06:42Z</time>
      </trkpt>
      <trkpt lat="43.36719" lon="5.99058">
        <ele>797.1796875</ele>
        <time>2016-01-17T11:06:52Z</time>
      </trkpt>
      <trkpt lat="43.3671" lon="5.99042">
        <ele>797.7734375</ele>
        <time>2016-01-17T11:07:05Z</time>
      </trkpt>
      <trkpt lat="43.367" lon="5.99036">
        <ele>801.11328125</ele>
        <time>2016-01-17T11:07:17Z</time>
      </trkpt>
      <trkpt lat="43.36681" lon="5.99024">
        <ele>804.8046875</ele>
        <time>2016-01-17T11:07:33Z</time>
      </trkpt>
      <trkpt lat="43.36669" lon="5.99016">
        <ele>803.06640625</ele>
        <time>2016-01-17T11:07:43Z</time>
      </trkpt>
      <trkpt lat="43.36652" lon="5.99005">
        <ele>803.01171875</ele>
        <time>2016-01-17T11:07:58Z</time>
      </trkpt>
      <trkpt lat="43.36645" lon="5.98993">
        <ele>803.6953125</ele>
        <time>2016-01-17T11:08:10Z</time>
      </trkpt>
      <trkpt lat="43.36629" lon="5.98984">
        <ele>806.16015625</ele>
        <time>2016-01-17T11:08:25Z</time>
      </trkpt>
      <trkpt lat="43.36626" lon="5.98983">
        <ele>806.23828125</ele>
        <time>2016-01-17T11:08:27Z</time>
      </trkpt>
      <trkpt lat="43.3662" lon="5.98966">
        <ele>807.10546875</ele>
        <time>2016-01-17T11:08:41Z</time>
      </trkpt>
      <trkpt lat="43.36616" lon="5.98943">
        <ele>805.5546875</ele>
        <time>2016-01-17T11:08:56Z</time>
      </trkpt>
      <trkpt lat="43.36615" lon="5.98915">
        <ele>803.9140625</ele>
        <time>2016-01-17T11:09:14Z</time>
      </trkpt>
      <trkpt lat="43.36615" lon="5.98911">
        <ele>803.5859375</ele>
        <time>2016-01-17T11:09:17Z</time>
      </trkpt>
      <trkpt lat="43.36613" lon="5.98892">
        <ele>802.31640625</ele>
        <time>2016-01-17T11:09:33Z</time>
      </trkpt>
      <trkpt lat="43.36614" lon="5.98884">
        <ele>801.1953125</ele>
        <time>2016-01-17T11:09:45Z</time>
      </trkpt>
      <trkpt lat="43.36617" lon="5.98874">
        <ele>799.7109375</ele>
        <time>2016-01-17T11:09:57Z</time>
      </trkpt>
      <trkpt lat="43.36616" lon="5.98876">
        <ele>800.03515625</ele>
        <time>2016-01-17T11:10:18Z</time>
      </trkpt>
      <trkpt lat="43.36618" lon="5.98862">
        <ele>797.99609375</ele>
        <time>2016-01-17T11:10:32Z</time>
      </trkpt>
      <trkpt lat="43.36624" lon="5.98851">
        <ele>793.6640625</ele>
        <time>2016-01-17T11:10:47Z</time>
      </trkpt>
      <trkpt lat="43.36629" lon="5.98844">
        <ele>790.0625</ele>
        <time>2016-01-17T11:11:00Z</time>
      </trkpt>
      <trkpt lat="43.36634" lon="5.98844">
        <ele>788.28125</ele>
        <time>2016-01-17T11:11:16Z</time>
      </trkpt>
      <trkpt lat="43.36637" lon="5.98846">
        <ele>786.63671875</ele>
        <time>2016-01-17T11:11:25Z</time>
      </trkpt>
      <trkpt lat="43.36639" lon="5.98848">
        <ele>785.9296875</ele>
        <time>2016-01-17T11:11:31Z</time>
      </trkpt>
      <trkpt lat="43.3664" lon="5.98849">
        <ele>785.41796875</ele>
        <time>2016-01-17T11:11:46Z</time>
      </trkpt>
      <trkpt lat="43.3664" lon="5.9885">
        <ele>785.765625</ele>
        <time>2016-01-17T11:12:07Z</time>
      </trkpt>
      <trkpt lat="43.36639" lon="5.9885">
        <ele>786.15234375</ele>
        <time>2016-01-17T11:12:13Z</time>
      </trkpt>
      <trkpt lat="43.36638" lon="5.98851">
        <ele>787.7578125</ele>
        <time>2016-01-17T11:12:27Z</time>
      </trkpt>
      <trkpt lat="43.36633" lon="5.98853">
        <ele>791.546875</ele>
        <time>2016-01-17T11:12:37Z</time>
      </trkpt>
      <trkpt lat="43.36634" lon="5.98853">
        <ele>791.25390625</ele>
        <time>2016-01-17T11:12:46Z</time>
      </trkpt>
      <trkpt lat="43.36634" lon="5.98853">
        <ele>791.2265625</ele>
        <time>2016-01-17T11:12:47Z</time>
      </trkpt>
      <trkpt lat="43.36633" lon="5.98852">
        <ele>791</ele>
        <time>2016-01-17T11:13:04Z</time>
      </trkpt>
      <trkpt lat="43.36635" lon="5.98851">
        <ele>790.0234375</ele>
        <time>2016-01-17T11:13:23Z</time>
      </trkpt>
      <trkpt lat="43.36635" lon="5.98851">
        <ele>789.91796875</ele>
        <time>2016-01-17T11:13:25Z</time>
      </trkpt>
      <trkpt lat="43.36636" lon="5.9885">
        <ele>789.17578125</ele>
        <time>2016-01-17T11:13:30Z</time>
      </trkpt>
      <trkpt lat="43.36636" lon="5.9885">
        <ele>788.8984375</ele>
        <time>2016-01-17T11:13:31Z</time>
      </trkpt>
      <trkpt lat="43.36637" lon="5.98849">
        <ele>788.30859375</ele>
        <time>2016-01-17T11:13:46Z</time>
      </trkpt>
      <trkpt lat="43.36637" lon="5.98849">
        <ele>787.74609375</ele>
        <time>2016-01-17T11:14:02Z</time>
      </trkpt>
      <trkpt lat="43.36636" lon="5.98848">
        <ele>788.2734375</ele>
        <time>2016-01-17T11:14:17Z</time>
      </trkpt>
      <trkpt lat="43.36636" lon="5.98848">
        <ele>788.88671875</ele>
        <time>2016-01-17T11:14:44Z</time>
      </trkpt>
      <trkpt lat="43.36636" lon="5.98849">
        <ele>789.171875</ele>
        <time>2016-01-17T11:15:09Z</time>
      </trkpt>
      <trkpt lat="43.36635" lon="5.98852">
        <ele>790.23828125</ele>
        <time>2016-01-17T11:15:19Z</time>
      </trkpt>
      <trkpt lat="43.36631" lon="5.98852">
        <ele>791.69921875</ele>
        <time>2016-01-17T11:15:34Z</time>
      </trkpt>
      <trkpt lat="43.36629" lon="5.98858">
        <ele>794.14453125</ele>
        <time>2016-01-17T11:15:53Z</time>
      </trkpt>
      <trkpt lat="43.36629" lon="5.98858">
        <ele>794.18359375</ele>
        <time>2016-01-17T11:15:58Z</time>
      </trkpt>
      <trkpt lat="43.36629" lon="5.98859">
        <ele>794.26953125</ele>
        <time>2016-01-17T11:16:06Z</time>
      </trkpt>
      <trkpt lat="43.36627" lon="5.98864">
        <ele>795.55859375</ele>
        <time>2016-01-17T11:16:21Z</time>
      </trkpt>
      <trkpt lat="43.36628" lon="5.98863">
        <ele>795.16015625</ele>
        <time>2016-01-17T11:16:35Z</time>
      </trkpt>
      <trkpt lat="43.36629" lon="5.98866">
        <ele>795.26171875</ele>
        <time>2016-01-17T11:16:50Z</time>
      </trkpt>
      <trkpt lat="43.36629" lon="5.98865">
        <ele>795.0078125</ele>
        <time>2016-01-17T11:17:08Z</time>
      </trkpt>
      <trkpt lat="43.3663" lon="5.98867">
        <ele>795.1015625</ele>
        <time>2016-01-17T11:17:20Z</time>
      </trkpt>
      <trkpt lat="43.3663" lon="5.98867">
        <ele>794.97265625</ele>
        <time>2016-01-17T11:17:23Z</time>
      </trkpt>
      <trkpt lat="43.36625" lon="5.98867">
        <ele>796.66015625</ele>
        <time>2016-01-17T11:59:25Z</time>
      </trkpt>
      <trkpt lat="43.36626" lon="5.98865">
        <ele>795.921875</ele>
        <time>2016-01-17T11:59:31Z</time>
      </trkpt>
      <trkpt lat="43.36627" lon="5.98864">
        <ele>795.46484375</ele>
        <time>2016-01-17T11:59:51Z</time>
      </trkpt>
      <trkpt lat="43.36629" lon="5.98862">
        <ele>794.72265625</ele>
        <time>2016-01-17T12:00:14Z</time>
      </trkpt>
      <trkpt lat="43.36629" lon="5.98864">
        <ele>794.82421875</ele>
        <time>2016-01-17T12:00:31Z</time>
      </trkpt>
      <trkpt lat="43.36628" lon="5.98861">
        <ele>794.953125</ele>
        <time>2016-01-17T12:00:53Z</time>
      </trkpt>
      <trkpt lat="43.36627" lon="5.9886">
        <ele>795.078125</ele>
        <time>2016-01-17T12:01:01Z</time>
      </trkpt>
      <trkpt lat="43.36627" lon="5.98862">
        <ele>795.2109375</ele>
        <time>2016-01-17T12:01:08Z</time>
      </trkpt>
      <trkpt lat="43.36628" lon="5.98863">
        <ele>795.01953125</ele>
        <time>2016-01-17T12:01:35Z</time>
      </trkpt>
      <trkpt lat="43.36628" lon="5.98862">
        <ele>794.859375</ele>
        <time>2016-01-17T12:02:04Z</time>
      </trkpt>
      <trkpt lat="43.36629" lon="5.98863">
        <ele>794.671875</ele>
        <time>2016-01-17T12:02:23Z</time>
      </trkpt>
      <trkpt lat="43.3663" lon="5.98862">
        <ele>794.515625</ele>
        <time>2016-01-17T12:02:36Z</time>
      </trkpt>
      <trkpt lat="43.36629" lon="5.98864">
        <ele>794.81640625</ele>
        <time>2016-01-17T12:02:51Z</time>
      </trkpt>
      <trkpt lat="43.36628" lon="5.98865">
        <ele>795.22265625</ele>
        <time>2016-01-17T12:03:13Z</time>
      </trkpt>
      <trkpt lat="43.3663" lon="5.98863">
        <ele>794.6328125</ele>
        <time>2016-01-17T12:03:25Z</time>
      </trkpt>
      <trkpt lat="43.36631" lon="5.98861">
        <ele>794.05859375</ele>
        <time>2016-01-17T12:03:38Z</time>
      </trkpt>
      <trkpt lat="43.3663" lon="5.98861">
        <ele>794.1953125</ele>
        <time>2016-01-17T12:03:54Z</time>
      </trkpt>
      <trkpt lat="43.36631" lon="5.98861">
        <ele>793.82421875</ele>
        <time>2016-01-17T12:04:06Z</time>
      </trkpt>
      <trkpt lat="43.36632" lon="5.98867">
        <ele>794.40625</ele>
        <time>2016-01-17T12:04:18Z</time>
      </trkpt>
      <trkpt lat="43.36632" lon="5.98873">
        <ele>795.21875</ele>
        <time>2016-01-17T12:04:29Z</time>
      </trkpt>
      <trkpt lat="43.36632" lon="5.98879">
        <ele>795.94921875</ele>
        <time>2016-01-17T12:04:34Z</time>
      </trkpt>
      <trkpt lat="43.36632" lon="5.98886">
        <ele>796.91015625</ele>
        <time>2016-01-17T12:04:46Z</time>
      </trkpt>
      <trkpt lat="43.36632" lon="5.98891">
        <ele>797.6171875</ele>
        <time>2016-01-17T12:04:59Z</time>
      </trkpt>
      <trkpt lat="43.36632" lon="5.98892">
        <ele>797.69921875</ele>
        <time>2016-01-17T12:05:01Z</time>
      </trkpt>
      <trkpt lat="43.36628" lon="5.98897">
        <ele>799.2890625</ele>
        <time>2016-01-17T12:05:09Z</time>
      </trkpt>
      <trkpt lat="43.36623" lon="5.98903">
        <ele>801.23046875</ele>
        <time>2016-01-17T12:05:20Z</time>
      </trkpt>
      <trkpt lat="43.36621" lon="5.98905">
        <ele>801.70703125</ele>
        <time>2016-01-17T12:05:23Z</time>
      </trkpt>
      <trkpt lat="43.36615" lon="5.98909">
        <ele>803.33203125</ele>
        <time>2016-01-17T12:05:33Z</time>
      </trkpt>
      <trkpt lat="43.36611" lon="5.98913">
        <ele>804.38671875</ele>
        <time>2016-01-17T12:05:41Z</time>
      </trkpt>
      <trkpt lat="43.3661" lon="5.98917">
        <ele>804.75390625</ele>
        <time>2016-01-17T12:05:56Z</time>
      </trkpt>
      <trkpt lat="43.36608" lon="5.9892">
        <ele>805.26171875</ele>
        <time>2016-01-17T12:06:18Z</time>
      </trkpt>
      <trkpt lat="43.36608" lon="5.98917">
        <ele>805.15625</ele>
        <time>2016-01-17T12:06:32Z</time>
      </trkpt>
      <trkpt lat="43.36611" lon="5.98916">
        <ele>804.59765625</ele>
        <time>2016-01-17T12:06:50Z</time>
      </trkpt>
      <trkpt lat="43.36611" lon="5.98917">
        <ele>804.65234375</ele>
        <time>2016-01-17T12:07:09Z</time>
      </trkpt>
      <trkpt lat="43.36611" lon="5.98918">
        <ele>804.609375</ele>
        <time>2016-01-17T12:07:21Z</time>
      </trkpt>
      <trkpt lat="43.36611" lon="5.98921">
        <ele>804.82421875</ele>
        <time>2016-01-17T12:07:24Z</time>
      </trkpt>
      <trkpt lat="43.36611" lon="5.98938">
        <ele>805.75</ele>
        <time>2016-01-17T12:07:38Z</time>
      </trkpt>
      <trkpt lat="43.36612" lon="5.9894">
        <ele>805.8203125</ele>
        <time>2016-01-17T12:07:40Z</time>
      </trkpt>
      <trkpt lat="43.36612" lon="5.98946">
        <ele>806.15234375</ele>
        <time>2016-01-17T12:07:44Z</time>
      </trkpt>
      <trkpt lat="43.36612" lon="5.98954">
        <ele>806.58203125</ele>
        <time>2016-01-17T12:07:49Z</time>
      </trkpt>
      <trkpt lat="43.36615" lon="5.98961">
        <ele>806.83984375</ele>
        <time>2016-01-17T12:07:54Z</time>
      </trkpt>
      <trkpt lat="43.36617" lon="5.98965">
        <ele>807.1015625</ele>
        <time>2016-01-17T12:07:58Z</time>
      </trkpt>
      <trkpt lat="43.36618" lon="5.98971">
        <ele>807.12890625</ele>
        <time>2016-01-17T12:08:03Z</time>
      </trkpt>
      <trkpt lat="43.36621" lon="5.98974">
        <ele>806.87109375</ele>
        <time>2016-01-17T12:08:07Z</time>
      </trkpt>
      <trkpt lat="43.36625" lon="5.98976">
        <ele>806.6875</ele>
        <time>2016-01-17T12:08:11Z</time>
      </trkpt>
      <trkpt lat="43.36632" lon="5.98979">
        <ele>806.4609375</ele>
        <time>2016-01-17T12:08:16Z</time>
      </trkpt>
      <trkpt lat="43.36635" lon="5.98983">
        <ele>806.203125</ele>
        <time>2016-01-17T12:08:19Z</time>
      </trkpt>
      <trkpt lat="43.36639" lon="5.9899">
        <ele>805.12890625</ele>
        <time>2016-01-17T12:08:25Z</time>
      </trkpt>
      <trkpt lat="43.36645" lon="5.99001">
        <ele>803.84375</ele>
        <time>2016-01-17T12:08:33Z</time>
      </trkpt>
      <trkpt lat="43.36657" lon="5.99009">
        <ele>802.86328125</ele>
        <time>2016-01-17T12:08:44Z</time>
      </trkpt>
      <trkpt lat="43.36674" lon="5.9902">
        <ele>803.81640625</ele>
        <time>2016-01-17T12:08:58Z</time>
      </trkpt>
      <trkpt lat="43.36691" lon="5.99027">
        <ele>804.86328125</ele>
        <time>2016-01-17T12:09:15Z</time>
      </trkpt>
      <trkpt lat="43.36692" lon="5.99028">
        <ele>804.3125</ele>
        <time>2016-01-17T12:09:17Z</time>
      </trkpt>
      <trkpt lat="43.36706" lon="5.9904">
        <ele>799.2265625</ele>
        <time>2016-01-17T12:09:33Z</time>
      </trkpt>
      <trkpt lat="43.36714" lon="5.99052">
        <ele>797.609375</ele>
        <time>2016-01-17T12:09:43Z</time>
      </trkpt>
      <trkpt lat="43.36727" lon="5.9907">
        <ele>797.859375</ele>
        <time>2016-01-17T12:09:58Z</time>
      </trkpt>
      <trkpt lat="43.36734" lon="5.9908">
        <ele>799.10546875</ele>
        <time>2016-01-17T12:10:11Z</time>
      </trkpt>
      <trkpt lat="43.36738" lon="5.99084">
        <ele>798.859375</ele>
        <time>2016-01-17T12:10:16Z</time>
      </trkpt>
      <trkpt lat="43.36743" lon="5.99103">
        <ele>799.19140625</ele>
        <time>2016-01-17T12:10:30Z</time>
      </trkpt>
      <trkpt lat="43.36747" lon="5.99117">
        <ele>799.9375</ele>
        <time>2016-01-17T12:10:39Z</time>
      </trkpt>
      <trkpt lat="43.36753" lon="5.99132">
        <ele>800.37109375</ele>
        <time>2016-01-17T12:10:54Z</time>
      </trkpt>
      <trkpt lat="43.36758" lon="5.99145">
        <ele>799.70703125</ele>
        <time>2016-01-17T12:11:08Z</time>
      </trkpt>
      <trkpt lat="43.36769" lon="5.99162">
        <ele>799.51953125</ele>
        <time>2016-01-17T12:11:24Z</time>
      </trkpt>
      <trkpt lat="43.36776" lon="5.99172">
        <ele>800.35546875</ele>
        <time>2016-01-17T12:11:39Z</time>
      </trkpt>
      <trkpt lat="43.36783" lon="5.99176">
        <ele>801.625</ele>
        <time>2016-01-17T12:11:56Z</time>
      </trkpt>
      <trkpt lat="43.36786" lon="5.99176">
        <ele>802.03515625</ele>
        <time>2016-01-17T12:12:17Z</time>
      </trkpt>
      <trkpt lat="43.36785" lon="5.99177">
        <ele>802.08203125</ele>
        <time>2016-01-17T12:12:37Z</time>
      </trkpt>
      <trkpt lat="43.36782" lon="5.99177">
        <ele>801.51171875</ele>
        <time>2016-01-17T12:12:51Z</time>
      </trkpt>
      <trkpt lat="43.36781" lon="5.99177">
        <ele>801.37109375</ele>
        <time>2016-01-17T12:13:05Z</time>
      </trkpt>
      <trkpt lat="43.36781" lon="5.99176">
        <ele>801.3359375</ele>
        <time>2016-01-17T12:13:22Z</time>
      </trkpt>
      <trkpt lat="43.36781" lon="5.99176">
        <ele>801.3203125</ele>
        <time>2016-01-17T12:13:23Z</time>
      </trkpt>
      <trkpt lat="43.36781" lon="5.99176">
        <ele>801.3125</ele>
        <time>2016-01-17T12:13:24Z</time>
      </trkpt>
      <trkpt lat="43.36781" lon="5.99176">
        <ele>801.30078125</ele>
        <time>2016-01-17T12:13:25Z</time>
      </trkpt>
      <trkpt lat="43.36781" lon="5.99176">
        <ele>801.3203125</ele>
        <time>2016-01-17T12:13:27Z</time>
      </trkpt>
      <trkpt lat="43.36781" lon="5.99176">
        <ele>801.33203125</ele>
        <time>2016-01-17T12:13:28Z</time>
      </trkpt>
      <trkpt lat="43.36782" lon="5.99176">
        <ele>801.359375</ele>
        <time>2016-01-17T12:13:30Z</time>
      </trkpt>
      <trkpt lat="43.36782" lon="5.99175">
        <ele>801.390625</ele>
        <time>2016-01-17T12:13:31Z</time>
      </trkpt>
      <trkpt lat="43.36782" lon="5.99175">
        <ele>801.37890625</ele>
        <time>2016-01-17T12:13:32Z</time>
      </trkpt>
      <trkpt lat="43.36781" lon="5.99176">
        <ele>801.3984375</ele>
        <time>2016-01-17T12:14:01Z</time>
      </trkpt>
      <trkpt lat="43.36784" lon="5.99182">
        <ele>802.3046875</ele>
        <time>2016-01-17T12:14:18Z</time>
      </trkpt>
      <trkpt lat="43.36787" lon="5.99201">
        <ele>802.375</ele>
        <time>2016-01-17T12:14:30Z</time>
      </trkpt>
      <trkpt lat="43.36789" lon="5.99229">
        <ele>799.82421875</ele>
        <time>2016-01-17T12:14:48Z</time>
      </trkpt>
      <trkpt lat="43.3679" lon="5.99233">
        <ele>799.4453125</ele>
        <time>2016-01-17T12:14:50Z</time>
      </trkpt>
      <trkpt lat="43.36793" lon="5.99262">
        <ele>796.984375</ele>
        <time>2016-01-17T12:15:05Z</time>
      </trkpt>
      <trkpt lat="43.36794" lon="5.99274">
        <ele>795.91015625</ele>
        <time>2016-01-17T12:15:11Z</time>
      </trkpt>
      <trkpt lat="43.36798" lon="5.99302">
        <ele>793.35546875</ele>
        <time>2016-01-17T12:15:27Z</time>
      </trkpt>
      <trkpt lat="43.36798" lon="5.99327">
        <ele>791.24609375</ele>
        <time>2016-01-17T12:15:42Z</time>
      </trkpt>
      <trkpt lat="43.36798" lon="5.99331">
        <ele>790.91796875</ele>
        <time>2016-01-17T12:15:44Z</time>
      </trkpt>
      <trkpt lat="43.36792" lon="5.99358">
        <ele>788.26171875</ele>
        <time>2016-01-17T12:16:01Z</time>
      </trkpt>
      <trkpt lat="43.3678" lon="5.99377">
        <ele>786.796875</ele>
        <time>2016-01-17T12:16:15Z</time>
      </trkpt>
      <trkpt lat="43.36767" lon="5.99393">
        <ele>785.61328125</ele>
        <time>2016-01-17T12:16:29Z</time>
      </trkpt>
      <trkpt lat="43.36762" lon="5.994">
        <ele>785.1328125</ele>
        <time>2016-01-17T12:16:34Z</time>
      </trkpt>
      <trkpt lat="43.36752" lon="5.99423">
        <ele>783.59375</ele>
        <time>2016-01-17T12:16:51Z</time>
      </trkpt>
      <trkpt lat="43.36753" lon="5.99431">
        <ele>783.08984375</ele>
        <time>2016-01-17T12:16:58Z</time>
      </trkpt>
      <trkpt lat="43.3675" lon="5.99449">
        <ele>781.59765625</ele>
        <time>2016-01-17T12:17:15Z</time>
      </trkpt>
      <trkpt lat="43.36749" lon="5.99453">
        <ele>781.26953125</ele>
        <time>2016-01-17T12:17:19Z</time>
      </trkpt>
      <trkpt lat="43.36754" lon="5.9947">
        <ele>780.53125</ele>
        <time>2016-01-17T12:17:30Z</time>
      </trkpt>
      <trkpt lat="43.36766" lon="5.99487">
        <ele>781.42578125</ele>
        <time>2016-01-17T12:17:51Z</time>
      </trkpt>
      <trkpt lat="43.36781" lon="5.99487">
        <ele>782.515625</ele>
        <time>2016-01-17T12:18:08Z</time>
      </trkpt>
      <trkpt lat="43.36796" lon="5.99505">
        <ele>783.53515625</ele>
        <time>2016-01-17T12:18:27Z</time>
      </trkpt>
      <trkpt lat="43.36797" lon="5.99526">
        <ele>783.59765625</ele>
        <time>2016-01-17T12:18:46Z</time>
      </trkpt>
      <trkpt lat="43.36795" lon="5.99535">
        <ele>783.18359375</ele>
        <time>2016-01-17T12:19:01Z</time>
      </trkpt>
      <trkpt lat="43.36789" lon="5.9955">
        <ele>782.36328125</ele>
        <time>2016-01-17T12:19:18Z</time>
      </trkpt>
      <trkpt lat="43.36787" lon="5.99562">
        <ele>781.80859375</ele>
        <time>2016-01-17T12:19:30Z</time>
      </trkpt>
      <trkpt lat="43.36793" lon="5.9958">
        <ele>782.01953125</ele>
        <time>2016-01-17T12:19:51Z</time>
      </trkpt>
      <trkpt lat="43.36799" lon="5.99603">
        <ele>782.0859375</ele>
        <time>2016-01-17T12:20:09Z</time>
      </trkpt>
      <trkpt lat="43.36813" lon="5.99612">
        <ele>780.828125</ele>
        <time>2016-01-17T12:20:26Z</time>
      </trkpt>
      <trkpt lat="43.36828" lon="5.99612">
        <ele>778.59765625</ele>
        <time>2016-01-17T12:20:43Z</time>
      </trkpt>
      <trkpt lat="43.36829" lon="5.99613">
        <ele>778.37109375</ele>
        <time>2016-01-17T12:20:46Z</time>
      </trkpt>
      <trkpt lat="43.36838" lon="5.99629">
        <ele>777.37109375</ele>
        <time>2016-01-17T12:21:05Z</time>
      </trkpt>
      <trkpt lat="43.36846" lon="5.99638">
        <ele>776.44140625</ele>
        <time>2016-01-17T12:21:15Z</time>
      </trkpt>
      <trkpt lat="43.36851" lon="5.9965">
        <ele>775.75</ele>
        <time>2016-01-17T12:21:29Z</time>
      </trkpt>
      <trkpt lat="43.3685" lon="5.99654">
        <ele>775.77734375</ele>
        <time>2016-01-17T12:21:31Z</time>
      </trkpt>
      <trkpt lat="43.36851" lon="5.99669">
        <ele>775.56640625</ele>
        <time>2016-01-17T12:21:46Z</time>
      </trkpt>
      <trkpt lat="43.36851" lon="5.9967">
        <ele>775.5078125</ele>
        <time>2016-01-17T12:21:48Z</time>
      </trkpt>
      <trkpt lat="43.36852" lon="5.99677">
        <ele>775.3828125</ele>
        <time>2016-01-17T12:21:55Z</time>
      </trkpt>
      <trkpt lat="43.36852" lon="5.99678">
        <ele>775.3671875</ele>
        <time>2016-01-17T12:21:56Z</time>
      </trkpt>
      <trkpt lat="43.36856" lon="5.99689">
        <ele>775.0859375</ele>
        <time>2016-01-17T12:22:08Z</time>
      </trkpt>
      <trkpt lat="43.36856" lon="5.99691">
        <ele>775.05859375</ele>
        <time>2016-01-17T12:22:11Z</time>
      </trkpt>
      <trkpt lat="43.36858" lon="5.99693">
        <ele>774.8671875</ele>
        <time>2016-01-17T12:22:15Z</time>
      </trkpt>
      <trkpt lat="43.36861" lon="5.99701">
        <ele>774.13671875</ele>
        <time>2016-01-17T12:22:22Z</time>
      </trkpt>
      <trkpt lat="43.36862" lon="5.99704">
        <ele>773.8125</ele>
        <time>2016-01-17T12:22:26Z</time>
      </trkpt>
      <trkpt lat="43.36862" lon="5.99705">
        <ele>773.75</ele>
        <time>2016-01-17T12:22:27Z</time>
      </trkpt>
      <trkpt lat="43.36865" lon="5.9971">
        <ele>773.296875</ele>
        <time>2016-01-17T12:22:33Z</time>
      </trkpt>
      <trkpt lat="43.36866" lon="5.99714">
        <ele>772.90625</ele>
        <time>2016-01-17T12:22:37Z</time>
      </trkpt>
      <trkpt lat="43.36869" lon="5.99718">
        <ele>772.49609375</ele>
        <time>2016-01-17T12:22:41Z</time>
      </trkpt>
      <trkpt lat="43.36871" lon="5.99721">
        <ele>772.11328125</ele>
        <time>2016-01-17T12:22:45Z</time>
      </trkpt>
      <trkpt lat="43.36875" lon="5.99729">
        <ele>771.46484375</ele>
        <time>2016-01-17T12:22:57Z</time>
      </trkpt>
      <trkpt lat="43.3688" lon="5.99735">
        <ele>770.73828125</ele>
        <time>2016-01-17T12:23:09Z</time>
      </trkpt>
      <trkpt lat="43.36881" lon="5.99738">
        <ele>770.609375</ele>
        <time>2016-01-17T12:23:11Z</time>
      </trkpt>
      <trkpt lat="43.3688" lon="5.99742">
        <ele>770.609375</ele>
        <time>2016-01-17T12:23:16Z</time>
      </trkpt>
      <trkpt lat="43.36878" lon="5.9975">
        <ele>770.66015625</ele>
        <time>2016-01-17T12:23:20Z</time>
      </trkpt>
      <trkpt lat="43.36877" lon="5.99758">
        <ele>770.57421875</ele>
        <time>2016-01-17T12:23:31Z</time>
      </trkpt>
      <trkpt lat="43.36883" lon="5.99773">
        <ele>769.76171875</ele>
        <time>2016-01-17T12:23:49Z</time>
      </trkpt>
      <trkpt lat="43.36884" lon="5.99775">
        <ele>769.609375</ele>
        <time>2016-01-17T12:23:54Z</time>
      </trkpt>
      <trkpt lat="43.36887" lon="5.99778">
        <ele>769.296875</ele>
        <time>2016-01-17T12:24:01Z</time>
      </trkpt>
      <trkpt lat="43.3689" lon="5.99786">
        <ele>768.87890625</ele>
        <time>2016-01-17T12:24:13Z</time>
      </trkpt>
      <trkpt lat="43.36893" lon="5.99793">
        <ele>768.5390625</ele>
        <time>2016-01-17T12:24:21Z</time>
      </trkpt>
      <trkpt lat="43.36894" lon="5.99798">
        <ele>768.390625</ele>
        <time>2016-01-17T12:24:26Z</time>
      </trkpt>
      <trkpt lat="43.36894" lon="5.99815">
        <ele>767.6875</ele>
        <time>2016-01-17T12:24:39Z</time>
      </trkpt>
      <trkpt lat="43.36892" lon="5.99827">
        <ele>767.16796875</ele>
        <time>2016-01-17T12:24:48Z</time>
      </trkpt>
      <trkpt lat="43.3689" lon="5.99832">
        <ele>766.953125</ele>
        <time>2016-01-17T12:24:52Z</time>
      </trkpt>
      <trkpt lat="43.36887" lon="5.99846">
        <ele>766.1875</ele>
        <time>2016-01-17T12:25:05Z</time>
      </trkpt>
      <trkpt lat="43.36888" lon="5.99857">
        <ele>765.4765625</ele>
        <time>2016-01-17T12:25:18Z</time>
      </trkpt>
      <trkpt lat="43.36888" lon="5.9987">
        <ele>764.11328125</ele>
        <time>2016-01-17T12:25:31Z</time>
      </trkpt>
      <trkpt lat="43.36888" lon="5.99879">
        <ele>763.13671875</ele>
        <time>2016-01-17T12:25:38Z</time>
      </trkpt>
      <trkpt lat="43.36888" lon="5.9988">
        <ele>763</ele>
        <time>2016-01-17T12:25:39Z</time>
      </trkpt>
      <trkpt lat="43.36889" lon="5.99882">
        <ele>762.74609375</ele>
        <time>2016-01-17T12:25:42Z</time>
      </trkpt>
      <trkpt lat="43.36889" lon="5.99882">
        <ele>762.78515625</ele>
        <time>2016-01-17T12:25:43Z</time>
      </trkpt>
      <trkpt lat="43.36892" lon="5.99886">
        <ele>762.59765625</ele>
        <time>2016-01-17T12:25:50Z</time>
      </trkpt>
      <trkpt lat="43.36896" lon="5.99896">
        <ele>762.09765625</ele>
        <time>2016-01-17T12:26:02Z</time>
      </trkpt>
      <trkpt lat="43.36899" lon="5.99903">
        <ele>761.7421875</ele>
        <time>2016-01-17T12:26:15Z</time>
      </trkpt>
      <trkpt lat="43.369" lon="5.99904">
        <ele>761.859375</ele>
        <time>2016-01-17T12:26:18Z</time>
      </trkpt>
      <trkpt lat="43.36901" lon="5.99904">
        <ele>761.96875</ele>
        <time>2016-01-17T12:26:21Z</time>
      </trkpt>
      <trkpt lat="43.36901" lon="5.99904">
        <ele>761.984375</ele>
        <time>2016-01-17T12:26:22Z</time>
      </trkpt>
      <trkpt lat="43.36901" lon="5.99904">
        <ele>762.02734375</ele>
        <time>2016-01-17T12:26:24Z</time>
      </trkpt>
      <trkpt lat="43.36902" lon="5.99904">
        <ele>762.03125</ele>
        <time>2016-01-17T12:26:30Z</time>
      </trkpt>
      <trkpt lat="43.36903" lon="5.99904">
        <ele>762.2109375</ele>
        <time>2016-01-17T12:26:50Z</time>
      </trkpt>
      <trkpt lat="43.36904" lon="5.99905">
        <ele>762.25</ele>
        <time>2016-01-17T12:27:01Z</time>
      </trkpt>
      <trkpt lat="43.36904" lon="5.99904">
        <ele>762.34375</ele>
        <time>2016-01-17T12:27:20Z</time>
      </trkpt>
      <trkpt lat="43.36903" lon="5.99901">
        <ele>762.44921875</ele>
        <time>2016-01-17T12:27:37Z</time>
      </trkpt>
      <trkpt lat="43.36904" lon="5.99901">
        <ele>762.44140625</ele>
        <time>2016-01-17T12:27:39Z</time>
      </trkpt>
      <trkpt lat="43.36903" lon="5.99901">
        <ele>762.38671875</ele>
        <time>2016-01-17T12:27:45Z</time>
      </trkpt>
      <trkpt lat="43.36903" lon="5.99901">
        <ele>762.39453125</ele>
        <time>2016-01-17T12:27:46Z</time>
      </trkpt>
      <trkpt lat="43.36903" lon="5.99902">
        <ele>762.36328125</ele>
        <time>2016-01-17T12:27:52Z</time>
      </trkpt>
      <trkpt lat="43.36903" lon="5.99903">
        <ele>762.26171875</ele>
        <time>2016-01-17T12:27:56Z</time>
      </trkpt>
      <trkpt lat="43.36903" lon="5.99903">
        <ele>762.21875</ele>
        <time>2016-01-17T12:28:02Z</time>
      </trkpt>
      <trkpt lat="43.36903" lon="5.99903">
        <ele>762.265625</ele>
        <time>2016-01-17T12:28:08Z</time>
      </trkpt>
      <trkpt lat="43.36904" lon="5.99902">
        <ele>762.47265625</ele>
        <time>2016-01-17T12:28:25Z</time>
      </trkpt>
      <trkpt lat="43.36903" lon="5.99902">
        <ele>762.25390625</ele>
        <time>2016-01-17T12:28:50Z</time>
      </trkpt>
      <trkpt lat="43.36903" lon="5.99902">
        <ele>762.390625</ele>
        <time>2016-01-17T12:29:11Z</time>
      </trkpt>
      <trkpt lat="43.36906" lon="5.99905">
        <ele>762.453125</ele>
        <time>2016-01-17T12:29:32Z</time>
      </trkpt>
      <trkpt lat="43.36908" lon="5.99909">
        <ele>762.53515625</ele>
        <time>2016-01-17T12:29:36Z</time>
      </trkpt>
      <trkpt lat="43.36911" lon="5.99912">
        <ele>762.66015625</ele>
        <time>2016-01-17T12:29:42Z</time>
      </trkpt>
      <trkpt lat="43.36913" lon="5.99914">
        <ele>762.84765625</ele>
        <time>2016-01-17T12:29:45Z</time>
      </trkpt>
      <trkpt lat="43.36926" lon="5.99928">
        <ele>762.3359375</ele>
        <time>2016-01-17T12:30:00Z</time>
      </trkpt>
      <trkpt lat="43.36932" lon="5.99942">
        <ele>761.07421875</ele>
        <time>2016-01-17T12:30:12Z</time>
      </trkpt>
      <trkpt lat="43.36938" lon="5.99961">
        <ele>759.09375</ele>
        <time>2016-01-17T12:30:26Z</time>
      </trkpt>
      <trkpt lat="43.36942" lon="5.99975">
        <ele>757.76171875</ele>
        <time>2016-01-17T12:30:36Z</time>
      </trkpt>
      <trkpt lat="43.3694" lon="5.99986">
        <ele>756.2890625</ele>
        <time>2016-01-17T12:30:49Z</time>
      </trkpt>
      <trkpt lat="43.36941" lon="5.99994">
        <ele>755.4375</ele>
        <time>2016-01-17T12:30:59Z</time>
      </trkpt>
      <trkpt lat="43.36941" lon="5.99999">
        <ele>754.8828125</ele>
        <time>2016-01-17T12:31:11Z</time>
      </trkpt>
      <trkpt lat="43.36939" lon="6.00002">
        <ele>754.2109375</ele>
        <time>2016-01-17T12:31:24Z</time>
      </trkpt>
      <trkpt lat="43.36939" lon="6.00006">
        <ele>753.75</ele>
        <time>2016-01-17T12:31:31Z</time>
      </trkpt>
      <trkpt lat="43.36944" lon="6.00014">
        <ele>753.5546875</ele>
        <time>2016-01-17T12:31:41Z</time>
      </trkpt>
      <trkpt lat="43.36947" lon="6.00024">
        <ele>752.96484375</ele>
        <time>2016-01-17T12:31:51Z</time>
      </trkpt>
      <trkpt lat="43.36944" lon="6.00026">
        <ele>752.58984375</ele>
        <time>2016-01-17T12:31:57Z</time>
      </trkpt>
      <trkpt lat="43.36933" lon="6.00029">
        <ele>751.1875</ele>
        <time>2016-01-17T12:32:07Z</time>
      </trkpt>
      <trkpt lat="43.36929" lon="6.00026">
        <ele>750.46875</ele>
        <time>2016-01-17T12:32:14Z</time>
      </trkpt>
      <trkpt lat="43.36926" lon="6.00034">
        <ele>750.68359375</ele>
        <time>2016-01-17T12:32:27Z</time>
      </trkpt>
      <trkpt lat="43.36925" lon="6.00037">
        <ele>750.62109375</ele>
        <time>2016-01-17T12:32:35Z</time>
      </trkpt>
      <trkpt lat="43.36924" lon="6.0004">
        <ele>750.83984375</ele>
        <time>2016-01-17T12:32:40Z</time>
      </trkpt>
      <trkpt lat="43.36922" lon="6.00048">
        <ele>751.01953125</ele>
        <time>2016-01-17T12:32:47Z</time>
      </trkpt>
      <trkpt lat="43.36909" lon="6.00048">
        <ele>748.66015625</ele>
        <time>2016-01-17T12:32:59Z</time>
      </trkpt>
      <trkpt lat="43.36906" lon="6.0005">
        <ele>747.9453125</ele>
        <time>2016-01-17T12:33:03Z</time>
      </trkpt>
      <trkpt lat="43.36904" lon="6.00051">
        <ele>747.63671875</ele>
        <time>2016-01-17T12:33:05Z</time>
      </trkpt>
      <trkpt lat="43.36901" lon="6.00051">
        <ele>746.8046875</ele>
        <time>2016-01-17T12:33:08Z</time>
      </trkpt>
      <trkpt lat="43.36898" lon="6.00055">
        <ele>746.04296875</ele>
        <time>2016-01-17T12:33:13Z</time>
      </trkpt>
      <trkpt lat="43.36898" lon="6.00057">
        <ele>746.20703125</ele>
        <time>2016-01-17T12:33:15Z</time>
      </trkpt>
      <trkpt lat="43.36894" lon="6.00065">
        <ele>745.7890625</ele>
        <time>2016-01-17T12:33:23Z</time>
      </trkpt>
      <trkpt lat="43.36891" lon="6.00066">
        <ele>744.984375</ele>
        <time>2016-01-17T12:33:26Z</time>
      </trkpt>
      <trkpt lat="43.36884" lon="6.00069">
        <ele>743.06640625</ele>
        <time>2016-01-17T12:33:33Z</time>
      </trkpt>
      <trkpt lat="43.36884" lon="6.0007">
        <ele>743.03515625</ele>
        <time>2016-01-17T12:33:46Z</time>
      </trkpt>
      <trkpt lat="43.36879" lon="6.0007">
        <ele>741.85546875</ele>
        <time>2016-01-17T12:34:05Z</time>
      </trkpt>
      <trkpt lat="43.36882" lon="6.0007">
        <ele>742.546875</ele>
        <time>2016-01-17T12:34:21Z</time>
      </trkpt>
      <trkpt lat="43.36881" lon="6.00069">
        <ele>742.1875</ele>
        <time>2016-01-17T12:34:31Z</time>
      </trkpt>
      <trkpt lat="43.36882" lon="6.00069">
        <ele>742.6640625</ele>
        <time>2016-01-17T12:34:41Z</time>
      </trkpt>
      <trkpt lat="43.36881" lon="6.00068">
        <ele>742.1953125</ele>
        <time>2016-01-17T12:34:53Z</time>
      </trkpt>
      <trkpt lat="43.36868" lon="6.00066">
        <ele>738.53515625</ele>
        <time>2016-01-17T12:35:07Z</time>
      </trkpt>
      <trkpt lat="43.36859" lon="6.0007">
        <ele>736.13671875</ele>
        <time>2016-01-17T12:35:18Z</time>
      </trkpt>
      <trkpt lat="43.36853" lon="6.00082">
        <ele>735.25390625</ele>
        <time>2016-01-17T12:35:29Z</time>
      </trkpt>
      <trkpt lat="43.3685" lon="6.00097">
        <ele>735.13671875</ele>
        <time>2016-01-17T12:35:45Z</time>
      </trkpt>
      <trkpt lat="43.36846" lon="6.00097">
        <ele>734.16796875</ele>
        <time>2016-01-17T12:35:53Z</time>
      </trkpt>
      <trkpt lat="43.36838" lon="6.00106">
        <ele>732.58203125</ele>
        <time>2016-01-17T12:36:07Z</time>
      </trkpt>
      <trkpt lat="43.36838" lon="6.00107">
        <ele>732.5859375</ele>
        <time>2016-01-17T12:36:09Z</time>
      </trkpt>
      <trkpt lat="43.36838" lon="6.00111">
        <ele>732.6875</ele>
        <time>2016-01-17T12:36:14Z</time>
      </trkpt>
      <trkpt lat="43.36835" lon="6.00114">
        <ele>731.91015625</ele>
        <time>2016-01-17T12:36:26Z</time>
      </trkpt>
      <trkpt lat="43.36828" lon="6.00113">
        <ele>730.08203125</ele>
        <time>2016-01-17T12:36:39Z</time>
      </trkpt>
      <trkpt lat="43.36825" lon="6.00106">
        <ele>729.3671875</ele>
        <time>2016-01-17T12:36:48Z</time>
      </trkpt>
      <trkpt lat="43.36824" lon="6.00102">
        <ele>728.9765625</ele>
        <time>2016-01-17T12:36:52Z</time>
      </trkpt>
      <trkpt lat="43.36815" lon="6.00102">
        <ele>726.8671875</ele>
        <time>2016-01-17T12:37:04Z</time>
      </trkpt>
      <trkpt lat="43.36808" lon="6.00113">
        <ele>724.87890625</ele>
        <time>2016-01-17T12:37:16Z</time>
      </trkpt>
      <trkpt lat="43.36799" lon="6.00119">
        <ele>722.0625</ele>
        <time>2016-01-17T12:37:24Z</time>
      </trkpt>
      <trkpt lat="43.36794" lon="6.00123">
        <ele>719.79296875</ele>
        <time>2016-01-17T12:37:29Z</time>
      </trkpt>
      <trkpt lat="43.36793" lon="6.0013">
        <ele>719.17578125</ele>
        <time>2016-01-17T12:37:34Z</time>
      </trkpt>
      <trkpt lat="43.36797" lon="6.00149">
        <ele>720.38671875</ele>
        <time>2016-01-17T12:37:49Z</time>
      </trkpt>
      <trkpt lat="43.36799" lon="6.00159">
        <ele>721.1953125</ele>
        <time>2016-01-17T12:37:57Z</time>
      </trkpt>
      <trkpt lat="43.36798" lon="6.00167">
        <ele>720.59375</ele>
        <time>2016-01-17T12:38:03Z</time>
      </trkpt>
      <trkpt lat="43.368" lon="6.00177">
        <ele>721.265625</ele>
        <time>2016-01-17T12:38:09Z</time>
      </trkpt>
      <trkpt lat="43.36802" lon="6.00182">
        <ele>722.16015625</ele>
        <time>2016-01-17T12:38:14Z</time>
      </trkpt>
      <trkpt lat="43.36798" lon="6.00192">
        <ele>719.45703125</ele>
        <time>2016-01-17T12:38:23Z</time>
      </trkpt>
      <trkpt lat="43.36793" lon="6.00209">
        <ele>713.32421875</ele>
        <time>2016-01-17T12:38:36Z</time>
      </trkpt>
      <trkpt lat="43.36797" lon="6.00226">
        <ele>711.12890625</ele>
        <time>2016-01-17T12:38:49Z</time>
      </trkpt>
      <trkpt lat="43.36799" lon="6.00238">
        <ele>709.52734375</ele>
        <time>2016-01-17T12:38:58Z</time>
      </trkpt>
      <trkpt lat="43.36806" lon="6.00244">
        <ele>710.28125</ele>
        <time>2016-01-17T12:39:05Z</time>
      </trkpt>
      <trkpt lat="43.36813" lon="6.00256">
        <ele>707.5234375</ele>
        <time>2016-01-17T12:39:19Z</time>
      </trkpt>
      <trkpt lat="43.36817" lon="6.00266">
        <ele>704.27734375</ele>
        <time>2016-01-17T12:39:30Z</time>
      </trkpt>
      <trkpt lat="43.36823" lon="6.00276">
        <ele>700.8515625</ele>
        <time>2016-01-17T12:39:43Z</time>
      </trkpt>
      <trkpt lat="43.36824" lon="6.0028">
        <ele>699.234375</ele>
        <time>2016-01-17T12:39:54Z</time>
      </trkpt>
      <trkpt lat="43.36826" lon="6.00285">
        <ele>697.484375</ele>
        <time>2016-01-17T12:40:05Z</time>
      </trkpt>
      <trkpt lat="43.36828" lon="6.0029">
        <ele>695.359375</ele>
        <time>2016-01-17T12:40:17Z</time>
      </trkpt>
      <trkpt lat="43.36826" lon="6.00298">
        <ele>691.359375</ele>
        <time>2016-01-17T12:40:30Z</time>
      </trkpt>
      <trkpt lat="43.3683" lon="6.00303">
        <ele>689.69921875</ele>
        <time>2016-01-17T12:40:41Z</time>
      </trkpt>
      <trkpt lat="43.36832" lon="6.00305">
        <ele>688.8671875</ele>
        <time>2016-01-17T12:40:51Z</time>
      </trkpt>
      <trkpt lat="43.36833" lon="6.00307">
        <ele>687.75390625</ele>
        <time>2016-01-17T12:41:04Z</time>
      </trkpt>
      <trkpt lat="43.36834" lon="6.00311">
        <ele>685.88671875</ele>
        <time>2016-01-17T12:41:15Z</time>
      </trkpt>
      <trkpt lat="43.36835" lon="6.00315">
        <ele>683.875</ele>
        <time>2016-01-17T12:41:28Z</time>
      </trkpt>
      <trkpt lat="43.36835" lon="6.00322">
        <ele>680.25390625</ele>
        <time>2016-01-17T12:41:40Z</time>
      </trkpt>
      <trkpt lat="43.36837" lon="6.00326">
        <ele>678.51171875</ele>
        <time>2016-01-17T12:41:52Z</time>
      </trkpt>
      <trkpt lat="43.3684" lon="6.00324">
        <ele>679.85546875</ele>
        <time>2016-01-17T12:42:09Z</time>
      </trkpt>
      <trkpt lat="43.36839" lon="6.00326">
        <ele>678.87109375</ele>
        <time>2016-01-17T12:42:21Z</time>
      </trkpt>
      <trkpt lat="43.36836" lon="6.00328">
        <ele>677.5859375</ele>
        <time>2016-01-17T12:42:32Z</time>
      </trkpt>
      <trkpt lat="43.36835" lon="6.00334">
        <ele>674.31640625</ele>
        <time>2016-01-17T12:42:46Z</time>
      </trkpt>
      <trkpt lat="43.36834" lon="6.00339">
        <ele>671.6640625</ele>
        <time>2016-01-17T12:42:59Z</time>
      </trkpt>
      <trkpt lat="43.36833" lon="6.00345">
        <ele>668.74609375</ele>
        <time>2016-01-17T12:43:13Z</time>
      </trkpt>
      <trkpt lat="43.36831" lon="6.00347">
        <ele>667.11328125</ele>
        <time>2016-01-17T12:43:23Z</time>
      </trkpt>
      <trkpt lat="43.3683" lon="6.00354">
        <ele>664</ele>
        <time>2016-01-17T12:43:37Z</time>
      </trkpt>
      <trkpt lat="43.36832" lon="6.00355">
        <ele>663.3671875</ele>
        <time>2016-01-17T12:43:43Z</time>
      </trkpt>
      <trkpt lat="43.36832" lon="6.00357">
        <ele>662.34375</ele>
        <time>2016-01-17T12:43:49Z</time>
      </trkpt>
      <trkpt lat="43.36831" lon="6.00359">
        <ele>661.46484375</ele>
        <time>2016-01-17T12:44:02Z</time>
      </trkpt>
      <trkpt lat="43.3683" lon="6.00368">
        <ele>658.25</ele>
        <time>2016-01-17T12:44:13Z</time>
      </trkpt>
      <trkpt lat="43.36836" lon="6.00382">
        <ele>652.890625</ele>
        <time>2016-01-17T12:44:26Z</time>
      </trkpt>
      <trkpt lat="43.36841" lon="6.00392">
        <ele>649.26171875</ele>
        <time>2016-01-17T12:44:37Z</time>
      </trkpt>
      <trkpt lat="43.36847" lon="6.00399">
        <ele>646.37890625</ele>
        <time>2016-01-17T12:44:51Z</time>
      </trkpt>
      <trkpt lat="43.36851" lon="6.0041">
        <ele>642.10546875</ele>
        <time>2016-01-17T12:45:05Z</time>
      </trkpt>
      <trkpt lat="43.36851" lon="6.00417">
        <ele>639.62109375</ele>
        <time>2016-01-17T12:45:19Z</time>
      </trkpt>
      <trkpt lat="43.36849" lon="6.00423">
        <ele>638.01953125</ele>
        <time>2016-01-17T12:45:31Z</time>
      </trkpt>
      <trkpt lat="43.36845" lon="6.00426">
        <ele>637.203125</ele>
        <time>2016-01-17T12:45:42Z</time>
      </trkpt>
      <trkpt lat="43.36847" lon="6.0043">
        <ele>635.9765625</ele>
        <time>2016-01-17T12:45:59Z</time>
      </trkpt>
      <trkpt lat="43.36848" lon="6.00436">
        <ele>634.3359375</ele>
        <time>2016-01-17T12:46:10Z</time>
      </trkpt>
      <trkpt lat="43.36853" lon="6.00443">
        <ele>631.7578125</ele>
        <time>2016-01-17T12:46:25Z</time>
      </trkpt>
      <trkpt lat="43.36853" lon="6.00451">
        <ele>629.3671875</ele>
        <time>2016-01-17T12:46:37Z</time>
      </trkpt>
      <trkpt lat="43.36852" lon="6.00457">
        <ele>627.87109375</ele>
        <time>2016-01-17T12:46:47Z</time>
      </trkpt>
      <trkpt lat="43.36852" lon="6.00459">
        <ele>627.0546875</ele>
        <time>2016-01-17T12:46:51Z</time>
      </trkpt>
      <trkpt lat="43.36852" lon="6.00465">
        <ele>625.3359375</ele>
        <time>2016-01-17T12:46:55Z</time>
      </trkpt>
      <trkpt lat="43.36856" lon="6.00483">
        <ele>621.765625</ele>
        <time>2016-01-17T12:47:09Z</time>
      </trkpt>
      <trkpt lat="43.36857" lon="6.00492">
        <ele>620.1953125</ele>
        <time>2016-01-17T12:47:19Z</time>
      </trkpt>
      <trkpt lat="43.36855" lon="6.00506">
        <ele>618.48046875</ele>
        <time>2016-01-17T12:47:27Z</time>
      </trkpt>
      <trkpt lat="43.36854" lon="6.00508">
        <ele>618.2578125</ele>
        <time>2016-01-17T12:47:28Z</time>
      </trkpt>
      <trkpt lat="43.36852" lon="6.00524">
        <ele>616.3125</ele>
        <time>2016-01-17T12:47:39Z</time>
      </trkpt>
      <trkpt lat="43.36852" lon="6.00532">
        <ele>615.953125</ele>
        <time>2016-01-17T12:47:44Z</time>
      </trkpt>
      <trkpt lat="43.36848" lon="6.0056">
        <ele>615.91796875</ele>
        <time>2016-01-17T12:47:56Z</time>
      </trkpt>
      <trkpt lat="43.36848" lon="6.00564">
        <ele>615.5234375</ele>
        <time>2016-01-17T12:47:58Z</time>
      </trkpt>
      <trkpt lat="43.36848" lon="6.00584">
        <ele>614.3671875</ele>
        <time>2016-01-17T12:48:12Z</time>
      </trkpt>
      <trkpt lat="43.36847" lon="6.00598">
        <ele>613.95703125</ele>
        <time>2016-01-17T12:48:25Z</time>
      </trkpt>
      <trkpt lat="43.36841" lon="6.00607">
        <ele>615.6328125</ele>
        <time>2016-01-17T12:48:36Z</time>
      </trkpt>
      <trkpt lat="43.36838" lon="6.00618">
        <ele>615.8125</ele>
        <time>2016-01-17T12:48:48Z</time>
      </trkpt>
      <trkpt lat="43.36835" lon="6.00636">
        <ele>615.45703125</ele>
        <time>2016-01-17T12:49:00Z</time>
      </trkpt>
      <trkpt lat="43.36837" lon="6.0064">
        <ele>614.59765625</ele>
        <time>2016-01-17T12:49:05Z</time>
      </trkpt>
      <trkpt lat="43.3684" lon="6.00654">
        <ele>612.73046875</ele>
        <time>2016-01-17T12:49:19Z</time>
      </trkpt>
      <trkpt lat="43.3684" lon="6.0067">
        <ele>611.68359375</ele>
        <time>2016-01-17T12:49:32Z</time>
      </trkpt>
      <trkpt lat="43.36845" lon="6.00686">
        <ele>609.671875</ele>
        <time>2016-01-17T12:49:47Z</time>
      </trkpt>
      <trkpt lat="43.36847" lon="6.00701">
        <ele>608.20703125</ele>
        <time>2016-01-17T12:50:00Z</time>
      </trkpt>
      <trkpt lat="43.36851" lon="6.00715">
        <ele>606.8671875</ele>
        <time>2016-01-17T12:50:13Z</time>
      </trkpt>
      <trkpt lat="43.36853" lon="6.0073">
        <ele>605.828125</ele>
        <time>2016-01-17T12:50:26Z</time>
      </trkpt>
      <trkpt lat="43.36852" lon="6.00747">
        <ele>604.87890625</ele>
        <time>2016-01-17T12:50:41Z</time>
      </trkpt>
      <trkpt lat="43.36851" lon="6.00753">
        <ele>604.21875</ele>
        <time>2016-01-17T12:50:46Z</time>
      </trkpt>
      <trkpt lat="43.36853" lon="6.00759">
        <ele>603.50390625</ele>
        <time>2016-01-17T12:50:52Z</time>
      </trkpt>
      <trkpt lat="43.36853" lon="6.00762">
        <ele>603.1328125</ele>
        <time>2016-01-17T12:50:55Z</time>
      </trkpt>
      <trkpt lat="43.36856" lon="6.00774">
        <ele>601.76953125</ele>
        <time>2016-01-17T12:51:09Z</time>
      </trkpt>
      <trkpt lat="43.36858" lon="6.00778">
        <ele>601.21875</ele>
        <time>2016-01-17T12:51:13Z</time>
      </trkpt>
      <trkpt lat="43.3686" lon="6.00784">
        <ele>599.5390625</ele>
        <time>2016-01-17T12:51:19Z</time>
      </trkpt>
      <trkpt lat="43.36865" lon="6.00789">
        <ele>597.20703125</ele>
        <time>2016-01-17T12:51:27Z</time>
      </trkpt>
      <trkpt lat="43.36866" lon="6.00791">
        <ele>596.5078125</ele>
        <time>2016-01-17T12:51:29Z</time>
      </trkpt>
      <trkpt lat="43.36874" lon="6.00792">
        <ele>592.7578125</ele>
        <time>2016-01-17T12:51:42Z</time>
      </trkpt>
      <trkpt lat="43.36875" lon="6.00792">
        <ele>592.53125</ele>
        <time>2016-01-17T12:51:43Z</time>
      </trkpt>
      <trkpt lat="43.36877" lon="6.00794">
        <ele>591.24609375</ele>
        <time>2016-01-17T12:51:47Z</time>
      </trkpt>
      <trkpt lat="43.36879" lon="6.00794">
        <ele>590.40234375</ele>
        <time>2016-01-17T12:51:51Z</time>
      </trkpt>
      <trkpt lat="43.3688" lon="6.00794">
        <ele>590.1875</ele>
        <time>2016-01-17T12:51:52Z</time>
      </trkpt>
      <trkpt lat="43.36883" lon="6.00795">
        <ele>588.8515625</ele>
        <time>2016-01-17T12:51:57Z</time>
      </trkpt>
      <trkpt lat="43.36884" lon="6.00796">
        <ele>588.19140625</ele>
        <time>2016-01-17T12:52:00Z</time>
      </trkpt>
      <trkpt lat="43.36887" lon="6.008">
        <ele>587.0390625</ele>
        <time>2016-01-17T12:52:04Z</time>
      </trkpt>
      <trkpt lat="43.36885" lon="6.00808">
        <ele>586.890625</ele>
        <time>2016-01-17T12:52:17Z</time>
      </trkpt>
      <trkpt lat="43.36883" lon="6.00809">
        <ele>587.46875</ele>
        <time>2016-01-17T12:52:34Z</time>
      </trkpt>
      <trkpt lat="43.36883" lon="6.00812">
        <ele>587.3203125</ele>
        <time>2016-01-17T12:53:14Z</time>
      </trkpt>
      <trkpt lat="43.36885" lon="6.00809">
        <ele>586.67578125</ele>
        <time>2016-01-17T12:53:29Z</time>
      </trkpt>
      <trkpt lat="43.36883" lon="6.00798">
        <ele>588.44140625</ele>
        <time>2016-01-17T12:53:41Z</time>
      </trkpt>
      <trkpt lat="43.36885" lon="6.00802">
        <ele>587.671875</ele>
        <time>2016-01-17T12:53:50Z</time>
      </trkpt>
      <trkpt lat="43.36884" lon="6.00803">
        <ele>587.6640625</ele>
        <time>2016-01-17T12:54:06Z</time>
      </trkpt>
      <trkpt lat="43.36884" lon="6.00801">
        <ele>587.93359375</ele>
        <time>2016-01-17T12:54:17Z</time>
      </trkpt>
      <trkpt lat="43.36884" lon="6.00798">
        <ele>588.31640625</ele>
        <time>2016-01-17T12:54:29Z</time>
      </trkpt>
      <trkpt lat="43.36882" lon="6.00797">
        <ele>589.15625</ele>
        <time>2016-01-17T12:54:44Z</time>
      </trkpt>
      <trkpt lat="43.36881" lon="6.00796">
        <ele>589.78515625</ele>
        <time>2016-01-17T12:54:59Z</time>
      </trkpt>
      <trkpt lat="43.3688" lon="6.00797">
        <ele>589.859375</ele>
        <time>2016-01-17T12:55:11Z</time>
      </trkpt>
      <trkpt lat="43.36881" lon="6.00796">
        <ele>589.41796875</ele>
        <time>2016-01-17T12:55:23Z</time>
      </trkpt>
      <trkpt lat="43.36883" lon="6.00797">
        <ele>588.72265625</ele>
        <time>2016-01-17T12:55:26Z</time>
      </trkpt>
      <trkpt lat="43.36885" lon="6.00798">
        <ele>587.8671875</ele>
        <time>2016-01-17T12:55:46Z</time>
      </trkpt>
      <trkpt lat="43.36884" lon="6.00796">
        <ele>588.46484375</ele>
        <time>2016-01-17T12:55:54Z</time>
      </trkpt>
      <trkpt lat="43.36884" lon="6.00794">
        <ele>588.6171875</ele>
        <time>2016-01-17T12:56:00Z</time>
      </trkpt>
      <trkpt lat="43.36884" lon="6.00795">
        <ele>588.19921875</ele>
        <time>2016-01-17T12:56:07Z</time>
      </trkpt>
      <trkpt lat="43.36884" lon="6.00798">
        <ele>588.1875</ele>
        <time>2016-01-17T12:56:19Z</time>
      </trkpt>
      <trkpt lat="43.36884" lon="6.00794">
        <ele>588.24609375</ele>
        <time>2016-01-17T12:56:44Z</time>
      </trkpt>
      <trkpt lat="43.36886" lon="6.00796">
        <ele>587.4453125</ele>
        <time>2016-01-17T12:56:57Z</time>
      </trkpt>
      <trkpt lat="43.36885" lon="6.00799">
        <ele>587.515625</ele>
        <time>2016-01-17T12:57:09Z</time>
      </trkpt>
      <trkpt lat="43.36884" lon="6.008">
        <ele>588.1953125</ele>
        <time>2016-01-17T12:57:33Z</time>
      </trkpt>
      <trkpt lat="43.36884" lon="6.008">
        <ele>588.1953125</ele>
        <time>2016-01-17T12:57:34Z</time>
      </trkpt>
      <trkpt lat="43.36884" lon="6.00801">
        <ele>588.0390625</ele>
        <time>2016-01-17T12:57:39Z</time>
      </trkpt>
      <trkpt lat="43.36888" lon="6.00807">
        <ele>585.984375</ele>
        <time>2016-01-17T12:57:54Z</time>
      </trkpt>
      <trkpt lat="43.36885" lon="6.00813">
        <ele>586.2890625</ele>
        <time>2016-01-17T12:58:01Z</time>
      </trkpt>
      <trkpt lat="43.36884" lon="6.00821">
        <ele>585.81640625</ele>
        <time>2016-01-17T12:58:07Z</time>
      </trkpt>
      <trkpt lat="43.36889" lon="6.00837">
        <ele>582.3828125</ele>
        <time>2016-01-17T12:58:19Z</time>
      </trkpt>
      <trkpt lat="43.36891" lon="6.00841">
        <ele>581.5703125</ele>
        <time>2016-01-17T12:58:23Z</time>
      </trkpt>
      <trkpt lat="43.36891" lon="6.00842">
        <ele>581.38671875</ele>
        <time>2016-01-17T12:58:24Z</time>
      </trkpt>
      <trkpt lat="43.3689" lon="6.00855">
        <ele>580.4921875</ele>
        <time>2016-01-17T12:58:32Z</time>
      </trkpt>
      <trkpt lat="43.3689" lon="6.00865">
        <ele>579.46484375</ele>
        <time>2016-01-17T12:58:40Z</time>
      </trkpt>
      <trkpt lat="43.36889" lon="6.00878">
        <ele>578.33984375</ele>
        <time>2016-01-17T12:58:51Z</time>
      </trkpt>
      <trkpt lat="43.36889" lon="6.00879">
        <ele>578.2421875</ele>
        <time>2016-01-17T12:58:52Z</time>
      </trkpt>
      <trkpt lat="43.36891" lon="6.00882">
        <ele>577.640625</ele>
        <time>2016-01-17T12:58:56Z</time>
      </trkpt>
      <trkpt lat="43.36896" lon="6.00891">
        <ele>576.3046875</ele>
        <time>2016-01-17T12:59:04Z</time>
      </trkpt>
      <trkpt lat="43.36896" lon="6.00892">
        <ele>576.13671875</ele>
        <time>2016-01-17T12:59:05Z</time>
      </trkpt>
      <trkpt lat="43.36901" lon="6.009">
        <ele>575.16015625</ele>
        <time>2016-01-17T12:59:11Z</time>
      </trkpt>
      <trkpt lat="43.36903" lon="6.00903">
        <ele>574.875</ele>
        <time>2016-01-17T12:59:13Z</time>
      </trkpt>
      <trkpt lat="43.36904" lon="6.00904">
        <ele>574.7265625</ele>
        <time>2016-01-17T12:59:14Z</time>
      </trkpt>
      <trkpt lat="43.3691" lon="6.00916">
        <ele>573.86328125</ele>
        <time>2016-01-17T12:59:23Z</time>
      </trkpt>
      <trkpt lat="43.36917" lon="6.00931">
        <ele>571.63671875</ele>
        <time>2016-01-17T12:59:35Z</time>
      </trkpt>
      <trkpt lat="43.36918" lon="6.00932">
        <ele>571.37109375</ele>
        <time>2016-01-17T12:59:36Z</time>
      </trkpt>
      <trkpt lat="43.36919" lon="6.0094">
        <ele>570.54296875</ele>
        <time>2016-01-17T12:59:41Z</time>
      </trkpt>
      <trkpt lat="43.36919" lon="6.00941">
        <ele>570.44140625</ele>
        <time>2016-01-17T12:59:42Z</time>
      </trkpt>
      <trkpt lat="43.3692" lon="6.00943">
        <ele>570.34375</ele>
        <time>2016-01-17T12:59:43Z</time>
      </trkpt>
      <trkpt lat="43.36921" lon="6.00947">
        <ele>569.8984375</ele>
        <time>2016-01-17T12:59:46Z</time>
      </trkpt>
      <trkpt lat="43.36923" lon="6.00955">
        <ele>568.7578125</ele>
        <time>2016-01-17T12:59:52Z</time>
      </trkpt>
      <trkpt lat="43.36924" lon="6.00958">
        <ele>568.62890625</ele>
        <time>2016-01-17T12:59:54Z</time>
      </trkpt>
      <trkpt lat="43.36925" lon="6.00964">
        <ele>568.14453125</ele>
        <time>2016-01-17T12:59:58Z</time>
      </trkpt>
      <trkpt lat="43.36926" lon="6.00969">
        <ele>567.76953125</ele>
        <time>2016-01-17T13:00:01Z</time>
      </trkpt>
      <trkpt lat="43.36927" lon="6.0097">
        <ele>567.70703125</ele>
        <time>2016-01-17T13:00:02Z</time>
      </trkpt>
      <trkpt lat="43.36927" lon="6.00973">
        <ele>567.64453125</ele>
        <time>2016-01-17T13:00:04Z</time>
      </trkpt>
      <trkpt lat="43.36928" lon="6.00976">
        <ele>567.48828125</ele>
        <time>2016-01-17T13:00:06Z</time>
      </trkpt>
      <trkpt lat="43.36929" lon="6.0098">
        <ele>567.4140625</ele>
        <time>2016-01-17T13:00:09Z</time>
      </trkpt>
      <trkpt lat="43.3693" lon="6.00985">
        <ele>567.4140625</ele>
        <time>2016-01-17T13:00:12Z</time>
      </trkpt>
      <trkpt lat="43.3693" lon="6.00987">
        <ele>567.41796875</ele>
        <time>2016-01-17T13:00:13Z</time>
      </trkpt>
      <trkpt lat="43.3693" lon="6.0099">
        <ele>567.5234375</ele>
        <time>2016-01-17T13:00:15Z</time>
      </trkpt>
      <trkpt lat="43.36931" lon="6.00994">
        <ele>567.6171875</ele>
        <time>2016-01-17T13:00:17Z</time>
      </trkpt>
      <trkpt lat="43.36932" lon="6.01002">
        <ele>567.73046875</ele>
        <time>2016-01-17T13:00:22Z</time>
      </trkpt>
      <trkpt lat="43.36932" lon="6.01004">
        <ele>567.76953125</ele>
        <time>2016-01-17T13:00:23Z</time>
      </trkpt>
      <trkpt lat="43.36933" lon="6.01009">
        <ele>567.78125</ele>
        <time>2016-01-17T13:00:27Z</time>
      </trkpt>
      <trkpt lat="43.36934" lon="6.01013">
        <ele>567.93359375</ele>
        <time>2016-01-17T13:00:30Z</time>
      </trkpt>
      <trkpt lat="43.36934" lon="6.01018">
        <ele>568.125</ele>
        <time>2016-01-17T13:00:33Z</time>
      </trkpt>
      <trkpt lat="43.36934" lon="6.01022">
        <ele>568.30859375</ele>
        <time>2016-01-17T13:00:35Z</time>
      </trkpt>
      <trkpt lat="43.36932" lon="6.01026">
        <ele>568.9921875</ele>
        <time>2016-01-17T13:00:39Z</time>
      </trkpt>
      <trkpt lat="43.36928" lon="6.01028">
        <ele>569.71875</ele>
        <time>2016-01-17T13:00:45Z</time>
      </trkpt>
      <trkpt lat="43.3692" lon="6.01035">
        <ele>571.43359375</ele>
        <time>2016-01-17T13:00:59Z</time>
      </trkpt>
      <trkpt lat="43.36917" lon="6.01039">
        <ele>572.32421875</ele>
        <time>2016-01-17T13:01:09Z</time>
      </trkpt>
      <trkpt lat="43.36917" lon="6.01041">
        <ele>572.5</ele>
        <time>2016-01-17T13:01:16Z</time>
      </trkpt>
      <trkpt lat="43.36915" lon="6.01041">
        <ele>572.70703125</ele>
        <time>2016-01-17T13:01:28Z</time>
      </trkpt>
      <trkpt lat="43.36914" lon="6.01041">
        <ele>572.89453125</ele>
        <time>2016-01-17T13:01:41Z</time>
      </trkpt>
      <trkpt lat="43.36914" lon="6.01038">
        <ele>572.55859375</ele>
        <time>2016-01-17T13:01:59Z</time>
      </trkpt>
      <trkpt lat="43.36914" lon="6.01039">
        <ele>572.65625</ele>
        <time>2016-01-17T13:02:12Z</time>
      </trkpt>
      <trkpt lat="43.36914" lon="6.0104">
        <ele>572.71484375</ele>
        <time>2016-01-17T13:02:15Z</time>
      </trkpt>
      <trkpt lat="43.36908" lon="6.01038">
        <ele>571.625</ele>
        <time>2016-01-17T13:02:26Z</time>
      </trkpt>
      <trkpt lat="43.36904" lon="6.01039">
        <ele>570.82421875</ele>
        <time>2016-01-17T13:02:35Z</time>
      </trkpt>
      <trkpt lat="43.36904" lon="6.0104">
        <ele>570.76953125</ele>
        <time>2016-01-17T13:02:36Z</time>
      </trkpt>
      <trkpt lat="43.36901" lon="6.01038">
        <ele>569.9921875</ele>
        <time>2016-01-17T13:02:43Z</time>
      </trkpt>
      <trkpt lat="43.369" lon="6.01035">
        <ele>569.5703125</ele>
        <time>2016-01-17T13:02:49Z</time>
      </trkpt>
      <trkpt lat="43.369" lon="6.01035">
        <ele>569.45703125</ele>
        <time>2016-01-17T13:02:50Z</time>
      </trkpt>
      <trkpt lat="43.36895" lon="6.01033">
        <ele>568.41015625</ele>
        <time>2016-01-17T13:02:59Z</time>
      </trkpt>
      <trkpt lat="43.3689" lon="6.01028">
        <ele>566.921875</ele>
        <time>2016-01-17T13:03:11Z</time>
      </trkpt>
      <trkpt lat="43.36889" lon="6.01026">
        <ele>566.390625</ele>
        <time>2016-01-17T13:03:15Z</time>
      </trkpt>
      <trkpt lat="43.36876" lon="6.01019">
        <ele>563.90234375</ele>
        <time>2016-01-17T13:03:37Z</time>
      </trkpt>
      <trkpt lat="43.36867" lon="6.01012">
        <ele>562.6875</ele>
        <time>2016-01-17T13:03:51Z</time>
      </trkpt>
      <trkpt lat="43.36863" lon="6.01008">
        <ele>562.27734375</ele>
        <time>2016-01-17T13:04:07Z</time>
      </trkpt>
      <trkpt lat="43.36861" lon="6.01008">
        <ele>561.98046875</ele>
        <time>2016-01-17T13:04:15Z</time>
      </trkpt>
      <trkpt lat="43.36857" lon="6.01005">
        <ele>561.40625</ele>
        <time>2016-01-17T13:04:20Z</time>
      </trkpt>
      <trkpt lat="43.36842" lon="6.00993">
        <ele>558.1640625</ele>
        <time>2016-01-17T13:04:41Z</time>
      </trkpt>
      <trkpt lat="43.36838" lon="6.00991">
        <ele>557.171875</ele>
        <time>2016-01-17T13:04:47Z</time>
      </trkpt>
      <trkpt lat="43.36834" lon="6.0099">
        <ele>556.1640625</ele>
        <time>2016-01-17T13:04:51Z</time>
      </trkpt>
      <trkpt lat="43.36829" lon="6.00987">
        <ele>554.8046875</ele>
        <time>2016-01-17T13:04:57Z</time>
      </trkpt>
      <trkpt lat="43.36814" lon="6.00973">
        <ele>552.34765625</ele>
        <time>2016-01-17T13:05:13Z</time>
      </trkpt>
      <trkpt lat="43.36806" lon="6.00966">
        <ele>551.46875</ele>
        <time>2016-01-17T13:05:22Z</time>
      </trkpt>
      <trkpt lat="43.36791" lon="6.00954">
        <ele>551.296875</ele>
        <time>2016-01-17T13:05:40Z</time>
      </trkpt>
      <trkpt lat="43.36777" lon="6.00941">
        <ele>551.31640625</ele>
        <time>2016-01-17T13:05:55Z</time>
      </trkpt>
      <trkpt lat="43.3677" lon="6.00932">
        <ele>552.27734375</ele>
        <time>2016-01-17T13:06:04Z</time>
      </trkpt>
      <trkpt lat="43.3677" lon="6.00931">
        <ele>552.359375</ele>
        <time>2016-01-17T13:06:05Z</time>
      </trkpt>
      <trkpt lat="43.36767" lon="6.0093">
        <ele>552.15625</ele>
        <time>2016-01-17T13:06:08Z</time>
      </trkpt>
      <trkpt lat="43.36766" lon="6.00929">
        <ele>552.1015625</ele>
        <time>2016-01-17T13:06:09Z</time>
      </trkpt>
      <trkpt lat="43.36751" lon="6.00915">
        <ele>552.28515625</ele>
        <time>2016-01-17T13:06:25Z</time>
      </trkpt>
      <trkpt lat="43.36735" lon="6.00901">
        <ele>551.6640625</ele>
        <time>2016-01-17T13:06:41Z</time>
      </trkpt>
      <trkpt lat="43.36721" lon="6.00887">
        <ele>551.19921875</ele>
        <time>2016-01-17T13:06:55Z</time>
      </trkpt>
      <trkpt lat="43.36712" lon="6.0088">
        <ele>550.37890625</ele>
        <time>2016-01-17T13:07:03Z</time>
      </trkpt>
      <trkpt lat="43.36708" lon="6.00857">
        <ele>553.12109375</ele>
        <time>2016-01-17T13:07:17Z</time>
      </trkpt>
      <trkpt lat="43.36704" lon="6.0083">
        <ele>556.703125</ele>
        <time>2016-01-17T13:07:32Z</time>
      </trkpt>
      <trkpt lat="43.36703" lon="6.00829">
        <ele>556.578125</ele>
        <time>2016-01-17T13:07:34Z</time>
      </trkpt>
      <trkpt lat="43.36698" lon="6.00827">
        <ele>555.6015625</ele>
        <time>2016-01-17T13:07:38Z</time>
      </trkpt>
      <trkpt lat="43.36685" lon="6.00833">
        <ele>552.6171875</ele>
        <time>2016-01-17T13:07:51Z</time>
      </trkpt>
      <trkpt lat="43.36667" lon="6.00844">
        <ele>549.9140625</ele>
        <time>2016-01-17T13:08:08Z</time>
      </trkpt>
      <trkpt lat="43.36654" lon="6.00855">
        <ele>547.14453125</ele>
        <time>2016-01-17T13:08:24Z</time>
      </trkpt>
      <trkpt lat="43.3665" lon="6.00859">
        <ele>546.2265625</ele>
        <time>2016-01-17T13:08:28Z</time>
      </trkpt>
      <trkpt lat="43.36636" lon="6.00869">
        <ele>543.5546875</ele>
        <time>2016-01-17T13:08:43Z</time>
      </trkpt>
      <trkpt lat="43.36622" lon="6.00879">
        <ele>542.828125</ele>
        <time>2016-01-17T13:08:56Z</time>
      </trkpt>
      <trkpt lat="43.36609" lon="6.00889">
        <ele>541.95703125</ele>
        <time>2016-01-17T13:09:09Z</time>
      </trkpt>
      <trkpt lat="43.3659" lon="6.00894">
        <ele>542.54296875</ele>
        <time>2016-01-17T13:09:25Z</time>
      </trkpt>
      <trkpt lat="43.36576" lon="6.00894">
        <ele>543.72265625</ele>
        <time>2016-01-17T13:09:36Z</time>
      </trkpt>
      <trkpt lat="43.36564" lon="6.00891">
        <ele>545.08984375</ele>
        <time>2016-01-17T13:09:46Z</time>
      </trkpt>
      <trkpt lat="43.36551" lon="6.00889">
        <ele>546.19140625</ele>
        <time>2016-01-17T13:09:58Z</time>
      </trkpt>
      <trkpt lat="43.36549" lon="6.00888">
        <ele>546.37890625</ele>
        <time>2016-01-17T13:10:00Z</time>
      </trkpt>
      <trkpt lat="43.36543" lon="6.00886">
        <ele>546.921875</ele>
        <time>2016-01-17T13:10:05Z</time>
      </trkpt>
      <trkpt lat="43.36528" lon="6.00868">
        <ele>549.7109375</ele>
        <time>2016-01-17T13:10:21Z</time>
      </trkpt>
      <trkpt lat="43.36519" lon="6.00852">
        <ele>550.69921875</ele>
        <time>2016-01-17T13:10:36Z</time>
      </trkpt>
      <trkpt lat="43.36516" lon="6.00837">
        <ele>551.1484375</ele>
        <time>2016-01-17T13:10:46Z</time>
      </trkpt>
      <trkpt lat="43.36515" lon="6.00812">
        <ele>552.2734375</ele>
        <time>2016-01-17T13:11:01Z</time>
      </trkpt>
      <trkpt lat="43.36518" lon="6.00786">
        <ele>552.98046875</ele>
        <time>2016-01-17T13:11:16Z</time>
      </trkpt>
      <trkpt lat="43.3652" lon="6.00778">
        <ele>553.15625</ele>
        <time>2016-01-17T13:11:22Z</time>
      </trkpt>
      <trkpt lat="43.36521" lon="6.00756">
        <ele>552.58203125</ele>
        <time>2016-01-17T13:11:37Z</time>
      </trkpt>
      <trkpt lat="43.36522" lon="6.00753">
        <ele>552.71875</ele>
        <time>2016-01-17T13:11:39Z</time>
      </trkpt>
      <trkpt lat="43.36526" lon="6.00734">
        <ele>552.953125</ele>
        <time>2016-01-17T13:11:52Z</time>
      </trkpt>
      <trkpt lat="43.36526" lon="6.00715">
        <ele>552.01171875</ele>
        <time>2016-01-17T13:12:05Z</time>
      </trkpt>
      <trkpt lat="43.36526" lon="6.00693">
        <ele>550.57421875</ele>
        <time>2016-01-17T13:12:18Z</time>
      </trkpt>
      <trkpt lat="43.3652" lon="6.00673">
        <ele>548.5078125</ele>
        <time>2016-01-17T13:12:32Z</time>
      </trkpt>
      <trkpt lat="43.36516" lon="6.00664">
        <ele>547.4296875</ele>
        <time>2016-01-17T13:12:38Z</time>
      </trkpt>
      <trkpt lat="43.36513" lon="6.00658">
        <ele>546.60546875</ele>
        <time>2016-01-17T13:12:45Z</time>
      </trkpt>
      <trkpt lat="43.36512" lon="6.00657">
        <ele>546.375</ele>
        <time>2016-01-17T13:12:46Z</time>
      </trkpt>
      <trkpt lat="43.36506" lon="6.00636">
        <ele>544.6015625</ele>
        <time>2016-01-17T13:12:59Z</time>
      </trkpt>
      <trkpt lat="43.36502" lon="6.0063">
        <ele>543.7578125</ele>
        <time>2016-01-17T13:13:05Z</time>
      </trkpt>
      <trkpt lat="43.36494" lon="6.00622">
        <ele>542.40234375</ele>
        <time>2016-01-17T13:13:18Z</time>
      </trkpt>
      <trkpt lat="43.36485" lon="6.00615">
        <ele>540.92578125</ele>
        <time>2016-01-17T13:13:31Z</time>
      </trkpt>
      <trkpt lat="43.36476" lon="6.00606">
        <ele>539.71484375</ele>
        <time>2016-01-17T13:13:45Z</time>
      </trkpt>
      <trkpt lat="43.36465" lon="6.00592">
        <ele>539.85546875</ele>
        <time>2016-01-17T13:13:59Z</time>
      </trkpt>
      <trkpt lat="43.36463" lon="6.00578">
        <ele>541.20703125</ele>
        <time>2016-01-17T13:14:12Z</time>
      </trkpt>
      <trkpt lat="43.36463" lon="6.00575">
        <ele>541.609375</ele>
        <time>2016-01-17T13:14:15Z</time>
      </trkpt>
      <trkpt lat="43.36463" lon="6.00573">
        <ele>541.9375</ele>
        <time>2016-01-17T13:14:19Z</time>
      </trkpt>
      <trkpt lat="43.36463" lon="6.00572">
        <ele>542.0390625</ele>
        <time>2016-01-17T13:14:20Z</time>
      </trkpt>
      <trkpt lat="43.36461" lon="6.0056">
        <ele>543.828125</ele>
        <time>2016-01-17T13:14:33Z</time>
      </trkpt>
      <trkpt lat="43.36458" lon="6.00542">
        <ele>546.29296875</ele>
        <time>2016-01-17T13:14:46Z</time>
      </trkpt>
      <trkpt lat="43.36457" lon="6.00539">
        <ele>546.703125</ele>
        <time>2016-01-17T13:14:48Z</time>
      </trkpt>
      <trkpt lat="43.36458" lon="6.00527">
        <ele>548.41015625</ele>
        <time>2016-01-17T13:14:56Z</time>
      </trkpt>
      <trkpt lat="43.36458" lon="6.00526">
        <ele>548.5703125</ele>
        <time>2016-01-17T13:14:57Z</time>
      </trkpt>
      <trkpt lat="43.36458" lon="6.00524">
        <ele>548.859375</ele>
        <time>2016-01-17T13:15:00Z</time>
      </trkpt>
      <trkpt lat="43.3645" lon="6.00502">
        <ele>550.703125</ele>
        <time>2016-01-17T13:15:17Z</time>
      </trkpt>
      <trkpt lat="43.36449" lon="6.00499">
        <ele>550.94921875</ele>
        <time>2016-01-17T13:15:19Z</time>
      </trkpt>
      <trkpt lat="43.36444" lon="6.00487">
        <ele>551.4765625</ele>
        <time>2016-01-17T13:15:29Z</time>
      </trkpt>
      <trkpt lat="43.36447" lon="6.00468">
        <ele>554.01953125</ele>
        <time>2016-01-17T13:15:42Z</time>
      </trkpt>
      <trkpt lat="43.36448" lon="6.00457">
        <ele>554.05078125</ele>
        <time>2016-01-17T13:15:55Z</time>
      </trkpt>
      <trkpt lat="43.36451" lon="6.00448">
        <ele>554.34765625</ele>
        <time>2016-01-17T13:16:13Z</time>
      </trkpt>
      <trkpt lat="43.36453" lon="6.00436">
        <ele>554.6171875</ele>
        <time>2016-01-17T13:16:22Z</time>
      </trkpt>
      <trkpt lat="43.36459" lon="6.00418">
        <ele>555.6875</ele>
        <time>2016-01-17T13:16:35Z</time>
      </trkpt>
      <trkpt lat="43.36459" lon="6.00415">
        <ele>555.78515625</ele>
        <time>2016-01-17T13:16:37Z</time>
      </trkpt>
      <trkpt lat="43.36461" lon="6.00408">
        <ele>555.52734375</ele>
        <time>2016-01-17T13:16:43Z</time>
      </trkpt>
      <trkpt lat="43.36467" lon="6.00397">
        <ele>555.32421875</ele>
        <time>2016-01-17T13:16:53Z</time>
      </trkpt>
      <trkpt lat="43.36474" lon="6.0038">
        <ele>554.73046875</ele>
        <time>2016-01-17T13:17:06Z</time>
      </trkpt>
      <trkpt lat="43.3648" lon="6.00366">
        <ele>554.66796875</ele>
        <time>2016-01-17T13:17:17Z</time>
      </trkpt>
      <trkpt lat="43.36483" lon="6.00356">
        <ele>554.2578125</ele>
        <time>2016-01-17T13:17:24Z</time>
      </trkpt>
      <trkpt lat="43.36488" lon="6.00334">
        <ele>553.1796875</ele>
        <time>2016-01-17T13:17:38Z</time>
      </trkpt>
      <trkpt lat="43.36487" lon="6.00332">
        <ele>552.90234375</ele>
        <time>2016-01-17T13:17:39Z</time>
      </trkpt>
      <trkpt lat="43.36478" lon="6.00314">
        <ele>547.9921875</ele>
        <time>2016-01-17T13:17:53Z</time>
      </trkpt>
      <trkpt lat="43.36476" lon="6.00312">
        <ele>547.2421875</ele>
        <time>2016-01-17T13:17:55Z</time>
      </trkpt>
      <trkpt lat="43.36459" lon="6.003">
        <ele>542.28515625</ele>
        <time>2016-01-17T13:18:11Z</time>
      </trkpt>
      <trkpt lat="43.36444" lon="6.00282">
        <ele>540.875</ele>
        <time>2016-01-17T13:18:28Z</time>
      </trkpt>
      <trkpt lat="43.36443" lon="6.0028">
        <ele>540.81640625</ele>
        <time>2016-01-17T13:18:30Z</time>
      </trkpt>
      <trkpt lat="43.36441" lon="6.0026">
        <ele>541.94140625</ele>
        <time>2016-01-17T13:18:43Z</time>
      </trkpt>
      <trkpt lat="43.36441" lon="6.00259">
        <ele>542.0703125</ele>
        <time>2016-01-17T13:18:44Z</time>
      </trkpt>
      <trkpt lat="43.36442" lon="6.00253">
        <ele>542.52734375</ele>
        <time>2016-01-17T13:18:48Z</time>
      </trkpt>
      <trkpt lat="43.36441" lon="6.0025">
        <ele>542.671875</ele>
        <time>2016-01-17T13:18:50Z</time>
      </trkpt>
      <trkpt lat="43.36441" lon="6.00246">
        <ele>542.859375</ele>
        <time>2016-01-17T13:18:52Z</time>
      </trkpt>
      <trkpt lat="43.36438" lon="6.00232">
        <ele>543.76953125</ele>
        <time>2016-01-17T13:19:01Z</time>
      </trkpt>
      <trkpt lat="43.36437" lon="6.00227">
        <ele>543.99609375</ele>
        <time>2016-01-17T13:19:05Z</time>
      </trkpt>
      <trkpt lat="43.36435" lon="6.00215">
        <ele>544.9140625</ele>
        <time>2016-01-17T13:19:15Z</time>
      </trkpt>
      <trkpt lat="43.36435" lon="6.00213">
        <ele>545.12109375</ele>
        <time>2016-01-17T13:19:17Z</time>
      </trkpt>
      <trkpt lat="43.36431" lon="6.00194">
        <ele>546.15625</ele>
        <time>2016-01-17T13:19:28Z</time>
      </trkpt>
      <trkpt lat="43.36416" lon="6.00178">
        <ele>545.0390625</ele>
        <time>2016-01-17T13:19:44Z</time>
      </trkpt>
      <trkpt lat="43.3641" lon="6.00174">
        <ele>544.9140625</ele>
        <time>2016-01-17T13:19:50Z</time>
      </trkpt>
      <trkpt lat="43.364" lon="6.00177">
        <ele>544.91796875</ele>
        <time>2016-01-17T13:20:02Z</time>
      </trkpt>
      <trkpt lat="43.36393" lon="6.00191">
        <ele>544.26171875</ele>
        <time>2016-01-17T13:20:14Z</time>
      </trkpt>
      <trkpt lat="43.36389" lon="6.00196">
        <ele>543.94921875</ele>
        <time>2016-01-17T13:20:22Z</time>
      </trkpt>
      <trkpt lat="43.36392" lon="6.00191">
        <ele>544.328125</ele>
        <time>2016-01-17T13:20:42Z</time>
      </trkpt>
      <trkpt lat="43.36389" lon="6.00195">
        <ele>544.0546875</ele>
        <time>2016-01-17T13:21:07Z</time>
      </trkpt>
      <trkpt lat="43.3638" lon="6.00213">
        <ele>542.78515625</ele>
        <time>2016-01-17T13:21:26Z</time>
      </trkpt>
      <trkpt lat="43.36373" lon="6.00231">
        <ele>541.54296875</ele>
        <time>2016-01-17T13:21:41Z</time>
      </trkpt>
      <trkpt lat="43.36365" lon="6.00243">
        <ele>540.9140625</ele>
        <time>2016-01-17T13:21:55Z</time>
      </trkpt>
      <trkpt lat="43.36359" lon="6.0025">
        <ele>540.41796875</ele>
        <time>2016-01-17T13:22:07Z</time>
      </trkpt>
      <trkpt lat="43.36346" lon="6.0027">
        <ele>540.88671875</ele>
        <time>2016-01-17T13:22:26Z</time>
      </trkpt>
      <trkpt lat="43.36334" lon="6.00282">
        <ele>542.11328125</ele>
        <time>2016-01-17T13:22:40Z</time>
      </trkpt>
      <trkpt lat="43.36331" lon="6.00285">
        <ele>542.59375</ele>
        <time>2016-01-17T13:22:44Z</time>
      </trkpt>
      <trkpt lat="43.36319" lon="6.00291">
        <ele>544.546875</ele>
        <time>2016-01-17T13:22:54Z</time>
      </trkpt>
      <trkpt lat="43.36308" lon="6.00296">
        <ele>546.23046875</ele>
        <time>2016-01-17T13:23:04Z</time>
      </trkpt>
      <trkpt lat="43.36302" lon="6.00294">
        <ele>547.87890625</ele>
        <time>2016-01-17T13:23:11Z</time>
      </trkpt>
      <trkpt lat="43.36292" lon="6.00293">
        <ele>549.66796875</ele>
        <time>2016-01-17T13:23:24Z</time>
      </trkpt>
      <trkpt lat="43.36288" lon="6.00294">
        <ele>550.171875</ele>
        <time>2016-01-17T13:23:39Z</time>
      </trkpt>
      <trkpt lat="43.36288" lon="6.00294">
        <ele>550.1953125</ele>
        <time>2016-01-17T13:23:40Z</time>
      </trkpt>
      <trkpt lat="43.36287" lon="6.00295">
        <ele>550.38671875</ele>
        <time>2016-01-17T13:23:45Z</time>
      </trkpt>
      <trkpt lat="43.36281" lon="6.0029">
        <ele>551.69140625</ele>
        <time>2016-01-17T13:23:59Z</time>
      </trkpt>
      <trkpt lat="43.36282" lon="6.00289">
        <ele>551.78515625</ele>
        <time>2016-01-17T13:24:17Z</time>
      </trkpt>
      <trkpt lat="43.3628" lon="6.0029">
        <ele>551.90625</ele>
        <time>2016-01-17T13:24:44Z</time>
      </trkpt>
      <trkpt lat="43.36282" lon="6.00288">
        <ele>551.85546875</ele>
        <time>2016-01-17T13:25:06Z</time>
      </trkpt>
      <trkpt lat="43.36282" lon="6.00288">
        <ele>551.75</ele>
        <time>2016-01-17T13:25:33Z</time>
      </trkpt>
      <trkpt lat="43.36283" lon="6.00285">
        <ele>551.89453125</ele>
        <time>2016-01-17T13:26:01Z</time>
      </trkpt>
      <trkpt lat="43.36283" lon="6.00284">
        <ele>552.0078125</ele>
        <time>2016-01-17T13:26:26Z</time>
      </trkpt>
      <trkpt lat="43.36285" lon="6.00282">
        <ele>551.93359375</ele>
        <time>2016-01-17T13:26:40Z</time>
      </trkpt>
      <trkpt lat="43.36287" lon="6.00273">
        <ele>552.36328125</ele>
        <time>2016-01-17T13:26:57Z</time>
      </trkpt>
      <trkpt lat="43.3629" lon="6.00261">
        <ele>553.0703125</ele>
        <time>2016-01-17T13:27:11Z</time>
      </trkpt>
      <trkpt lat="43.36292" lon="6.00258">
        <ele>553.0625</ele>
        <time>2016-01-17T13:27:15Z</time>
      </trkpt>
      <trkpt lat="43.36297" lon="6.00247">
        <ele>553.5</ele>
        <time>2016-01-17T13:27:25Z</time>
      </trkpt>
      <trkpt lat="43.36302" lon="6.00236">
        <ele>553.93359375</ele>
        <time>2016-01-17T13:27:35Z</time>
      </trkpt>
      <trkpt lat="43.36305" lon="6.00223">
        <ele>554.421875</ele>
        <time>2016-01-17T13:27:47Z</time>
      </trkpt>
      <trkpt lat="43.36306" lon="6.00218">
        <ele>554.69140625</ele>
        <time>2016-01-17T13:27:51Z</time>
      </trkpt>
      <trkpt lat="43.3631" lon="6.002">
        <ele>555.19140625</ele>
        <time>2016-01-17T13:28:05Z</time>
      </trkpt>
      <trkpt lat="43.3631" lon="6.00194">
        <ele>555.93359375</ele>
        <time>2016-01-17T13:28:09Z</time>
      </trkpt>
      <trkpt lat="43.36309" lon="6.00183">
        <ele>556.625</ele>
        <time>2016-01-17T13:28:15Z</time>
      </trkpt>
      <trkpt lat="43.3631" lon="6.00177">
        <ele>556.65625</ele>
        <time>2016-01-17T13:28:18Z</time>
      </trkpt>
      <trkpt lat="43.36311" lon="6.0016">
        <ele>557.2109375</ele>
        <time>2016-01-17T13:28:27Z</time>
      </trkpt>
      <trkpt lat="43.3631" lon="6.00139">
        <ele>558.09765625</ele>
        <time>2016-01-17T13:28:39Z</time>
      </trkpt>
      <trkpt lat="43.3631" lon="6.00138">
        <ele>558.265625</ele>
        <time>2016-01-17T13:28:40Z</time>
      </trkpt>
      <trkpt lat="43.36305" lon="6.00121">
        <ele>559.44140625</ele>
        <time>2016-01-17T13:28:52Z</time>
      </trkpt>
      <trkpt lat="43.36302" lon="6.00111">
        <ele>560</ele>
        <time>2016-01-17T13:29:01Z</time>
      </trkpt>
      <trkpt lat="43.36301" lon="6.00103">
        <ele>560.1484375</ele>
        <time>2016-01-17T13:29:05Z</time>
      </trkpt>
      <trkpt lat="43.363" lon="6.001">
        <ele>560.1953125</ele>
        <time>2016-01-17T13:29:07Z</time>
      </trkpt>
      <trkpt lat="43.36296" lon="6.00076">
        <ele>560.9453125</ele>
        <time>2016-01-17T13:29:17Z</time>
      </trkpt>
      <trkpt lat="43.36293" lon="6.00065">
        <ele>562.30859375</ele>
        <time>2016-01-17T13:29:25Z</time>
      </trkpt>
      <trkpt lat="43.36289" lon="6.00057">
        <ele>563.27734375</ele>
        <time>2016-01-17T13:29:31Z</time>
      </trkpt>
      <trkpt lat="43.36288" lon="6.00054">
        <ele>563.58203125</ele>
        <time>2016-01-17T13:29:33Z</time>
      </trkpt>
      <trkpt lat="43.36279" lon="6.00038">
        <ele>565.11328125</ele>
        <time>2016-01-17T13:29:45Z</time>
      </trkpt>
      <trkpt lat="43.36275" lon="6.00023">
        <ele>565.9921875</ele>
        <time>2016-01-17T13:29:53Z</time>
      </trkpt>
      <trkpt lat="43.36271" lon="6.00014">
        <ele>567.4140625</ele>
        <time>2016-01-17T13:29:59Z</time>
      </trkpt>
      <trkpt lat="43.36261" lon="5.99996">
        <ele>569.68359375</ele>
        <time>2016-01-17T13:30:14Z</time>
      </trkpt>
      <trkpt lat="43.36245" lon="5.99978">
        <ele>570.48046875</ele>
        <time>2016-01-17T13:30:30Z</time>
      </trkpt>
      <trkpt lat="43.36233" lon="5.99967">
        <ele>568.828125</ele>
        <time>2016-01-17T13:30:45Z</time>
      </trkpt>
      <trkpt lat="43.36221" lon="5.99957">
        <ele>568.375</ele>
        <time>2016-01-17T13:30:57Z</time>
      </trkpt>
      <trkpt lat="43.36209" lon="5.99947">
        <ele>568.06640625</ele>
        <time>2016-01-17T13:31:09Z</time>
      </trkpt>
      <trkpt lat="43.36205" lon="5.99939">
        <ele>569.11328125</ele>
        <time>2016-01-17T13:31:14Z</time>
      </trkpt>
      <trkpt lat="43.36194" lon="5.99921">
        <ele>570.51171875</ele>
        <time>2016-01-17T13:31:28Z</time>
      </trkpt>
      <trkpt lat="43.36193" lon="5.99918">
        <ele>570.90234375</ele>
        <time>2016-01-17T13:31:30Z</time>
      </trkpt>
      <trkpt lat="43.36184" lon="5.99903">
        <ele>572.3046875</ele>
        <time>2016-01-17T13:31:42Z</time>
      </trkpt>
      <trkpt lat="43.36174" lon="5.99879">
        <ele>574.21875</ele>
        <time>2016-01-17T13:31:59Z</time>
      </trkpt>
      <trkpt lat="43.36166" lon="5.99861">
        <ele>575.484375</ele>
        <time>2016-01-17T13:32:12Z</time>
      </trkpt>
      <trkpt lat="43.36163" lon="5.9985">
        <ele>576.21875</ele>
        <time>2016-01-17T13:32:19Z</time>
      </trkpt>
      <trkpt lat="43.36157" lon="5.99831">
        <ele>577.09765625</ele>
        <time>2016-01-17T13:32:32Z</time>
      </trkpt>
      <trkpt lat="43.36155" lon="5.9982">
        <ele>577.890625</ele>
        <time>2016-01-17T13:32:39Z</time>
      </trkpt>
      <trkpt lat="43.36155" lon="5.99808">
        <ele>579.53125</ele>
        <time>2016-01-17T13:32:47Z</time>
      </trkpt>
      <trkpt lat="43.36156" lon="5.998">
        <ele>580.984375</ele>
        <time>2016-01-17T13:32:52Z</time>
      </trkpt>
      <trkpt lat="43.36156" lon="5.99789">
        <ele>582.39453125</ele>
        <time>2016-01-17T13:32:58Z</time>
      </trkpt>
      <trkpt lat="43.36155" lon="5.99781">
        <ele>582.7421875</ele>
        <time>2016-01-17T13:33:03Z</time>
      </trkpt>
      <trkpt lat="43.36144" lon="5.99763">
        <ele>580.52734375</ele>
        <time>2016-01-17T13:33:17Z</time>
      </trkpt>
      <trkpt lat="43.36138" lon="5.99759">
        <ele>578.56640625</ele>
        <time>2016-01-17T13:33:23Z</time>
      </trkpt>
      <trkpt lat="43.36132" lon="5.99753">
        <ele>577.48046875</ele>
        <time>2016-01-17T13:33:30Z</time>
      </trkpt>
      <trkpt lat="43.36124" lon="5.99751">
        <ele>576.18359375</ele>
        <time>2016-01-17T13:33:40Z</time>
      </trkpt>
      <trkpt lat="43.3612" lon="5.99751">
        <ele>575.58984375</ele>
        <time>2016-01-17T13:33:44Z</time>
      </trkpt>
      <trkpt lat="43.36107" lon="5.99742">
        <ele>574.5078125</ele>
        <time>2016-01-17T13:33:58Z</time>
      </trkpt>
      <trkpt lat="43.36106" lon="5.9974">
        <ele>574.9453125</ele>
        <time>2016-01-17T13:34:00Z</time>
      </trkpt>
      <trkpt lat="43.36103" lon="5.99737">
        <ele>575.09375</ele>
        <time>2016-01-17T13:34:04Z</time>
      </trkpt>
      <trkpt lat="43.36094" lon="5.9973">
        <ele>575.1484375</ele>
        <time>2016-01-17T13:34:16Z</time>
      </trkpt>
      <trkpt lat="43.36087" lon="5.99727">
        <ele>574.93359375</ele>
        <time>2016-01-17T13:34:23Z</time>
      </trkpt>
      <trkpt lat="43.36085" lon="5.99727">
        <ele>574.53515625</ele>
        <time>2016-01-17T13:34:26Z</time>
      </trkpt>
      <trkpt lat="43.36081" lon="5.99723">
        <ele>574.75</ele>
        <time>2016-01-17T13:34:31Z</time>
      </trkpt>
      <trkpt lat="43.36077" lon="5.99719">
        <ele>575.8125</ele>
        <time>2016-01-17T13:34:35Z</time>
      </trkpt>
      <trkpt lat="43.36073" lon="5.99715">
        <ele>576.95703125</ele>
        <time>2016-01-17T13:34:40Z</time>
      </trkpt>
      <trkpt lat="43.36068" lon="5.99711">
        <ele>578.05859375</ele>
        <time>2016-01-17T13:34:44Z</time>
      </trkpt>
      <trkpt lat="43.36064" lon="5.99708">
        <ele>578.66015625</ele>
        <time>2016-01-17T13:34:49Z</time>
      </trkpt>
      <trkpt lat="43.36056" lon="5.997">
        <ele>580.4609375</ele>
        <time>2016-01-17T13:35:00Z</time>
      </trkpt>
      <trkpt lat="43.36045" lon="5.99696">
        <ele>581.29296875</ele>
        <time>2016-01-17T13:35:11Z</time>
      </trkpt>
      <trkpt lat="43.36029" lon="5.99701">
        <ele>580.25390625</ele>
        <time>2016-01-17T13:35:24Z</time>
      </trkpt>
      <trkpt lat="43.36027" lon="5.99702">
        <ele>580.0234375</ele>
        <time>2016-01-17T13:35:26Z</time>
      </trkpt>
      <trkpt lat="43.36021" lon="5.99709">
        <ele>578.9921875</ele>
        <time>2016-01-17T13:35:36Z</time>
      </trkpt>
      <trkpt lat="43.36013" lon="5.99717">
        <ele>578.1015625</ele>
        <time>2016-01-17T13:35:46Z</time>
      </trkpt>
      <trkpt lat="43.36002" lon="5.99718">
        <ele>578.26171875</ele>
        <time>2016-01-17T13:35:55Z</time>
      </trkpt>
      <trkpt lat="43.35992" lon="5.99708">
        <ele>580.04296875</ele>
        <time>2016-01-17T13:36:05Z</time>
      </trkpt>
      <trkpt lat="43.35982" lon="5.99698">
        <ele>581.734375</ele>
        <time>2016-01-17T13:36:15Z</time>
      </trkpt>
      <trkpt lat="43.35982" lon="5.99697">
        <ele>581.890625</ele>
        <time>2016-01-17T13:36:17Z</time>
      </trkpt>
      <trkpt lat="43.35976" lon="5.9969">
        <ele>582.88671875</ele>
        <time>2016-01-17T13:36:23Z</time>
      </trkpt>
      <trkpt lat="43.35973" lon="5.99688">
        <ele>583.17578125</ele>
        <time>2016-01-17T13:36:25Z</time>
      </trkpt>
      <trkpt lat="43.35967" lon="5.99683">
        <ele>583.765625</ele>
        <time>2016-01-17T13:36:31Z</time>
      </trkpt>
      <trkpt lat="43.35965" lon="5.99682">
        <ele>583.95703125</ele>
        <time>2016-01-17T13:36:32Z</time>
      </trkpt>
      <trkpt lat="43.35964" lon="5.9968">
        <ele>584.13671875</ele>
        <time>2016-01-17T13:36:33Z</time>
      </trkpt>
      <trkpt lat="43.35963" lon="5.99678">
        <ele>584.27734375</ele>
        <time>2016-01-17T13:36:34Z</time>
      </trkpt>
      <trkpt lat="43.35962" lon="5.99677">
        <ele>584.38671875</ele>
        <time>2016-01-17T13:36:35Z</time>
      </trkpt>
      <trkpt lat="43.35953" lon="5.99667">
        <ele>584.97265625</ele>
        <time>2016-01-17T13:36:45Z</time>
      </trkpt>
      <trkpt lat="43.35946" lon="5.99658">
        <ele>585.44140625</ele>
        <time>2016-01-17T13:36:52Z</time>
      </trkpt>
      <trkpt lat="43.35945" lon="5.99656">
        <ele>585.55078125</ele>
        <time>2016-01-17T13:36:53Z</time>
      </trkpt>
      <trkpt lat="43.35944" lon="5.99654">
        <ele>585.6640625</ele>
        <time>2016-01-17T13:36:54Z</time>
      </trkpt>
      <trkpt lat="43.35943" lon="5.99652">
        <ele>585.73828125</ele>
        <time>2016-01-17T13:36:55Z</time>
      </trkpt>
      <trkpt lat="43.35942" lon="5.99649">
        <ele>585.84765625</ele>
        <time>2016-01-17T13:36:59Z</time>
      </trkpt>
      <trkpt lat="43.35939" lon="5.99647">
        <ele>585.7421875</ele>
        <time>2016-01-17T13:37:04Z</time>
      </trkpt>
      <trkpt lat="43.35936" lon="5.99649">
        <ele>585.390625</ele>
        <time>2016-01-17T13:37:08Z</time>
      </trkpt>
      <trkpt lat="43.35932" lon="5.99652">
        <ele>584.8671875</ele>
        <time>2016-01-17T13:37:17Z</time>
      </trkpt>
      <trkpt lat="43.35928" lon="5.99655">
        <ele>584.33984375</ele>
        <time>2016-01-17T13:37:28Z</time>
      </trkpt>
      <trkpt lat="43.35925" lon="5.99657">
        <ele>583.98828125</ele>
        <time>2016-01-17T13:37:48Z</time>
      </trkpt>
      <trkpt lat="43.35923" lon="5.99659">
        <ele>583.76171875</ele>
        <time>2016-01-17T13:40:20Z</time>
      </trkpt>
      <trkpt lat="43.35924" lon="5.99659">
        <ele>583.796875</ele>
        <time>2016-01-17T13:40:40Z</time>
      </trkpt>
      <trkpt lat="43.35921" lon="5.99663">
        <ele>583.421875</ele>
        <time>2016-01-17T13:40:59Z</time>
      </trkpt>
      <trkpt lat="43.35917" lon="5.99662">
        <ele>583.2265625</ele>
        <time>2016-01-17T13:42:04Z</time>
      </trkpt>
      <trkpt lat="43.35914" lon="5.99657">
        <ele>583.1875</ele>
        <time>2016-01-17T13:43:24Z</time>
      </trkpt>
      <trkpt lat="43.35911" lon="5.99652">
        <ele>583.3515625</ele>
        <time>2016-01-17T13:43:41Z</time>
      </trkpt>
      <trkpt lat="43.35909" lon="5.99646">
        <ele>583.43359375</ele>
        <time>2016-01-17T13:43:53Z</time>
      </trkpt>
      <trkpt lat="43.35905" lon="5.99643">
        <ele>583.3984375</ele>
        <time>2016-01-17T13:43:58Z</time>
      </trkpt>
      <trkpt lat="43.35897" lon="5.99643">
        <ele>583.1171875</ele>
        <time>2016-01-17T13:44:09Z</time>
      </trkpt>
      <trkpt lat="43.35883" lon="5.99644">
        <ele>582.6328125</ele>
        <time>2016-01-17T13:44:24Z</time>
      </trkpt>
      <trkpt lat="43.35867" lon="5.99641">
        <ele>581.91796875</ele>
        <time>2016-01-17T13:44:35Z</time>
      </trkpt>
      <trkpt lat="43.35863" lon="5.99641">
        <ele>581.73828125</ele>
        <time>2016-01-17T13:44:40Z</time>
      </trkpt>
      <trkpt lat="43.35848" lon="5.99636">
        <ele>580.0234375</ele>
        <time>2016-01-17T13:44:54Z</time>
      </trkpt>
      <trkpt lat="43.35845" lon="5.99634">
        <ele>579.46875</ele>
        <time>2016-01-17T13:44:57Z</time>
      </trkpt>
      <trkpt lat="43.35832" lon="5.99631">
        <ele>577.60546875</ele>
        <time>2016-01-17T13:45:10Z</time>
      </trkpt>
      <trkpt lat="43.35818" lon="5.99628">
        <ele>575.5859375</ele>
        <time>2016-01-17T13:45:21Z</time>
      </trkpt>
      <trkpt lat="43.35814" lon="5.99629">
        <ele>575.2265625</ele>
        <time>2016-01-17T13:45:25Z</time>
      </trkpt>
      <trkpt lat="43.35812" lon="5.99628">
        <ele>574.94921875</ele>
        <time>2016-01-17T13:45:26Z</time>
      </trkpt>
      <trkpt lat="43.3581" lon="5.99628">
        <ele>574.7578125</ele>
        <time>2016-01-17T13:45:27Z</time>
      </trkpt>
      <trkpt lat="43.35793" lon="5.99622">
        <ele>571.64453125</ele>
        <time>2016-01-17T13:45:44Z</time>
      </trkpt>
      <trkpt lat="43.3579" lon="5.99619">
        <ele>570.71875</ele>
        <time>2016-01-17T13:45:49Z</time>
      </trkpt>
      <trkpt lat="43.3578" lon="5.9961">
        <ele>568.43359375</ele>
        <time>2016-01-17T13:46:00Z</time>
      </trkpt>
      <trkpt lat="43.35776" lon="5.99603">
        <ele>567.140625</ele>
        <time>2016-01-17T13:46:08Z</time>
      </trkpt>
      <trkpt lat="43.35775" lon="5.99602">
        <ele>566.92578125</ele>
        <time>2016-01-17T13:46:09Z</time>
      </trkpt>
      <trkpt lat="43.35771" lon="5.99599">
        <ele>566.265625</ele>
        <time>2016-01-17T13:46:13Z</time>
      </trkpt>
      <trkpt lat="43.35769" lon="5.99598">
        <ele>566.046875</ele>
        <time>2016-01-17T13:46:14Z</time>
      </trkpt>
      <trkpt lat="43.35768" lon="5.99597">
        <ele>565.7890625</ele>
        <time>2016-01-17T13:46:15Z</time>
      </trkpt>
      <trkpt lat="43.35754" lon="5.99582">
        <ele>563.59765625</ele>
        <time>2016-01-17T13:46:28Z</time>
      </trkpt>
      <trkpt lat="43.3574" lon="5.99565">
        <ele>559.6484375</ele>
        <time>2016-01-17T13:46:44Z</time>
      </trkpt>
      <trkpt lat="43.3573" lon="5.99547">
        <ele>555.26171875</ele>
        <time>2016-01-17T13:46:59Z</time>
      </trkpt>
      <trkpt lat="43.3572" lon="5.99529">
        <ele>551.1328125</ele>
        <time>2016-01-17T13:47:15Z</time>
      </trkpt>
      <trkpt lat="43.35712" lon="5.99522">
        <ele>549.41015625</ele>
        <time>2016-01-17T13:47:24Z</time>
      </trkpt>
      <trkpt lat="43.35703" lon="5.99524">
        <ele>549.53515625</ele>
        <time>2016-01-17T13:47:32Z</time>
      </trkpt>
      <trkpt lat="43.35701" lon="5.99524">
        <ele>549.4375</ele>
        <time>2016-01-17T13:47:33Z</time>
      </trkpt>
      <trkpt lat="43.357" lon="5.99524">
        <ele>549.40625</ele>
        <time>2016-01-17T13:47:34Z</time>
      </trkpt>
      <trkpt lat="43.35695" lon="5.99525">
        <ele>549.4140625</ele>
        <time>2016-01-17T13:47:37Z</time>
      </trkpt>
      <trkpt lat="43.3568" lon="5.99529">
        <ele>548.57421875</ele>
        <time>2016-01-17T13:47:49Z</time>
      </trkpt>
      <trkpt lat="43.35676" lon="5.9953">
        <ele>548.2421875</ele>
        <time>2016-01-17T13:47:52Z</time>
      </trkpt>
      <trkpt lat="43.35675" lon="5.9953">
        <ele>548.11328125</ele>
        <time>2016-01-17T13:47:53Z</time>
      </trkpt>
      <trkpt lat="43.3567" lon="5.99532">
        <ele>547.73046875</ele>
        <time>2016-01-17T13:47:58Z</time>
      </trkpt>
      <trkpt lat="43.35668" lon="5.99532">
        <ele>547.55859375</ele>
        <time>2016-01-17T13:47:59Z</time>
      </trkpt>
      <trkpt lat="43.35666" lon="5.99533">
        <ele>547.3984375</ele>
        <time>2016-01-17T13:48:00Z</time>
      </trkpt>
      <trkpt lat="43.3565" lon="5.99538">
        <ele>546.08984375</ele>
        <time>2016-01-17T13:48:13Z</time>
      </trkpt>
      <trkpt lat="43.35639" lon="5.99543">
        <ele>545.20703125</ele>
        <time>2016-01-17T13:48:21Z</time>
      </trkpt>
      <trkpt lat="43.35623" lon="5.99558">
        <ele>543.16015625</ele>
        <time>2016-01-17T13:48:37Z</time>
      </trkpt>
      <trkpt lat="43.35613" lon="5.99572">
        <ele>541.88671875</ele>
        <time>2016-01-17T13:48:47Z</time>
      </trkpt>
      <trkpt lat="43.35605" lon="5.99583">
        <ele>540.63671875</ele>
        <time>2016-01-17T13:48:57Z</time>
      </trkpt>
      <trkpt lat="43.35595" lon="5.99601">
        <ele>538.9765625</ele>
        <time>2016-01-17T13:49:11Z</time>
      </trkpt>
      <trkpt lat="43.35584" lon="5.99617">
        <ele>537.24609375</ele>
        <time>2016-01-17T13:49:24Z</time>
      </trkpt>
      <trkpt lat="43.35568" lon="5.99626">
        <ele>533.92578125</ele>
        <time>2016-01-17T13:49:39Z</time>
      </trkpt>
      <trkpt lat="43.35549" lon="5.99637">
        <ele>529.1796875</ele>
        <time>2016-01-17T13:49:55Z</time>
      </trkpt>
      <trkpt lat="43.35532" lon="5.99642">
        <ele>524.4765625</ele>
        <time>2016-01-17T13:50:09Z</time>
      </trkpt>
      <trkpt lat="43.3553" lon="5.99643">
        <ele>523.734375</ele>
        <time>2016-01-17T13:50:11Z</time>
      </trkpt>
      <trkpt lat="43.35529" lon="5.99644">
        <ele>523.390625</ele>
        <time>2016-01-17T13:50:12Z</time>
      </trkpt>
      <trkpt lat="43.35518" lon="5.99654">
        <ele>520.90625</ele>
        <time>2016-01-17T13:50:24Z</time>
      </trkpt>
      <trkpt lat="43.35512" lon="5.99661">
        <ele>519.94140625</ele>
        <time>2016-01-17T13:50:31Z</time>
      </trkpt>
      <trkpt lat="43.35512" lon="5.99662">
        <ele>519.8515625</ele>
        <time>2016-01-17T13:50:32Z</time>
      </trkpt>
      <trkpt lat="43.35501" lon="5.9967">
        <ele>518.51171875</ele>
        <time>2016-01-17T13:50:42Z</time>
      </trkpt>
      <trkpt lat="43.35499" lon="5.9967">
        <ele>518.359375</ele>
        <time>2016-01-17T13:50:43Z</time>
      </trkpt>
      <trkpt lat="43.35496" lon="5.99671">
        <ele>517.9921875</ele>
        <time>2016-01-17T13:50:46Z</time>
      </trkpt>
      <trkpt lat="43.35487" lon="5.99673">
        <ele>517.12890625</ele>
        <time>2016-01-17T13:50:58Z</time>
      </trkpt>
      <trkpt lat="43.35475" lon="5.99675">
        <ele>516.078125</ele>
        <time>2016-01-17T13:51:12Z</time>
      </trkpt>
      <trkpt lat="43.35462" lon="5.99676">
        <ele>515.16015625</ele>
        <time>2016-01-17T13:51:24Z</time>
      </trkpt>
      <trkpt lat="43.35458" lon="5.99675">
        <ele>514.76953125</ele>
        <time>2016-01-17T13:51:27Z</time>
      </trkpt>
      <trkpt lat="43.35457" lon="5.99673">
        <ele>514.58203125</ele>
        <time>2016-01-17T13:51:28Z</time>
      </trkpt>
      <trkpt lat="43.35448" lon="5.99669">
        <ele>513.3515625</ele>
        <time>2016-01-17T13:51:38Z</time>
      </trkpt>
      <trkpt lat="43.35447" lon="5.99668">
        <ele>513.17578125</ele>
        <time>2016-01-17T13:51:39Z</time>
      </trkpt>
      <trkpt lat="43.35428" lon="5.99663">
        <ele>510.84765625</ele>
        <time>2016-01-17T13:51:55Z</time>
      </trkpt>
      <trkpt lat="43.3541" lon="5.99657">
        <ele>508.83984375</ele>
        <time>2016-01-17T13:52:10Z</time>
      </trkpt>
      <trkpt lat="43.35395" lon="5.99643">
        <ele>507.41015625</ele>
        <time>2016-01-17T13:52:24Z</time>
      </trkpt>
      <trkpt lat="43.35393" lon="5.99641">
        <ele>506.95703125</ele>
        <time>2016-01-17T13:52:26Z</time>
      </trkpt>
      <trkpt lat="43.35392" lon="5.99639">
        <ele>506.68359375</ele>
        <time>2016-01-17T13:52:27Z</time>
      </trkpt>
      <trkpt lat="43.35392" lon="5.99638">
        <ele>506.42578125</ele>
        <time>2016-01-17T13:52:28Z</time>
      </trkpt>
      <trkpt lat="43.35386" lon="5.9963">
        <ele>506.484375</ele>
        <time>2016-01-17T13:52:35Z</time>
      </trkpt>
      <trkpt lat="43.35384" lon="5.99628">
        <ele>506.6953125</ele>
        <time>2016-01-17T13:52:36Z</time>
      </trkpt>
      <trkpt lat="43.35383" lon="5.99626">
        <ele>506.859375</ele>
        <time>2016-01-17T13:52:37Z</time>
      </trkpt>
      <trkpt lat="43.35382" lon="5.99625">
        <ele>506.9921875</ele>
        <time>2016-01-17T13:52:38Z</time>
      </trkpt>
      <trkpt lat="43.3538" lon="5.99623">
        <ele>507.09375</ele>
        <time>2016-01-17T13:52:39Z</time>
      </trkpt>
      <trkpt lat="43.35379" lon="5.99622">
        <ele>507.19140625</ele>
        <time>2016-01-17T13:52:41Z</time>
      </trkpt>
      <trkpt lat="43.35378" lon="5.99621">
        <ele>507.265625</ele>
        <time>2016-01-17T13:52:42Z</time>
      </trkpt>
      <trkpt lat="43.35373" lon="5.99615">
        <ele>507.515625</ele>
        <time>2016-01-17T13:52:48Z</time>
      </trkpt>
      <trkpt lat="43.35372" lon="5.99614">
        <ele>507.53125</ele>
        <time>2016-01-17T13:52:49Z</time>
      </trkpt>
      <trkpt lat="43.35371" lon="5.99612">
        <ele>507.5546875</ele>
        <time>2016-01-17T13:52:50Z</time>
      </trkpt>
      <trkpt lat="43.35358" lon="5.99592">
        <ele>507</ele>
        <time>2016-01-17T13:53:04Z</time>
      </trkpt>
      <trkpt lat="43.35341" lon="5.99581">
        <ele>506.2265625</ele>
        <time>2016-01-17T13:53:19Z</time>
      </trkpt>
      <trkpt lat="43.35324" lon="5.99574">
        <ele>505.21875</ele>
        <time>2016-01-17T13:53:35Z</time>
      </trkpt>
      <trkpt lat="43.3531" lon="5.99564">
        <ele>503.90234375</ele>
        <time>2016-01-17T13:53:49Z</time>
      </trkpt>
      <trkpt lat="43.353" lon="5.99552">
        <ele>502.48828125</ele>
        <time>2016-01-17T13:54:00Z</time>
      </trkpt>
      <trkpt lat="43.35284" lon="5.99546">
        <ele>501.91015625</ele>
        <time>2016-01-17T13:54:16Z</time>
      </trkpt>
      <trkpt lat="43.35273" lon="5.99545">
        <ele>501.5703125</ele>
        <time>2016-01-17T13:54:27Z</time>
      </trkpt>
      <trkpt lat="43.35258" lon="5.99545">
        <ele>501.30859375</ele>
        <time>2016-01-17T13:54:40Z</time>
      </trkpt>
      <trkpt lat="43.35246" lon="5.99538">
        <ele>500.19140625</ele>
        <time>2016-01-17T13:54:55Z</time>
      </trkpt>
      <trkpt lat="43.35238" lon="5.99529">
        <ele>499.19921875</ele>
        <time>2016-01-17T13:55:04Z</time>
      </trkpt>
      <trkpt lat="43.35237" lon="5.99528">
        <ele>499.0859375</ele>
        <time>2016-01-17T13:55:05Z</time>
      </trkpt>
      <trkpt lat="43.35222" lon="5.99508">
        <ele>498.87890625</ele>
        <time>2016-01-17T13:55:19Z</time>
      </trkpt>
      <trkpt lat="43.35209" lon="5.99495">
        <ele>498.22265625</ele>
        <time>2016-01-17T13:55:31Z</time>
      </trkpt>
      <trkpt lat="43.35208" lon="5.99494">
        <ele>498.14453125</ele>
        <time>2016-01-17T13:55:32Z</time>
      </trkpt>
      <trkpt lat="43.35194" lon="5.9948">
        <ele>496.28515625</ele>
        <time>2016-01-17T13:55:48Z</time>
      </trkpt>
      <trkpt lat="43.35183" lon="5.9946">
        <ele>495.8203125</ele>
        <time>2016-01-17T13:56:05Z</time>
      </trkpt>
      <trkpt lat="43.35168" lon="5.99451">
        <ele>496.19921875</ele>
        <time>2016-01-17T13:56:19Z</time>
      </trkpt>
      <trkpt lat="43.35167" lon="5.99451">
        <ele>496.19140625</ele>
        <time>2016-01-17T13:56:20Z</time>
      </trkpt>
      <trkpt lat="43.35164" lon="5.99449">
        <ele>496.16015625</ele>
        <time>2016-01-17T13:56:34Z</time>
      </trkpt>
      <trkpt lat="43.35154" lon="5.99433">
        <ele>495.27734375</ele>
        <time>2016-01-17T13:56:47Z</time>
      </trkpt>
      <trkpt lat="43.35143" lon="5.99418">
        <ele>493.34765625</ele>
        <time>2016-01-17T13:57:03Z</time>
      </trkpt>
      <trkpt lat="43.35143" lon="5.99414">
        <ele>492.98046875</ele>
        <time>2016-01-17T13:57:23Z</time>
      </trkpt>
      <trkpt lat="43.3513" lon="5.99412">
        <ele>492.21484375</ele>
        <time>2016-01-17T13:57:37Z</time>
      </trkpt>
      <trkpt lat="43.35111" lon="5.99407">
        <ele>492.4375</ele>
        <time>2016-01-17T13:57:53Z</time>
      </trkpt>
      <trkpt lat="43.35099" lon="5.99399">
        <ele>491.765625</ele>
        <time>2016-01-17T13:58:05Z</time>
      </trkpt>
      <trkpt lat="43.3508" lon="5.99384">
        <ele>489.4609375</ele>
        <time>2016-01-17T13:58:22Z</time>
      </trkpt>
      <trkpt lat="43.35064" lon="5.99373">
        <ele>490.01953125</ele>
        <time>2016-01-17T13:58:37Z</time>
      </trkpt>
      <trkpt lat="43.35055" lon="5.99364">
        <ele>489.8828125</ele>
        <time>2016-01-17T13:58:46Z</time>
      </trkpt>
      <trkpt lat="43.35044" lon="5.99345">
        <ele>489.46875</ele>
        <time>2016-01-17T13:59:00Z</time>
      </trkpt>
      <trkpt lat="43.35039" lon="5.99339">
        <ele>489.49609375</ele>
        <time>2016-01-17T13:59:05Z</time>
      </trkpt>
      <trkpt lat="43.35029" lon="5.99321">
        <ele>488.2578125</ele>
        <time>2016-01-17T13:59:17Z</time>
      </trkpt>
      <trkpt lat="43.35029" lon="5.99317">
        <ele>487.91015625</ele>
        <time>2016-01-17T13:59:18Z</time>
      </trkpt>
      <trkpt lat="43.35028" lon="5.99315">
        <ele>487.640625</ele>
        <time>2016-01-17T13:59:19Z</time>
      </trkpt>
      <trkpt lat="43.35027" lon="5.99314">
        <ele>487.53125</ele>
        <time>2016-01-17T13:59:20Z</time>
      </trkpt>
      <trkpt lat="43.35017" lon="5.99301">
        <ele>488.8515625</ele>
        <time>2016-01-17T13:59:30Z</time>
      </trkpt>
      <trkpt lat="43.35015" lon="5.99296">
        <ele>489.3359375</ele>
        <time>2016-01-17T13:59:33Z</time>
      </trkpt>
      <trkpt lat="43.35007" lon="5.99286">
        <ele>490.89453125</ele>
        <time>2016-01-17T13:59:43Z</time>
      </trkpt>
      <trkpt lat="43.35003" lon="5.99285">
        <ele>491.5078125</ele>
        <time>2016-01-17T13:59:45Z</time>
      </trkpt>
      <trkpt lat="43.35001" lon="5.99282">
        <ele>491.75</ele>
        <time>2016-01-17T13:59:50Z</time>
      </trkpt>
      <trkpt lat="43.34999" lon="5.99281">
        <ele>492.02734375</ele>
        <time>2016-01-17T13:59:51Z</time>
      </trkpt>
      <trkpt lat="43.34997" lon="5.99279">
        <ele>492.1875</ele>
        <time>2016-01-17T13:59:52Z</time>
      </trkpt>
      <trkpt lat="43.34996" lon="5.99277">
        <ele>492.1796875</ele>
        <time>2016-01-17T13:59:53Z</time>
      </trkpt>
      <trkpt lat="43.34994" lon="5.99275">
        <ele>492.140625</ele>
        <time>2016-01-17T13:59:54Z</time>
      </trkpt>
      <trkpt lat="43.34993" lon="5.99273">
        <ele>492.0625</ele>
        <time>2016-01-17T13:59:55Z</time>
      </trkpt>
      <trkpt lat="43.34991" lon="5.9927">
        <ele>491.875</ele>
        <time>2016-01-17T13:59:59Z</time>
      </trkpt>
      <trkpt lat="43.3499" lon="5.99269">
        <ele>491.71484375</ele>
        <time>2016-01-17T14:00:00Z</time>
      </trkpt>
      <trkpt lat="43.34985" lon="5.99261">
        <ele>490.76953125</ele>
        <time>2016-01-17T14:00:07Z</time>
      </trkpt>
      <trkpt lat="43.34984" lon="5.99259">
        <ele>490.5390625</ele>
        <time>2016-01-17T14:00:08Z</time>
      </trkpt>
      <trkpt lat="43.34978" lon="5.99252">
        <ele>489.24609375</ele>
        <time>2016-01-17T14:00:15Z</time>
      </trkpt>
      <trkpt lat="43.34977" lon="5.99251">
        <ele>488.95703125</ele>
        <time>2016-01-17T14:00:16Z</time>
      </trkpt>
      <trkpt lat="43.34976" lon="5.99249">
        <ele>488.65625</ele>
        <time>2016-01-17T14:00:17Z</time>
      </trkpt>
      <trkpt lat="43.34975" lon="5.99248">
        <ele>488.359375</ele>
        <time>2016-01-17T14:00:18Z</time>
      </trkpt>
      <trkpt lat="43.34973" lon="5.99245">
        <ele>487.78515625</ele>
        <time>2016-01-17T14:00:21Z</time>
      </trkpt>
      <trkpt lat="43.34972" lon="5.99244">
        <ele>487.640625</ele>
        <time>2016-01-17T14:00:22Z</time>
      </trkpt>
      <trkpt lat="43.3497" lon="5.99243">
        <ele>487.4140625</ele>
        <time>2016-01-17T14:00:23Z</time>
      </trkpt>
      <trkpt lat="43.34969" lon="5.99242">
        <ele>487.5078125</ele>
        <time>2016-01-17T14:00:24Z</time>
      </trkpt>
      <trkpt lat="43.34967" lon="5.99238">
        <ele>487.2421875</ele>
        <time>2016-01-17T14:00:28Z</time>
      </trkpt>
      <trkpt lat="43.34956" lon="5.99231">
        <ele>488.1328125</ele>
        <time>2016-01-17T14:00:36Z</time>
      </trkpt>
      <trkpt lat="43.34954" lon="5.9923">
        <ele>488.34765625</ele>
        <time>2016-01-17T14:00:37Z</time>
      </trkpt>
      <trkpt lat="43.34949" lon="5.99229">
        <ele>489.03515625</ele>
        <time>2016-01-17T14:00:42Z</time>
      </trkpt>
      <trkpt lat="43.34948" lon="5.99229">
        <ele>489.24609375</ele>
        <time>2016-01-17T14:00:43Z</time>
      </trkpt>
      <trkpt lat="43.34946" lon="5.99228">
        <ele>489.41015625</ele>
        <time>2016-01-17T14:00:44Z</time>
      </trkpt>
      <trkpt lat="43.34938" lon="5.99225">
        <ele>489.90234375</ele>
        <time>2016-01-17T14:00:51Z</time>
      </trkpt>
      <trkpt lat="43.34937" lon="5.99224">
        <ele>489.82421875</ele>
        <time>2016-01-17T14:00:52Z</time>
      </trkpt>
      <trkpt lat="43.34933" lon="5.9922">
        <ele>489.078125</ele>
        <time>2016-01-17T14:00:55Z</time>
      </trkpt>
      <trkpt lat="43.34929" lon="5.99217">
        <ele>488.76171875</ele>
        <time>2016-01-17T14:01:01Z</time>
      </trkpt>
      <trkpt lat="43.34927" lon="5.99216">
        <ele>488.7421875</ele>
        <time>2016-01-17T14:01:02Z</time>
      </trkpt>
      <trkpt lat="43.34926" lon="5.99215">
        <ele>488.69921875</ele>
        <time>2016-01-17T14:01:03Z</time>
      </trkpt>
      <trkpt lat="43.34921" lon="5.99213">
        <ele>488.4921875</ele>
        <time>2016-01-17T14:01:07Z</time>
      </trkpt>
      <trkpt lat="43.34919" lon="5.99213">
        <ele>488.60546875</ele>
        <time>2016-01-17T14:01:08Z</time>
      </trkpt>
      <trkpt lat="43.34918" lon="5.99212">
        <ele>488.45703125</ele>
        <time>2016-01-17T14:01:09Z</time>
      </trkpt>
      <trkpt lat="43.34916" lon="5.99211">
        <ele>488.3515625</ele>
        <time>2016-01-17T14:01:10Z</time>
      </trkpt>
      <trkpt lat="43.34913" lon="5.99211">
        <ele>488.359375</ele>
        <time>2016-01-17T14:01:14Z</time>
      </trkpt>
      <trkpt lat="43.34912" lon="5.9921">
        <ele>487.9765625</ele>
        <time>2016-01-17T14:01:15Z</time>
      </trkpt>
      <trkpt lat="43.34905" lon="5.9921">
        <ele>487.0625</ele>
        <time>2016-01-17T14:01:21Z</time>
      </trkpt>
      <trkpt lat="43.349" lon="5.99212">
        <ele>487.4609375</ele>
        <time>2016-01-17T14:01:28Z</time>
      </trkpt>
      <trkpt lat="43.34897" lon="5.99213">
        <ele>487.31640625</ele>
        <time>2016-01-17T14:01:30Z</time>
      </trkpt>
      <trkpt lat="43.34896" lon="5.99214">
        <ele>487.453125</ele>
        <time>2016-01-17T14:01:31Z</time>
      </trkpt>
      <trkpt lat="43.34886" lon="5.9922">
        <ele>488.73828125</ele>
        <time>2016-01-17T14:01:40Z</time>
      </trkpt>
      <trkpt lat="43.34882" lon="5.99221">
        <ele>488.7421875</ele>
        <time>2016-01-17T14:01:45Z</time>
      </trkpt>
      <trkpt lat="43.3488" lon="5.99221">
        <ele>488.44140625</ele>
        <time>2016-01-17T14:01:46Z</time>
      </trkpt>
      <trkpt lat="43.34878" lon="5.99221">
        <ele>488.390625</ele>
        <time>2016-01-17T14:01:47Z</time>
      </trkpt>
      <trkpt lat="43.34875" lon="5.99222">
        <ele>488.4609375</ele>
        <time>2016-01-17T14:01:51Z</time>
      </trkpt>
      <trkpt lat="43.34874" lon="5.99223">
        <ele>488.390625</ele>
        <time>2016-01-17T14:01:52Z</time>
      </trkpt>
      <trkpt lat="43.34872" lon="5.99223">
        <ele>488.30078125</ele>
        <time>2016-01-17T14:01:53Z</time>
      </trkpt>
      <trkpt lat="43.34871" lon="5.99223">
        <ele>488.07421875</ele>
        <time>2016-01-17T14:01:54Z</time>
      </trkpt>
      <trkpt lat="43.34868" lon="5.99224">
        <ele>488.26171875</ele>
        <time>2016-01-17T14:01:58Z</time>
      </trkpt>
      <trkpt lat="43.34867" lon="5.99225">
        <ele>488.3515625</ele>
        <time>2016-01-17T14:01:59Z</time>
      </trkpt>
      <trkpt lat="43.34865" lon="5.99225">
        <ele>488.41796875</ele>
        <time>2016-01-17T14:02:00Z</time>
      </trkpt>
      <trkpt lat="43.34864" lon="5.99226">
        <ele>488.49609375</ele>
        <time>2016-01-17T14:02:01Z</time>
      </trkpt>
      <trkpt lat="43.3486" lon="5.99228">
        <ele>488.4609375</ele>
        <time>2016-01-17T14:02:05Z</time>
      </trkpt>
      <trkpt lat="43.34858" lon="5.99228">
        <ele>488.25</ele>
        <time>2016-01-17T14:02:06Z</time>
      </trkpt>
      <trkpt lat="43.34855" lon="5.9923">
        <ele>487.98046875</ele>
        <time>2016-01-17T14:02:12Z</time>
      </trkpt>
      <trkpt lat="43.34853" lon="5.99231">
        <ele>488.02734375</ele>
        <time>2016-01-17T14:02:13Z</time>
      </trkpt>
      <trkpt lat="43.34846" lon="5.99235">
        <ele>487.35546875</ele>
        <time>2016-01-17T14:02:19Z</time>
      </trkpt>
      <trkpt lat="43.34845" lon="5.99235">
        <ele>487.1484375</ele>
        <time>2016-01-17T14:02:20Z</time>
      </trkpt>
      <trkpt lat="43.34835" lon="5.99241">
        <ele>486.39453125</ele>
        <time>2016-01-17T14:02:28Z</time>
      </trkpt>
      <trkpt lat="43.34828" lon="5.99246">
        <ele>486.02734375</ele>
        <time>2016-01-17T14:02:38Z</time>
      </trkpt>
      <trkpt lat="43.34826" lon="5.99247">
        <ele>485.77734375</ele>
        <time>2016-01-17T14:02:39Z</time>
      </trkpt>
      <trkpt lat="43.34825" lon="5.99247">
        <ele>485.359375</ele>
        <time>2016-01-17T14:02:40Z</time>
      </trkpt>
      <trkpt lat="43.34823" lon="5.99248">
        <ele>484.9453125</ele>
        <time>2016-01-17T14:02:41Z</time>
      </trkpt>
      <trkpt lat="43.34821" lon="5.99249">
        <ele>484.625</ele>
        <time>2016-01-17T14:02:44Z</time>
      </trkpt>
      <trkpt lat="43.3482" lon="5.99249">
        <ele>484.39453125</ele>
        <time>2016-01-17T14:02:45Z</time>
      </trkpt>
      <trkpt lat="43.34817" lon="5.99251">
        <ele>483.8828125</ele>
        <time>2016-01-17T14:02:47Z</time>
      </trkpt>
      <trkpt lat="43.34815" lon="5.99252">
        <ele>483.43359375</ele>
        <time>2016-01-17T14:02:48Z</time>
      </trkpt>
      <trkpt lat="43.34811" lon="5.99254">
        <ele>482.7265625</ele>
        <time>2016-01-17T14:02:53Z</time>
      </trkpt>
      <trkpt lat="43.34809" lon="5.99255">
        <ele>482.4296875</ele>
        <time>2016-01-17T14:02:54Z</time>
      </trkpt>
      <trkpt lat="43.34799" lon="5.99261">
        <ele>480.421875</ele>
        <time>2016-01-17T14:03:03Z</time>
      </trkpt>
      <trkpt lat="43.34787" lon="5.99269">
        <ele>478.16015625</ele>
        <time>2016-01-17T14:03:13Z</time>
      </trkpt>
      <trkpt lat="43.34783" lon="5.9927">
        <ele>477.2890625</ele>
        <time>2016-01-17T14:03:16Z</time>
      </trkpt>
      <trkpt lat="43.34782" lon="5.99271">
        <ele>476.8671875</ele>
        <time>2016-01-17T14:03:17Z</time>
      </trkpt>
      <trkpt lat="43.3478" lon="5.99271">
        <ele>476.5078125</ele>
        <time>2016-01-17T14:03:18Z</time>
      </trkpt>
      <trkpt lat="43.34771" lon="5.99278">
        <ele>474.94140625</ele>
        <time>2016-01-17T14:03:28Z</time>
      </trkpt>
      <trkpt lat="43.3477" lon="5.99279">
        <ele>474.6171875</ele>
        <time>2016-01-17T14:03:30Z</time>
      </trkpt>
      <trkpt lat="43.34767" lon="5.99282">
        <ele>474</ele>
        <time>2016-01-17T14:03:33Z</time>
      </trkpt>
      <trkpt lat="43.34763" lon="5.99284">
        <ele>473.40234375</ele>
        <time>2016-01-17T14:03:37Z</time>
      </trkpt>
      <trkpt lat="43.34762" lon="5.99286">
        <ele>473.19921875</ele>
        <time>2016-01-17T14:03:38Z</time>
      </trkpt>
      <trkpt lat="43.3476" lon="5.99288">
        <ele>472.8828125</ele>
        <time>2016-01-17T14:03:39Z</time>
      </trkpt>
      <trkpt lat="43.34755" lon="5.99292">
        <ele>471.7890625</ele>
        <time>2016-01-17T14:03:47Z</time>
      </trkpt>
      <trkpt lat="43.34748" lon="5.99299">
        <ele>470.640625</ele>
        <time>2016-01-17T14:03:57Z</time>
      </trkpt>
      <trkpt lat="43.34747" lon="5.99299">
        <ele>470.4609375</ele>
        <time>2016-01-17T14:03:58Z</time>
      </trkpt>
      <trkpt lat="43.3474" lon="5.99307">
        <ele>468.359375</ele>
        <time>2016-01-17T14:04:05Z</time>
      </trkpt>
      <trkpt lat="43.34739" lon="5.9931">
        <ele>467.66015625</ele>
        <time>2016-01-17T14:04:10Z</time>
      </trkpt>
      <trkpt lat="43.34738" lon="5.99312">
        <ele>467.1953125</ele>
        <time>2016-01-17T14:04:11Z</time>
      </trkpt>
      <trkpt lat="43.34734" lon="5.99322">
        <ele>464.9921875</ele>
        <time>2016-01-17T14:04:20Z</time>
      </trkpt>
      <trkpt lat="43.34733" lon="5.99325">
        <ele>464.50390625</ele>
        <time>2016-01-17T14:04:23Z</time>
      </trkpt>
      <trkpt lat="43.34732" lon="5.99327">
        <ele>464.06640625</ele>
        <time>2016-01-17T14:04:24Z</time>
      </trkpt>
      <trkpt lat="43.34731" lon="5.9933">
        <ele>463.56640625</ele>
        <time>2016-01-17T14:04:25Z</time>
      </trkpt>
      <trkpt lat="43.34728" lon="5.99335">
        <ele>462.33984375</ele>
        <time>2016-01-17T14:04:29Z</time>
      </trkpt>
      <trkpt lat="43.34728" lon="5.99337">
        <ele>462.00390625</ele>
        <time>2016-01-17T14:04:30Z</time>
      </trkpt>
      <trkpt lat="43.34727" lon="5.9934">
        <ele>461.57421875</ele>
        <time>2016-01-17T14:04:31Z</time>
      </trkpt>
      <trkpt lat="43.34726" lon="5.99343">
        <ele>461.1484375</ele>
        <time>2016-01-17T14:04:32Z</time>
      </trkpt>
      <trkpt lat="43.34727" lon="5.99347">
        <ele>461.0546875</ele>
        <time>2016-01-17T14:04:37Z</time>
      </trkpt>
      <trkpt lat="43.34731" lon="5.9935">
        <ele>461.63671875</ele>
        <time>2016-01-17T14:04:41Z</time>
      </trkpt>
      <trkpt lat="43.34733" lon="5.99352">
        <ele>461.9296875</ele>
        <time>2016-01-17T14:04:42Z</time>
      </trkpt>
      <trkpt lat="43.34734" lon="5.99354">
        <ele>462.140625</ele>
        <time>2016-01-17T14:04:43Z</time>
      </trkpt>
      <trkpt lat="43.34736" lon="5.99358">
        <ele>462.0859375</ele>
        <time>2016-01-17T14:04:48Z</time>
      </trkpt>
      <trkpt lat="43.34737" lon="5.9936">
        <ele>462.1015625</ele>
        <time>2016-01-17T14:04:49Z</time>
      </trkpt>
      <trkpt lat="43.34739" lon="5.99364">
        <ele>461.76953125</ele>
        <time>2016-01-17T14:04:53Z</time>
      </trkpt>
      <trkpt lat="43.3474" lon="5.99366">
        <ele>461.7109375</ele>
        <time>2016-01-17T14:04:54Z</time>
      </trkpt>
      <trkpt lat="43.34741" lon="5.99368">
        <ele>461.47265625</ele>
        <time>2016-01-17T14:04:55Z</time>
      </trkpt>
      <trkpt lat="43.34742" lon="5.99373">
        <ele>460.93359375</ele>
        <time>2016-01-17T14:04:59Z</time>
      </trkpt>
      <trkpt lat="43.34743" lon="5.99375">
        <ele>460.640625</ele>
        <time>2016-01-17T14:05:00Z</time>
      </trkpt>
      <trkpt lat="43.34744" lon="5.99384">
        <ele>459.359375</ele>
        <time>2016-01-17T14:05:05Z</time>
      </trkpt>
      <trkpt lat="43.34744" lon="5.99387">
        <ele>458.9140625</ele>
        <time>2016-01-17T14:05:06Z</time>
      </trkpt>
      <trkpt lat="43.34744" lon="5.9939">
        <ele>458.39453125</ele>
        <time>2016-01-17T14:05:07Z</time>
      </trkpt>
      <trkpt lat="43.34745" lon="5.99392">
        <ele>458.0078125</ele>
        <time>2016-01-17T14:05:08Z</time>
      </trkpt>
      <trkpt lat="43.34745" lon="5.99397">
        <ele>457.33203125</ele>
        <time>2016-01-17T14:05:11Z</time>
      </trkpt>
      <trkpt lat="43.34747" lon="5.99403">
        <ele>456.6328125</ele>
        <time>2016-01-17T14:05:15Z</time>
      </trkpt>
      <trkpt lat="43.3475" lon="5.99408">
        <ele>456.26171875</ele>
        <time>2016-01-17T14:05:19Z</time>
      </trkpt>
      <trkpt lat="43.34751" lon="5.9941">
        <ele>456.11328125</ele>
        <time>2016-01-17T14:05:20Z</time>
      </trkpt>
      <trkpt lat="43.34752" lon="5.99412">
        <ele>455.9375</ele>
        <time>2016-01-17T14:05:21Z</time>
      </trkpt>
      <trkpt lat="43.34755" lon="5.99417">
        <ele>456.96875</ele>
        <time>2016-01-17T14:05:26Z</time>
      </trkpt>
      <trkpt lat="43.34756" lon="5.99419">
        <ele>457.2578125</ele>
        <time>2016-01-17T14:05:27Z</time>
      </trkpt>
      <trkpt lat="43.34757" lon="5.9942">
        <ele>457.60546875</ele>
        <time>2016-01-17T14:05:28Z</time>
      </trkpt>
      <trkpt lat="43.34764" lon="5.99429">
        <ele>459.8125</ele>
        <time>2016-01-17T14:05:38Z</time>
      </trkpt>
      <trkpt lat="43.34772" lon="5.9944">
        <ele>462.453125</ele>
        <time>2016-01-17T14:05:48Z</time>
      </trkpt>
      <trkpt lat="43.34776" lon="5.99445">
        <ele>463.60546875</ele>
        <time>2016-01-17T14:05:53Z</time>
      </trkpt>
      <trkpt lat="43.34777" lon="5.99447">
        <ele>463.79296875</ele>
        <time>2016-01-17T14:05:54Z</time>
      </trkpt>
      <trkpt lat="43.34776" lon="5.99449">
        <ele>463.84375</ele>
        <time>2016-01-17T14:05:55Z</time>
      </trkpt>
      <trkpt lat="43.3477" lon="5.99453">
        <ele>463.3125</ele>
        <time>2016-01-17T14:06:01Z</time>
      </trkpt>
      <trkpt lat="43.34761" lon="5.9945">
        <ele>461.65234375</ele>
        <time>2016-01-17T14:06:08Z</time>
      </trkpt>
      <trkpt lat="43.34749" lon="5.99442">
        <ele>458.90234375</ele>
        <time>2016-01-17T14:06:19Z</time>
      </trkpt>
      <trkpt lat="43.34742" lon="5.99439">
        <ele>457.5625</ele>
        <time>2016-01-17T14:06:25Z</time>
      </trkpt>
      <trkpt lat="43.34741" lon="5.99438">
        <ele>457.30859375</ele>
        <time>2016-01-17T14:06:26Z</time>
      </trkpt>
      <trkpt lat="43.3474" lon="5.99437">
        <ele>456.97265625</ele>
        <time>2016-01-17T14:06:27Z</time>
      </trkpt>
      <trkpt lat="43.34735" lon="5.99431">
        <ele>455.39453125</ele>
        <time>2016-01-17T14:06:33Z</time>
      </trkpt>
      <trkpt lat="43.34734" lon="5.9943">
        <ele>454.96875</ele>
        <time>2016-01-17T14:06:34Z</time>
      </trkpt>
      <trkpt lat="43.34733" lon="5.99428">
        <ele>454.48046875</ele>
        <time>2016-01-17T14:06:35Z</time>
      </trkpt>
      <trkpt lat="43.34732" lon="5.99426">
        <ele>454.0390625</ele>
        <time>2016-01-17T14:06:36Z</time>
      </trkpt>
      <trkpt lat="43.34729" lon="5.99424">
        <ele>453.07421875</ele>
        <time>2016-01-17T14:06:40Z</time>
      </trkpt>
      <trkpt lat="43.34727" lon="5.99422">
        <ele>452.66015625</ele>
        <time>2016-01-17T14:06:41Z</time>
      </trkpt>
      <trkpt lat="43.34719" lon="5.99417">
        <ele>450.10546875</ele>
        <time>2016-01-17T14:06:48Z</time>
      </trkpt>
      <trkpt lat="43.34718" lon="5.99417">
        <ele>449.859375</ele>
        <time>2016-01-17T14:06:49Z</time>
      </trkpt>
      <trkpt lat="43.3471" lon="5.99416">
        <ele>448.17578125</ele>
        <time>2016-01-17T14:06:56Z</time>
      </trkpt>
      <trkpt lat="43.34703" lon="5.99418">
        <ele>447.38671875</ele>
        <time>2016-01-17T14:07:02Z</time>
      </trkpt>
      <trkpt lat="43.34701" lon="5.99419">
        <ele>447.21875</ele>
        <time>2016-01-17T14:07:03Z</time>
      </trkpt>
      <trkpt lat="43.34688" lon="5.99424">
        <ele>446.02734375</ele>
        <time>2016-01-17T14:07:14Z</time>
      </trkpt>
      <trkpt lat="43.34684" lon="5.99424">
        <ele>445.57421875</ele>
        <time>2016-01-17T14:07:20Z</time>
      </trkpt>
      <trkpt lat="43.34677" lon="5.99425">
        <ele>444.44140625</ele>
        <time>2016-01-17T14:07:29Z</time>
      </trkpt>
      <trkpt lat="43.34675" lon="5.99425">
        <ele>444.2109375</ele>
        <time>2016-01-17T14:07:30Z</time>
      </trkpt>
      <trkpt lat="43.34664" lon="5.99429">
        <ele>443.19140625</ele>
        <time>2016-01-17T14:07:40Z</time>
      </trkpt>
      <trkpt lat="43.34654" lon="5.99436">
        <ele>442.5234375</ele>
        <time>2016-01-17T14:07:51Z</time>
      </trkpt>
      <trkpt lat="43.34648" lon="5.99435">
        <ele>441.40234375</ele>
        <time>2016-01-17T14:07:56Z</time>
      </trkpt>
      <trkpt lat="43.34647" lon="5.99434">
        <ele>440.9375</ele>
        <time>2016-01-17T14:07:57Z</time>
      </trkpt>
      <trkpt lat="43.34645" lon="5.99433">
        <ele>440.35546875</ele>
        <time>2016-01-17T14:07:58Z</time>
      </trkpt>
      <trkpt lat="43.34643" lon="5.99431">
        <ele>439.80078125</ele>
        <time>2016-01-17T14:07:59Z</time>
      </trkpt>
      <trkpt lat="43.34642" lon="5.9943">
        <ele>439.36328125</ele>
        <time>2016-01-17T14:08:00Z</time>
      </trkpt>
      <trkpt lat="43.34628" lon="5.99422">
        <ele>435.01171875</ele>
        <time>2016-01-17T14:08:13Z</time>
      </trkpt>
      <trkpt lat="43.34613" lon="5.99416">
        <ele>430.40234375</ele>
        <time>2016-01-17T14:08:24Z</time>
      </trkpt>
      <trkpt lat="43.34613" lon="5.99416">
        <ele>430.1796875</ele>
        <time>2016-01-17T14:08:25Z</time>
      </trkpt>
      <trkpt lat="43.34611" lon="5.99415">
        <ele>429.82421875</ele>
        <time>2016-01-17T14:08:26Z</time>
      </trkpt>
      <trkpt lat="43.3461" lon="5.99414">
        <ele>429.44140625</ele>
        <time>2016-01-17T14:08:27Z</time>
      </trkpt>
      <trkpt lat="43.34609" lon="5.99413">
        <ele>429.06640625</ele>
        <time>2016-01-17T14:08:28Z</time>
      </trkpt>
      <trkpt lat="43.34608" lon="5.99413">
        <ele>428.80078125</ele>
        <time>2016-01-17T14:08:29Z</time>
      </trkpt>
      <trkpt lat="43.34605" lon="5.99409">
        <ele>428.44140625</ele>
        <time>2016-01-17T14:08:34Z</time>
      </trkpt>
      <trkpt lat="43.34599" lon="5.994">
        <ele>427.8125</ele>
        <time>2016-01-17T14:08:45Z</time>
      </trkpt>
      <trkpt lat="43.34593" lon="5.99386">
        <ele>427.765625</ele>
        <time>2016-01-17T14:08:57Z</time>
      </trkpt>
      <trkpt lat="43.34587" lon="5.99379">
        <ele>426.703125</ele>
        <time>2016-01-17T14:09:08Z</time>
      </trkpt>
      <trkpt lat="43.34589" lon="5.99378">
        <ele>427.43359375</ele>
        <time>2016-01-17T14:09:26Z</time>
      </trkpt>
      <trkpt lat="43.3459" lon="5.99376">
        <ele>427.9296875</ele>
        <time>2016-01-17T14:09:40Z</time>
      </trkpt>
      <trkpt lat="43.34589" lon="5.99374">
        <ele>427.73828125</ele>
        <time>2016-01-17T14:09:55Z</time>
      </trkpt>
      <trkpt lat="43.34588" lon="5.99371">
        <ele>427.953125</ele>
        <time>2016-01-17T14:10:20Z</time>
      </trkpt>
      <trkpt lat="43.3459" lon="5.99366">
        <ele>429.05859375</ele>
        <time>2016-01-17T14:10:33Z</time>
      </trkpt>
      <trkpt lat="43.3459" lon="5.99362">
        <ele>429.4453125</ele>
        <time>2016-01-17T14:10:45Z</time>
      </trkpt>
      <trkpt lat="43.34589" lon="5.99358">
        <ele>429.6171875</ele>
        <time>2016-01-17T14:10:49Z</time>
      </trkpt>
      <trkpt lat="43.34589" lon="5.99356">
        <ele>429.51171875</ele>
        <time>2016-01-17T14:10:50Z</time>
      </trkpt>
      <trkpt lat="43.34589" lon="5.99352">
        <ele>429.3046875</ele>
        <time>2016-01-17T14:10:56Z</time>
      </trkpt>
      <trkpt lat="43.34588" lon="5.9935">
        <ele>429.04296875</ele>
        <time>2016-01-17T14:10:58Z</time>
      </trkpt>
      <trkpt lat="43.34584" lon="5.99345">
        <ele>427.74609375</ele>
        <time>2016-01-17T14:11:05Z</time>
      </trkpt>
      <trkpt lat="43.34573" lon="5.9934">
        <ele>424.90625</ele>
        <time>2016-01-17T14:11:15Z</time>
      </trkpt>
      <trkpt lat="43.34573" lon="5.99339">
        <ele>424.88671875</ele>
        <time>2016-01-17T14:11:16Z</time>
      </trkpt>
      <trkpt lat="43.34572" lon="5.99337">
        <ele>424.70703125</ele>
        <time>2016-01-17T14:11:17Z</time>
      </trkpt>
      <trkpt lat="43.34569" lon="5.99336">
        <ele>424.21875</ele>
        <time>2016-01-17T14:11:21Z</time>
      </trkpt>
      <trkpt lat="43.34565" lon="5.99347">
        <ele>422.91796875</ele>
        <time>2016-01-17T14:11:34Z</time>
      </trkpt>
      <trkpt lat="43.34565" lon="5.99347">
        <ele>422.875</ele>
        <time>2016-01-17T14:11:37Z</time>
      </trkpt>
      <trkpt lat="43.34564" lon="5.99346">
        <ele>422.66015625</ele>
        <time>2016-01-17T14:11:40Z</time>
      </trkpt>
      <trkpt lat="43.3456" lon="5.99349">
        <ele>421.73046875</ele>
        <time>2016-01-17T14:11:51Z</time>
      </trkpt>
      <trkpt lat="43.34556" lon="5.99349">
        <ele>420.671875</ele>
        <time>2016-01-17T14:12:05Z</time>
      </trkpt>
      <trkpt lat="43.34554" lon="5.99355">
        <ele>419.83203125</ele>
        <time>2016-01-17T14:12:18Z</time>
      </trkpt>
      <trkpt lat="43.3455" lon="5.99359">
        <ele>418.53515625</ele>
        <time>2016-01-17T14:12:35Z</time>
      </trkpt>
      <trkpt lat="43.34549" lon="5.9936">
        <ele>418.0390625</ele>
        <time>2016-01-17T14:12:45Z</time>
      </trkpt>
      <trkpt lat="43.3454" lon="5.99367">
        <ele>415.48046875</ele>
        <time>2016-01-17T14:12:57Z</time>
      </trkpt>
      <trkpt lat="43.34528" lon="5.99368">
        <ele>412.078125</ele>
        <time>2016-01-17T14:13:10Z</time>
      </trkpt>
      <trkpt lat="43.34515" lon="5.99367">
        <ele>412.0078125</ele>
        <time>2016-01-17T14:13:21Z</time>
      </trkpt>
      <trkpt lat="43.34513" lon="5.99368">
        <ele>412.04296875</ele>
        <time>2016-01-17T14:13:22Z</time>
      </trkpt>
      <trkpt lat="43.34504" lon="5.99368">
        <ele>412.28125</ele>
        <time>2016-01-17T14:13:32Z</time>
      </trkpt>
      <trkpt lat="43.34504" lon="5.99368">
        <ele>412.2890625</ele>
        <time>2016-01-17T14:13:33Z</time>
      </trkpt>
      <trkpt lat="43.34502" lon="5.99368">
        <ele>412.33203125</ele>
        <time>2016-01-17T14:13:34Z</time>
      </trkpt>
      <trkpt lat="43.34488" lon="5.99371">
        <ele>412.48046875</ele>
        <time>2016-01-17T14:13:45Z</time>
      </trkpt>
      <trkpt lat="43.34472" lon="5.99371">
        <ele>412.87109375</ele>
        <time>2016-01-17T14:13:57Z</time>
      </trkpt>
      <trkpt lat="43.34462" lon="5.99372">
        <ele>414.109375</ele>
        <time>2016-01-17T14:14:07Z</time>
      </trkpt>
      <trkpt lat="43.34461" lon="5.99373">
        <ele>414.18359375</ele>
        <time>2016-01-17T14:14:08Z</time>
      </trkpt>
      <trkpt lat="43.3446" lon="5.99374">
        <ele>414.25390625</ele>
        <time>2016-01-17T14:14:09Z</time>
      </trkpt>
      <trkpt lat="43.34452" lon="5.99379">
        <ele>414.58203125</ele>
        <time>2016-01-17T14:14:18Z</time>
      </trkpt>
      <trkpt lat="43.3445" lon="5.9938">
        <ele>414.65234375</ele>
        <time>2016-01-17T14:14:19Z</time>
      </trkpt>
      <trkpt lat="43.34434" lon="5.99391">
        <ele>415.1640625</ele>
        <time>2016-01-17T14:14:31Z</time>
      </trkpt>
      <trkpt lat="43.34426" lon="5.99396">
        <ele>415.2265625</ele>
        <time>2016-01-17T14:14:39Z</time>
      </trkpt>
      <trkpt lat="43.34424" lon="5.99396">
        <ele>415.265625</ele>
        <time>2016-01-17T14:14:40Z</time>
      </trkpt>
      <trkpt lat="43.34422" lon="5.99397">
        <ele>415.31640625</ele>
        <time>2016-01-17T14:14:41Z</time>
      </trkpt>
      <trkpt lat="43.34412" lon="5.994">
        <ele>416.28125</ele>
        <time>2016-01-17T14:14:51Z</time>
      </trkpt>
      <trkpt lat="43.3441" lon="5.99383">
        <ele>420.38671875</ele>
        <time>2016-01-17T14:15:08Z</time>
      </trkpt>
      <trkpt lat="43.34417" lon="5.99373">
        <ele>421.12890625</ele>
        <time>2016-01-17T14:15:17Z</time>
      </trkpt>
      <trkpt lat="43.34423" lon="5.99365">
        <ele>421.81640625</ele>
        <time>2016-01-17T14:15:25Z</time>
      </trkpt>
      <trkpt lat="43.34425" lon="5.99364">
        <ele>421.828125</ele>
        <time>2016-01-17T14:15:26Z</time>
      </trkpt>
      <trkpt lat="43.34428" lon="5.99359">
        <ele>422.14453125</ele>
        <time>2016-01-17T14:15:31Z</time>
      </trkpt>
      <trkpt lat="43.3444" lon="5.9934">
        <ele>424.05078125</ele>
        <time>2016-01-17T14:15:45Z</time>
      </trkpt>
      <trkpt lat="43.34453" lon="5.99321">
        <ele>425.8671875</ele>
        <time>2016-01-17T14:15:59Z</time>
      </trkpt>
      <trkpt lat="43.34462" lon="5.99305">
        <ele>427.75</ele>
        <time>2016-01-17T14:16:11Z</time>
      </trkpt>
      <trkpt lat="43.34466" lon="5.99294">
        <ele>429.29296875</ele>
        <time>2016-01-17T14:16:21Z</time>
      </trkpt>
      <trkpt lat="43.34466" lon="5.99284">
        <ele>431.70703125</ele>
        <time>2016-01-17T14:16:29Z</time>
      </trkpt>
      <trkpt lat="43.34467" lon="5.99282">
        <ele>432.0859375</ele>
        <time>2016-01-17T14:16:30Z</time>
      </trkpt>
      <trkpt lat="43.34474" lon="5.99267">
        <ele>434.890625</ele>
        <time>2016-01-17T14:16:42Z</time>
      </trkpt>
      <trkpt lat="43.34476" lon="5.99256">
        <ele>437.2578125</ele>
        <time>2016-01-17T14:16:51Z</time>
      </trkpt>
      <trkpt lat="43.34475" lon="5.9925">
        <ele>438.6640625</ele>
        <time>2016-01-17T14:16:57Z</time>
      </trkpt>
      <trkpt lat="43.34474" lon="5.99244">
        <ele>440.078125</ele>
        <time>2016-01-17T14:17:06Z</time>
      </trkpt>
      <trkpt lat="43.34473" lon="5.99243">
        <ele>440.390625</ele>
        <time>2016-01-17T14:17:17Z</time>
      </trkpt>
      <trkpt lat="43.34473" lon="5.99243">
        <ele>440.3828125</ele>
        <time>2016-01-17T14:17:19Z</time>
      </trkpt>
      <trkpt lat="43.34472" lon="5.99243">
        <ele>440.42578125</ele>
        <time>2016-01-17T14:17:29Z</time>
      </trkpt>
      <trkpt lat="43.34472" lon="5.99242">
        <ele>440.53125</ele>
        <time>2016-01-17T14:17:32Z</time>
      </trkpt>
      <trkpt lat="43.34468" lon="5.99237">
        <ele>441.625</ele>
        <time>2016-01-17T14:17:45Z</time>
      </trkpt>
      <trkpt lat="43.34467" lon="5.99235">
        <ele>441.9296875</ele>
        <time>2016-01-17T14:17:47Z</time>
      </trkpt>
      <trkpt lat="43.34465" lon="5.99231">
        <ele>442.6328125</ele>
        <time>2016-01-17T14:17:52Z</time>
      </trkpt>
      <trkpt lat="43.34462" lon="5.99227">
        <ele>443.1953125</ele>
        <time>2016-01-17T14:17:57Z</time>
      </trkpt>
      <trkpt lat="43.34459" lon="5.9922">
        <ele>444.04296875</ele>
        <time>2016-01-17T14:18:03Z</time>
      </trkpt>
      <trkpt lat="43.34459" lon="5.99219">
        <ele>444.1953125</ele>
        <time>2016-01-17T14:18:04Z</time>
      </trkpt>
      <trkpt lat="43.34459" lon="5.99218">
        <ele>444.3203125</ele>
        <time>2016-01-17T14:18:05Z</time>
      </trkpt>
      <trkpt lat="43.34458" lon="5.99216">
        <ele>444.57421875</ele>
        <time>2016-01-17T14:18:07Z</time>
      </trkpt>
      <trkpt lat="43.34459" lon="5.99213">
        <ele>444.9140625</ele>
        <time>2016-01-17T14:18:09Z</time>
      </trkpt>
      <trkpt lat="43.34459" lon="5.99206">
        <ele>445.79296875</ele>
        <time>2016-01-17T14:18:14Z</time>
      </trkpt>
      <trkpt lat="43.34459" lon="5.99204">
        <ele>445.96484375</ele>
        <time>2016-01-17T14:18:15Z</time>
      </trkpt>
      <trkpt lat="43.34459" lon="5.99203">
        <ele>446.171875</ele>
        <time>2016-01-17T14:18:16Z</time>
      </trkpt>
      <trkpt lat="43.3446" lon="5.992">
        <ele>446.6171875</ele>
        <time>2016-01-17T14:18:18Z</time>
      </trkpt>
      <trkpt lat="43.34462" lon="5.9919">
        <ele>447.91796875</ele>
        <time>2016-01-17T14:18:25Z</time>
      </trkpt>
      <trkpt lat="43.34461" lon="5.99189">
        <ele>447.84375</ele>
        <time>2016-01-17T14:18:26Z</time>
      </trkpt>
      <trkpt lat="43.34462" lon="5.99185">
        <ele>447.70703125</ele>
        <time>2016-01-17T14:18:30Z</time>
      </trkpt>
      <trkpt lat="43.34464" lon="5.99173">
        <ele>447.51171875</ele>
        <time>2016-01-17T14:18:39Z</time>
      </trkpt>
      <trkpt lat="43.34464" lon="5.99171">
        <ele>447.51171875</ele>
        <time>2016-01-17T14:18:40Z</time>
      </trkpt>
      <trkpt lat="43.34466" lon="5.99156">
        <ele>447.3515625</ele>
        <time>2016-01-17T14:18:54Z</time>
      </trkpt>
      <trkpt lat="43.34466" lon="5.99153">
        <ele>447.21875</ele>
        <time>2016-01-17T14:18:56Z</time>
      </trkpt>
      <trkpt lat="43.34465" lon="5.99152">
        <ele>446.984375</ele>
        <time>2016-01-17T14:18:57Z</time>
      </trkpt>
      <trkpt lat="43.34465" lon="5.99148">
        <ele>446.8203125</ele>
        <time>2016-01-17T14:18:59Z</time>
      </trkpt>
      <trkpt lat="43.34466" lon="5.99136">
        <ele>446.640625</ele>
        <time>2016-01-17T14:19:07Z</time>
      </trkpt>
      <trkpt lat="43.34469" lon="5.99116">
        <ele>444.37109375</ele>
        <time>2016-01-17T14:19:20Z</time>
      </trkpt>
      <trkpt lat="43.34471" lon="5.99103">
        <ele>442.39453125</ele>
        <time>2016-01-17T14:19:29Z</time>
      </trkpt>
      <trkpt lat="43.34471" lon="5.991">
        <ele>442.05078125</ele>
        <time>2016-01-17T14:19:30Z</time>
      </trkpt>
      <trkpt lat="43.34471" lon="5.9909">
        <ele>440.203125</ele>
        <time>2016-01-17T14:19:37Z</time>
      </trkpt>
      <trkpt lat="43.34471" lon="5.99088">
        <ele>440.05859375</ele>
        <time>2016-01-17T14:19:38Z</time>
      </trkpt>
      <trkpt lat="43.34472" lon="5.99087">
        <ele>439.94921875</ele>
        <time>2016-01-17T14:19:39Z</time>
      </trkpt>
      <trkpt lat="43.34472" lon="5.99085">
        <ele>439.8046875</ele>
        <time>2016-01-17T14:19:40Z</time>
      </trkpt>
      <trkpt lat="43.34472" lon="5.99084">
        <ele>439.6171875</ele>
        <time>2016-01-17T14:19:41Z</time>
      </trkpt>
      <trkpt lat="43.3447" lon="5.99067">
        <ele>435.66796875</ele>
        <time>2016-01-17T14:19:51Z</time>
      </trkpt>
      <trkpt lat="43.3447" lon="5.99055">
        <ele>433.48046875</ele>
        <time>2016-01-17T14:19:59Z</time>
      </trkpt>
      <trkpt lat="43.34469" lon="5.99053">
        <ele>432.90234375</ele>
        <time>2016-01-17T14:20:00Z</time>
      </trkpt>
      <trkpt lat="43.34469" lon="5.99042">
        <ele>430.90625</ele>
        <time>2016-01-17T14:20:06Z</time>
      </trkpt>
      <trkpt lat="43.34469" lon="5.9904">
        <ele>430.5234375</ele>
        <time>2016-01-17T14:20:07Z</time>
      </trkpt>
      <trkpt lat="43.34469" lon="5.99038">
        <ele>430.10546875</ele>
        <time>2016-01-17T14:20:08Z</time>
      </trkpt>
      <trkpt lat="43.34469" lon="5.99019">
        <ele>426.93359375</ele>
        <time>2016-01-17T14:20:19Z</time>
      </trkpt>
      <trkpt lat="43.34469" lon="5.99017">
        <ele>426.76171875</ele>
        <time>2016-01-17T14:20:20Z</time>
      </trkpt>
      <trkpt lat="43.34471" lon="5.99008">
        <ele>425.9140625</ele>
        <time>2016-01-17T14:20:26Z</time>
      </trkpt>
      <trkpt lat="43.34476" lon="5.98993">
        <ele>425.328125</ele>
        <time>2016-01-17T14:20:37Z</time>
      </trkpt>
      <trkpt lat="43.34484" lon="5.9898">
        <ele>425.6875</ele>
        <time>2016-01-17T14:20:45Z</time>
      </trkpt>
      <trkpt lat="43.34486" lon="5.98976">
        <ele>425.7109375</ele>
        <time>2016-01-17T14:20:49Z</time>
      </trkpt>
      <trkpt lat="43.34492" lon="5.98964">
        <ele>425.125</ele>
        <time>2016-01-17T14:20:56Z</time>
      </trkpt>
      <trkpt lat="43.34501" lon="5.98946">
        <ele>424.28515625</ele>
        <time>2016-01-17T14:21:04Z</time>
      </trkpt>
      <trkpt lat="43.34505" lon="5.98933">
        <ele>422.63671875</ele>
        <time>2016-01-17T14:21:14Z</time>
      </trkpt>
      <trkpt lat="43.34505" lon="5.98932">
        <ele>422.3828125</ele>
        <time>2016-01-17T14:21:15Z</time>
      </trkpt>
      <trkpt lat="43.34506" lon="5.9892">
        <ele>420.484375</ele>
        <time>2016-01-17T14:21:23Z</time>
      </trkpt>
      <trkpt lat="43.34506" lon="5.98918">
        <ele>420.10546875</ele>
        <time>2016-01-17T14:21:24Z</time>
      </trkpt>
      <trkpt lat="43.34507" lon="5.98916">
        <ele>419.84765625</ele>
        <time>2016-01-17T14:21:25Z</time>
      </trkpt>
      <trkpt lat="43.34508" lon="5.98914">
        <ele>419.609375</ele>
        <time>2016-01-17T14:21:26Z</time>
      </trkpt>
      <trkpt lat="43.34508" lon="5.98912">
        <ele>419.4765625</ele>
        <time>2016-01-17T14:21:27Z</time>
      </trkpt>
      <trkpt lat="43.3451" lon="5.98909">
        <ele>419.453125</ele>
        <time>2016-01-17T14:21:29Z</time>
      </trkpt>
      <trkpt lat="43.34509" lon="5.98906">
        <ele>419.08984375</ele>
        <time>2016-01-17T14:21:31Z</time>
      </trkpt>
      <trkpt lat="43.34509" lon="5.98905">
        <ele>418.94921875</ele>
        <time>2016-01-17T14:21:32Z</time>
      </trkpt>
      <trkpt lat="43.34509" lon="5.98904">
        <ele>418.72265625</ele>
        <time>2016-01-17T14:21:33Z</time>
      </trkpt>
      <trkpt lat="43.34511" lon="5.98891">
        <ele>417.8984375</ele>
        <time>2016-01-17T14:21:40Z</time>
      </trkpt>
      <trkpt lat="43.34511" lon="5.98888">
        <ele>417.58203125</ele>
        <time>2016-01-17T14:21:41Z</time>
      </trkpt>
      <trkpt lat="43.34511" lon="5.98871">
        <ele>415.97265625</ele>
        <time>2016-01-17T14:21:49Z</time>
      </trkpt>
      <trkpt lat="43.3451" lon="5.98869">
        <ele>415.6328125</ele>
        <time>2016-01-17T14:21:50Z</time>
      </trkpt>
      <trkpt lat="43.3451" lon="5.98867">
        <ele>415.32421875</ele>
        <time>2016-01-17T14:21:51Z</time>
      </trkpt>
      <trkpt lat="43.3451" lon="5.98865">
        <ele>415.109375</ele>
        <time>2016-01-17T14:21:52Z</time>
      </trkpt>
      <trkpt lat="43.34509" lon="5.98863">
        <ele>414.90625</ele>
        <time>2016-01-17T14:21:53Z</time>
      </trkpt>
      <trkpt lat="43.34509" lon="5.98861">
        <ele>414.65234375</ele>
        <time>2016-01-17T14:21:54Z</time>
      </trkpt>
      <trkpt lat="43.34505" lon="5.98843">
        <ele>414.22265625</ele>
        <time>2016-01-17T14:22:05Z</time>
      </trkpt>
      <trkpt lat="43.34496" lon="5.9882">
        <ele>413.5703125</ele>
        <time>2016-01-17T14:22:20Z</time>
      </trkpt>
      <trkpt lat="43.34492" lon="5.9881">
        <ele>413.2421875</ele>
        <time>2016-01-17T14:22:27Z</time>
      </trkpt>
      <trkpt lat="43.34491" lon="5.98808">
        <ele>413.10546875</ele>
        <time>2016-01-17T14:22:28Z</time>
      </trkpt>
      <trkpt lat="43.3449" lon="5.98807">
        <ele>412.96875</ele>
        <time>2016-01-17T14:22:29Z</time>
      </trkpt>
      <trkpt lat="43.34489" lon="5.98805">
        <ele>412.85546875</ele>
        <time>2016-01-17T14:22:30Z</time>
      </trkpt>
      <trkpt lat="43.34487" lon="5.98804">
        <ele>412.7265625</ele>
        <time>2016-01-17T14:22:31Z</time>
      </trkpt>
      <trkpt lat="43.34486" lon="5.98802">
        <ele>412.55078125</ele>
        <time>2016-01-17T14:22:32Z</time>
      </trkpt>
      <trkpt lat="43.34472" lon="5.98779">
        <ele>412.3984375</ele>
        <time>2016-01-17T14:22:50Z</time>
      </trkpt>
      <trkpt lat="43.34473" lon="5.98781">
        <ele>412.3125</ele>
        <time>2016-01-17T14:23:05Z</time>
      </trkpt>
      <trkpt lat="43.34473" lon="5.98782">
        <ele>412.40625</ele>
        <time>2016-01-17T14:23:17Z</time>
      </trkpt>
      <trkpt lat="43.34476" lon="5.98782">
        <ele>412.72265625</ele>
        <time>2016-01-17T14:23:25Z</time>
      </trkpt>
      <trkpt lat="43.34478" lon="5.98783">
        <ele>413.046875</ele>
        <time>2016-01-17T14:23:27Z</time>
      </trkpt>
      <trkpt lat="43.34479" lon="5.98783">
        <ele>413.3125</ele>
        <time>2016-01-17T14:23:28Z</time>
      </trkpt>
      <trkpt lat="43.34493" lon="5.98788">
        <ele>415.05078125</ele>
        <time>2016-01-17T14:23:39Z</time>
      </trkpt>
      <trkpt lat="43.34494" lon="5.9879">
        <ele>415.08984375</ele>
        <time>2016-01-17T14:23:43Z</time>
      </trkpt>
      <trkpt lat="43.34501" lon="5.98784">
        <ele>416.91015625</ele>
        <time>2016-01-17T14:23:55Z</time>
      </trkpt>
      <trkpt lat="43.34505" lon="5.98783">
        <ele>417.76953125</ele>
        <time>2016-01-17T14:24:03Z</time>
      </trkpt>
      <trkpt lat="43.34508" lon="5.98783">
        <ele>418.38671875</ele>
        <time>2016-01-17T14:24:06Z</time>
      </trkpt>
      <trkpt lat="43.3451" lon="5.98782">
        <ele>418.69921875</ele>
        <time>2016-01-17T14:24:07Z</time>
      </trkpt>
      <trkpt lat="43.34522" lon="5.98773">
        <ele>421.984375</ele>
        <time>2016-01-17T14:24:19Z</time>
      </trkpt>
      <trkpt lat="43.34532" lon="5.9877">
        <ele>424.4140625</ele>
        <time>2016-01-17T14:24:28Z</time>
      </trkpt>
      <trkpt lat="43.34538" lon="5.98762">
        <ele>426.7734375</ele>
        <time>2016-01-17T14:24:37Z</time>
      </trkpt>
      <trkpt lat="43.34542" lon="5.98757">
        <ele>428.50390625</ele>
        <time>2016-01-17T14:24:47Z</time>
      </trkpt>
      <trkpt lat="43.34545" lon="5.98757">
        <ele>429.28515625</ele>
        <time>2016-01-17T14:24:51Z</time>
      </trkpt>
      <trkpt lat="43.34552" lon="5.98755">
        <ele>431.109375</ele>
        <time>2016-01-17T14:24:59Z</time>
      </trkpt>
      <trkpt lat="43.34559" lon="5.98755">
        <ele>432.7578125</ele>
        <time>2016-01-17T14:25:08Z</time>
      </trkpt>
      <trkpt lat="43.34561" lon="5.98756">
        <ele>433.1328125</ele>
        <time>2016-01-17T14:25:11Z</time>
      </trkpt>
      <trkpt lat="43.34564" lon="5.98756">
        <ele>433.72265625</ele>
        <time>2016-01-17T14:25:14Z</time>
      </trkpt>
      <trkpt lat="43.34568" lon="5.98757">
        <ele>434.484375</ele>
        <time>2016-01-17T14:25:19Z</time>
      </trkpt>
      <trkpt lat="43.34569" lon="5.98757">
        <ele>434.828125</ele>
        <time>2016-01-17T14:25:22Z</time>
      </trkpt>
      <trkpt lat="43.3457" lon="5.98755">
        <ele>435.328125</ele>
        <time>2016-01-17T14:25:28Z</time>
      </trkpt>
      <trkpt lat="43.3457" lon="5.98751">
        <ele>435.71484375</ele>
        <time>2016-01-17T14:25:34Z</time>
      </trkpt>
      <trkpt lat="43.3457" lon="5.9875">
        <ele>435.8671875</ele>
        <time>2016-01-17T14:26:18Z</time>
      </trkpt>
      <trkpt lat="43.34574" lon="5.98746">
        <ele>437.3828125</ele>
        <time>2016-01-17T14:26:37Z</time>
      </trkpt>
      <trkpt lat="43.34575" lon="5.98746">
        <ele>437.734375</ele>
        <time>2016-01-17T14:26:41Z</time>
      </trkpt>
      <trkpt lat="43.34576" lon="5.98746">
        <ele>437.92578125</ele>
        <time>2016-01-17T14:26:43Z</time>
      </trkpt>
      <trkpt lat="43.34579" lon="5.98741">
        <ele>439.51171875</ele>
        <time>2016-01-17T14:26:48Z</time>
      </trkpt>
      <trkpt lat="43.34579" lon="5.98738">
        <ele>440.21484375</ele>
        <time>2016-01-17T14:26:50Z</time>
      </trkpt>
      <trkpt lat="43.34579" lon="5.98732">
        <ele>441.625</ele>
        <time>2016-01-17T14:26:58Z</time>
      </trkpt>
      <trkpt lat="43.34579" lon="5.9873">
        <ele>441.94921875</ele>
        <time>2016-01-17T14:27:01Z</time>
      </trkpt>
      <trkpt lat="43.34579" lon="5.98726">
        <ele>442.76171875</ele>
        <time>2016-01-17T14:27:07Z</time>
      </trkpt>
      <trkpt lat="43.34579" lon="5.98724">
        <ele>443.24609375</ele>
        <time>2016-01-17T14:27:08Z</time>
      </trkpt>
      <trkpt lat="43.3458" lon="5.98723">
        <ele>443.72265625</ele>
        <time>2016-01-17T14:27:09Z</time>
      </trkpt>
      <trkpt lat="43.34581" lon="5.9872">
        <ele>444.59765625</ele>
        <time>2016-01-17T14:27:13Z</time>
      </trkpt>
      <trkpt lat="43.34581" lon="5.98719">
        <ele>444.69140625</ele>
        <time>2016-01-17T14:27:14Z</time>
      </trkpt>
      <trkpt lat="43.34582" lon="5.98719">
        <ele>445.1875</ele>
        <time>2016-01-17T14:27:25Z</time>
      </trkpt>
      <trkpt lat="43.34584" lon="5.98713">
        <ele>447.1484375</ele>
        <time>2016-01-17T14:27:36Z</time>
      </trkpt>
      <trkpt lat="43.34585" lon="5.98707">
        <ele>448.96484375</ele>
        <time>2016-01-17T14:27:46Z</time>
      </trkpt>
      <trkpt lat="43.34587" lon="5.98705">
        <ele>449.984375</ele>
        <time>2016-01-17T14:27:53Z</time>
      </trkpt>
      <trkpt lat="43.34588" lon="5.98702">
        <ele>451.07421875</ele>
        <time>2016-01-17T14:28:03Z</time>
      </trkpt>
      <trkpt lat="43.3459" lon="5.98696">
        <ele>452.76953125</ele>
        <time>2016-01-17T14:28:15Z</time>
      </trkpt>
      <trkpt lat="43.34591" lon="5.98694">
        <ele>453.69921875</ele>
        <time>2016-01-17T14:28:25Z</time>
      </trkpt>
      <trkpt lat="43.34596" lon="5.98691">
        <ele>456.0859375</ele>
        <time>2016-01-17T14:28:35Z</time>
      </trkpt>
      <trkpt lat="43.34598" lon="5.98688">
        <ele>457.37890625</ele>
        <time>2016-01-17T14:28:39Z</time>
      </trkpt>
      <trkpt lat="43.34601" lon="5.98685">
        <ele>458.8125</ele>
        <time>2016-01-17T14:28:52Z</time>
      </trkpt>
      <trkpt lat="43.34602" lon="5.98685">
        <ele>459.1796875</ele>
        <time>2016-01-17T14:29:00Z</time>
      </trkpt>
      <trkpt lat="43.34609" lon="5.98683">
        <ele>461.703125</ele>
        <time>2016-01-17T14:29:09Z</time>
      </trkpt>
      <trkpt lat="43.3461" lon="5.98683">
        <ele>462.03515625</ele>
        <time>2016-01-17T14:29:16Z</time>
      </trkpt>
      <trkpt lat="43.34614" lon="5.98681">
        <ele>463.6328125</ele>
        <time>2016-01-17T14:29:20Z</time>
      </trkpt>
      <trkpt lat="43.34621" lon="5.98672">
        <ele>467.3203125</ele>
        <time>2016-01-17T14:29:33Z</time>
      </trkpt>
      <trkpt lat="43.3463" lon="5.98662">
        <ele>471.4609375</ele>
        <time>2016-01-17T14:29:42Z</time>
      </trkpt>
      <trkpt lat="43.34631" lon="5.98661">
        <ele>471.8984375</ele>
        <time>2016-01-17T14:29:43Z</time>
      </trkpt>
      <trkpt lat="43.34632" lon="5.98657">
        <ele>472.9140625</ele>
        <time>2016-01-17T14:29:45Z</time>
      </trkpt>
      <trkpt lat="43.34636" lon="5.98652">
        <ele>474.6015625</ele>
        <time>2016-01-17T14:29:56Z</time>
      </trkpt>
      <trkpt lat="43.34636" lon="5.9865">
        <ele>474.98828125</ele>
        <time>2016-01-17T14:29:57Z</time>
      </trkpt>
      <trkpt lat="43.34636" lon="5.98645">
        <ele>475.6640625</ele>
        <time>2016-01-17T14:30:00Z</time>
      </trkpt>
      <trkpt lat="43.34636" lon="5.98642">
        <ele>475.9921875</ele>
        <time>2016-01-17T14:30:01Z</time>
      </trkpt>
      <trkpt lat="43.34637" lon="5.9864">
        <ele>476.36328125</ele>
        <time>2016-01-17T14:30:02Z</time>
      </trkpt>
      <trkpt lat="43.34637" lon="5.98639">
        <ele>476.7265625</ele>
        <time>2016-01-17T14:30:04Z</time>
      </trkpt>
      <trkpt lat="43.34638" lon="5.98637">
        <ele>477.04296875</ele>
        <time>2016-01-17T14:30:05Z</time>
      </trkpt>
      <trkpt lat="43.34639" lon="5.98634">
        <ele>477.42578125</ele>
        <time>2016-01-17T14:30:06Z</time>
      </trkpt>
      <trkpt lat="43.34639" lon="5.98632">
        <ele>477.4609375</ele>
        <time>2016-01-17T14:30:07Z</time>
      </trkpt>
      <trkpt lat="43.34639" lon="5.9863">
        <ele>477.28515625</ele>
        <time>2016-01-17T14:30:10Z</time>
      </trkpt>
      <trkpt lat="43.34639" lon="5.98628">
        <ele>477.10546875</ele>
        <time>2016-01-17T14:30:11Z</time>
      </trkpt>
      <trkpt lat="43.34639" lon="5.98626">
        <ele>476.9765625</ele>
        <time>2016-01-17T14:30:12Z</time>
      </trkpt>
      <trkpt lat="43.34639" lon="5.98625">
        <ele>476.90234375</ele>
        <time>2016-01-17T14:30:13Z</time>
      </trkpt>
      <trkpt lat="43.3464" lon="5.98616">
        <ele>476.6171875</ele>
        <time>2016-01-17T14:30:22Z</time>
      </trkpt>
      <trkpt lat="43.3464" lon="5.98614">
        <ele>476.48046875</ele>
        <time>2016-01-17T14:30:23Z</time>
      </trkpt>
      <trkpt lat="43.3464" lon="5.98611">
        <ele>476.47265625</ele>
        <time>2016-01-17T14:30:25Z</time>
      </trkpt>
      <trkpt lat="43.34642" lon="5.98608">
        <ele>476.6328125</ele>
        <time>2016-01-17T14:30:29Z</time>
      </trkpt>
      <trkpt lat="43.34643" lon="5.98602">
        <ele>476.59375</ele>
        <time>2016-01-17T14:30:34Z</time>
      </trkpt>
      <trkpt lat="43.34644" lon="5.98598">
        <ele>476.40625</ele>
        <time>2016-01-17T14:30:38Z</time>
      </trkpt>
      <trkpt lat="43.34644" lon="5.98596">
        <ele>476.3046875</ele>
        <time>2016-01-17T14:30:39Z</time>
      </trkpt>
      <trkpt lat="43.34644" lon="5.98592">
        <ele>476.08984375</ele>
        <time>2016-01-17T14:30:43Z</time>
      </trkpt>
      <trkpt lat="43.34646" lon="5.9858">
        <ele>475.6796875</ele>
        <time>2016-01-17T14:30:53Z</time>
      </trkpt>
      <trkpt lat="43.34645" lon="5.98578">
        <ele>475.28515625</ele>
        <time>2016-01-17T14:30:54Z</time>
      </trkpt>
      <trkpt lat="43.34644" lon="5.98574">
        <ele>474.6328125</ele>
        <time>2016-01-17T14:30:57Z</time>
      </trkpt>
      <trkpt lat="43.34642" lon="5.98565">
        <ele>473.4140625</ele>
        <time>2016-01-17T14:31:03Z</time>
      </trkpt>
      <trkpt lat="43.34642" lon="5.98564">
        <ele>473.2734375</ele>
        <time>2016-01-17T14:31:04Z</time>
      </trkpt>
      <trkpt lat="43.3464" lon="5.98558">
        <ele>472.16796875</ele>
        <time>2016-01-17T14:31:10Z</time>
      </trkpt>
      <trkpt lat="43.34635" lon="5.98546">
        <ele>469.96875</ele>
        <time>2016-01-17T14:31:21Z</time>
      </trkpt>
      <trkpt lat="43.34632" lon="5.98535">
        <ele>468.3828125</ele>
        <time>2016-01-17T14:31:33Z</time>
      </trkpt>
      <trkpt lat="43.34628" lon="5.98522">
        <ele>466.4453125</ele>
        <time>2016-01-17T14:31:47Z</time>
      </trkpt>
      <trkpt lat="43.34627" lon="5.98519">
        <ele>466.10546875</ele>
        <time>2016-01-17T14:31:49Z</time>
      </trkpt>
      <trkpt lat="43.34627" lon="5.98515">
        <ele>465.6328125</ele>
        <time>2016-01-17T14:31:53Z</time>
      </trkpt>
      <trkpt lat="43.34626" lon="5.98511">
        <ele>465.5859375</ele>
        <time>2016-01-17T14:34:39Z</time>
      </trkpt>
      <trkpt lat="43.34624" lon="5.98506">
        <ele>464.75390625</ele>
        <time>2016-01-17T14:35:01Z</time>
      </trkpt>
      <trkpt lat="43.34622" lon="5.98502">
        <ele>464.30078125</ele>
        <time>2016-01-17T14:35:29Z</time>
      </trkpt>
      <trkpt lat="43.34617" lon="5.98498">
        <ele>464.484375</ele>
        <time>2016-01-17T14:35:50Z</time>
      </trkpt>
      <trkpt lat="43.34611" lon="5.98493">
        <ele>463.58203125</ele>
        <time>2016-01-17T14:36:11Z</time>
      </trkpt>
      <trkpt lat="43.34601" lon="5.98486">
        <ele>461.40234375</ele>
        <time>2016-01-17T14:36:26Z</time>
      </trkpt>
      <trkpt lat="43.34592" lon="5.98478">
        <ele>460.34375</ele>
        <time>2016-01-17T14:36:41Z</time>
      </trkpt>
      <trkpt lat="43.34582" lon="5.98471">
        <ele>459.05859375</ele>
        <time>2016-01-17T14:36:56Z</time>
      </trkpt>
      <trkpt lat="43.34574" lon="5.98464">
        <ele>457.96484375</ele>
        <time>2016-01-17T14:37:08Z</time>
      </trkpt>
      <trkpt lat="43.34571" lon="5.98458">
        <ele>457.8515625</ele>
        <time>2016-01-17T14:37:18Z</time>
      </trkpt>
      <trkpt lat="43.34569" lon="5.98452">
        <ele>457.6875</ele>
        <time>2016-01-17T14:37:21Z</time>
      </trkpt>
      <trkpt lat="43.34562" lon="5.98444">
        <ele>457.76953125</ele>
        <time>2016-01-17T14:37:34Z</time>
      </trkpt>
      <trkpt lat="43.34554" lon="5.98438">
        <ele>458.4609375</ele>
        <time>2016-01-17T14:37:46Z</time>
      </trkpt>
      <trkpt lat="43.34546" lon="5.98435">
        <ele>459.23046875</ele>
        <time>2016-01-17T14:38:04Z</time>
      </trkpt>
      <trkpt lat="43.34533" lon="5.98427">
        <ele>461.78515625</ele>
        <time>2016-01-17T14:38:21Z</time>
      </trkpt>
      <trkpt lat="43.34525" lon="5.98426">
        <ele>463.1015625</ele>
        <time>2016-01-17T14:38:35Z</time>
      </trkpt>
      <trkpt lat="43.34516" lon="5.98416">
        <ele>466</ele>
        <time>2016-01-17T14:38:48Z</time>
      </trkpt>
      <trkpt lat="43.34514" lon="5.98414">
        <ele>466.51171875</ele>
        <time>2016-01-17T14:38:51Z</time>
      </trkpt>
      <trkpt lat="43.34514" lon="5.98413">
        <ele>466.83203125</ele>
        <time>2016-01-17T14:38:53Z</time>
      </trkpt>
      <trkpt lat="43.34512" lon="5.98408">
        <ele>466.78515625</ele>
        <time>2016-01-17T14:38:57Z</time>
      </trkpt>
      <trkpt lat="43.34502" lon="5.98402">
        <ele>467.625</ele>
        <time>2016-01-17T14:39:08Z</time>
      </trkpt>
      <trkpt lat="43.34489" lon="5.98399">
        <ele>469.26171875</ele>
        <time>2016-01-17T14:39:19Z</time>
      </trkpt>
      <trkpt lat="43.34484" lon="5.98387">
        <ele>470.56640625</ele>
        <time>2016-01-17T14:39:31Z</time>
      </trkpt>
      <trkpt lat="43.34475" lon="5.98371">
        <ele>473.4296875</ele>
        <time>2016-01-17T14:39:44Z</time>
      </trkpt>
      <trkpt lat="43.34475" lon="5.98363">
        <ele>474.25390625</ele>
        <time>2016-01-17T14:39:55Z</time>
      </trkpt>
      <trkpt lat="43.34475" lon="5.98362">
        <ele>474.26953125</ele>
        <time>2016-01-17T14:39:56Z</time>
      </trkpt>
      <trkpt lat="43.34476" lon="5.98355">
        <ele>474.29296875</ele>
        <time>2016-01-17T14:40:06Z</time>
      </trkpt>
      <trkpt lat="43.34477" lon="5.98349">
        <ele>473.5234375</ele>
        <time>2016-01-17T14:40:12Z</time>
      </trkpt>
      <trkpt lat="43.34477" lon="5.98348">
        <ele>473.359375</ele>
        <time>2016-01-17T14:40:13Z</time>
      </trkpt>
      <trkpt lat="43.34475" lon="5.98334">
        <ele>473.09765625</ele>
        <time>2016-01-17T14:40:31Z</time>
      </trkpt>
      <trkpt lat="43.34452" lon="5.98327">
        <ele>472.87890625</ele>
        <time>2016-01-17T14:40:48Z</time>
      </trkpt>
      <trkpt lat="43.34445" lon="5.98325">
        <ele>472.2578125</ele>
        <time>2016-01-17T14:41:03Z</time>
      </trkpt>
      <trkpt lat="43.34433" lon="5.98304">
        <ele>472.23828125</ele>
        <time>2016-01-17T14:41:22Z</time>
      </trkpt>
      <trkpt lat="43.34423" lon="5.9828">
        <ele>472.13671875</ele>
        <time>2016-01-17T14:41:43Z</time>
      </trkpt>
      <trkpt lat="43.34423" lon="5.9828">
        <ele>472.1328125</ele>
        <time>2016-01-17T14:41:44Z</time>
      </trkpt>
      <trkpt lat="43.34428" lon="5.9827">
        <ele>471.87109375</ele>
        <time>2016-01-17T14:41:54Z</time>
      </trkpt>
      <trkpt lat="43.34429" lon="5.9825">
        <ele>471.5078125</ele>
        <time>2016-01-17T14:42:15Z</time>
      </trkpt>
      <trkpt lat="43.34429" lon="5.98241">
        <ele>471.1875</ele>
        <time>2016-01-17T14:42:41Z</time>
      </trkpt>
      <trkpt lat="43.34432" lon="5.98242">
        <ele>470.859375</ele>
        <time>2016-01-17T14:43:04Z</time>
      </trkpt>
      <trkpt lat="43.34424" lon="5.98231">
        <ele>471.19140625</ele>
        <time>2016-01-17T14:43:26Z</time>
      </trkpt>
      <trkpt lat="43.34425" lon="5.98229">
        <ele>471.0703125</ele>
        <time>2016-01-17T14:43:31Z</time>
      </trkpt>
      <trkpt lat="43.34424" lon="5.98232">
        <ele>471.26953125</ele>
        <time>2016-01-17T14:43:38Z</time>
      </trkpt>
      <trkpt lat="43.3441" lon="5.98249">
        <ele>471.171875</ele>
        <time>2016-01-17T14:43:54Z</time>
      </trkpt>
      <trkpt lat="43.34424" lon="5.98242">
        <ele>471.8125</ele>
        <time>2016-01-17T14:44:16Z</time>
      </trkpt>
      <trkpt lat="43.3443" lon="5.9823">
        <ele>470.3671875</ele>
        <time>2016-01-17T14:44:45Z</time>
      </trkpt>
      <trkpt lat="43.34425" lon="5.98234">
        <ele>471.28125</ele>
        <time>2016-01-17T14:45:00Z</time>
      </trkpt>
      <trkpt lat="43.34426" lon="5.9824">
        <ele>471.46875</ele>
        <time>2016-01-17T14:45:08Z</time>
      </trkpt>
      <trkpt lat="43.34425" lon="5.98241">
        <ele>471.62109375</ele>
        <time>2016-01-17T14:45:09Z</time>
      </trkpt>
      <trkpt lat="43.34425" lon="5.98247">
        <ele>471.8984375</ele>
        <time>2016-01-17T14:45:23Z</time>
      </trkpt>
      <trkpt lat="43.34425" lon="5.98248">
        <ele>471.94140625</ele>
        <time>2016-01-17T14:45:24Z</time>
      </trkpt>
      <trkpt lat="43.3442" lon="5.98255">
        <ele>472.41015625</ele>
        <time>2016-01-17T14:45:40Z</time>
      </trkpt>
      <trkpt lat="43.34422" lon="5.98255">
        <ele>472.1953125</ele>
        <time>2016-01-17T14:45:55Z</time>
      </trkpt>
      <trkpt lat="43.34422" lon="5.98253">
        <ele>472.2265625</ele>
        <time>2016-01-17T14:45:57Z</time>
      </trkpt>
      <trkpt lat="43.34423" lon="5.98244">
        <ele>472.015625</ele>
        <time>2016-01-17T14:46:12Z</time>
      </trkpt>
      <trkpt lat="43.34425" lon="5.98243">
        <ele>471.6953125</ele>
        <time>2016-01-17T14:46:36Z</time>
      </trkpt>
      <trkpt lat="43.34427" lon="5.98245">
        <ele>471.62890625</ele>
        <time>2016-01-17T14:46:50Z</time>
      </trkpt>
      <trkpt lat="43.34431" lon="5.98244">
        <ele>471.14453125</ele>
        <time>2016-01-17T14:47:28Z</time>
      </trkpt>
      <trkpt lat="43.34435" lon="5.98243">
        <ele>470.56640625</ele>
        <time>2016-01-17T14:47:51Z</time>
      </trkpt>
      <trkpt lat="43.34429" lon="5.98245">
        <ele>471.3828125</ele>
        <time>2016-01-17T14:48:12Z</time>
      </trkpt>
      <trkpt lat="43.34426" lon="5.98248">
        <ele>471.7421875</ele>
        <time>2016-01-17T14:48:28Z</time>
      </trkpt>
      <trkpt lat="43.34428" lon="5.98242">
        <ele>471.28515625</ele>
        <time>2016-01-17T14:48:58Z</time>
      </trkpt>
      <trkpt lat="43.34429" lon="5.98241">
        <ele>471.1328125</ele>
        <time>2016-01-17T14:49:16Z</time>
      </trkpt>
      <trkpt lat="43.34431" lon="5.98243">
        <ele>470.97265625</ele>
        <time>2016-01-17T14:49:36Z</time>
      </trkpt>
      <trkpt lat="43.34431" lon="5.98241">
        <ele>470.94140625</ele>
        <time>2016-01-17T14:50:01Z</time>
      </trkpt>
      <trkpt lat="43.34431" lon="5.98242">
        <ele>470.91796875</ele>
        <time>2016-01-17T14:50:04Z</time>
      </trkpt>
      <trkpt lat="43.3443" lon="5.98241">
        <ele>471.0390625</ele>
        <time>2016-01-17T14:50:27Z</time>
      </trkpt>
      <trkpt lat="43.3443" lon="5.98241">
        <ele>471.05859375</ele>
        <time>2016-01-17T14:50:30Z</time>
      </trkpt>
      <trkpt lat="43.34428" lon="5.98243">
        <ele>471.29296875</ele>
        <time>2016-01-17T14:50:53Z</time>
      </trkpt>
      <trkpt lat="43.34426" lon="5.98242">
        <ele>471.52734375</ele>
        <time>2016-01-17T14:51:09Z</time>
      </trkpt>
      <trkpt lat="43.34422" lon="5.98253">
        <ele>472.18359375</ele>
        <time>2016-01-17T14:51:30Z</time>
      </trkpt>
      <trkpt lat="43.34421" lon="5.98257">
        <ele>472.2421875</ele>
        <time>2016-01-17T14:51:43Z</time>
      </trkpt>
      <trkpt lat="43.34417" lon="5.98278">
        <ele>472.34375</ele>
        <time>2016-01-17T14:52:00Z</time>
      </trkpt>
      <trkpt lat="43.34415" lon="5.98281">
        <ele>472.3671875</ele>
        <time>2016-01-17T14:52:05Z</time>
      </trkpt>
      <trkpt lat="43.34415" lon="5.9828">
        <ele>472.390625</ele>
        <time>2016-01-17T14:52:06Z</time>
      </trkpt>
      <trkpt lat="43.34414" lon="5.98268">
        <ele>472.24609375</ele>
        <time>2016-01-17T14:52:18Z</time>
      </trkpt>
      <trkpt lat="43.34413" lon="5.98266">
        <ele>471.9765625</ele>
        <time>2016-01-17T14:52:19Z</time>
      </trkpt>
      <trkpt lat="43.34413" lon="5.98256">
        <ele>472.01171875</ele>
        <time>2016-01-17T14:52:34Z</time>
      </trkpt>
      <trkpt lat="43.34414" lon="5.98266">
        <ele>472.2109375</ele>
        <time>2016-01-17T14:52:44Z</time>
      </trkpt>
      <trkpt lat="43.34414" lon="5.98269">
        <ele>472.203125</ele>
        <time>2016-01-17T14:52:46Z</time>
      </trkpt>
      <trkpt lat="43.34412" lon="5.98288">
        <ele>471.01953125</ele>
        <time>2016-01-17T14:53:03Z</time>
      </trkpt>
      <trkpt lat="43.34409" lon="5.98288">
        <ele>469.84375</ele>
        <time>2016-01-17T14:53:05Z</time>
      </trkpt>
      <trkpt lat="43.34406" lon="5.98287">
        <ele>468.3671875</ele>
        <time>2016-01-17T14:53:08Z</time>
      </trkpt>
      <trkpt lat="43.34404" lon="5.98285">
        <ele>467.70703125</ele>
        <time>2016-01-17T14:53:09Z</time>
      </trkpt>
      <trkpt lat="43.34398" lon="5.98279">
        <ele>464.9921875</ele>
        <time>2016-01-17T14:53:15Z</time>
      </trkpt>
      <trkpt lat="43.34396" lon="5.98273">
        <ele>464.5234375</ele>
        <time>2016-01-17T14:53:19Z</time>
      </trkpt>
      <trkpt lat="43.34397" lon="5.98271">
        <ele>464.8125</ele>
        <time>2016-01-17T14:53:20Z</time>
      </trkpt>
      <trkpt lat="43.34398" lon="5.98266">
        <ele>465.390625</ele>
        <time>2016-01-17T14:53:23Z</time>
      </trkpt>
      <trkpt lat="43.344" lon="5.98243">
        <ele>466.6953125</ele>
        <time>2016-01-17T14:53:37Z</time>
      </trkpt>
      <trkpt lat="43.34397" lon="5.98223">
        <ele>465.1015625</ele>
        <time>2016-01-17T14:53:52Z</time>
      </trkpt>
      <trkpt lat="43.34396" lon="5.98217">
        <ele>464.58984375</ele>
        <time>2016-01-17T14:53:58Z</time>
      </trkpt>
      <trkpt lat="43.34391" lon="5.98201">
        <ele>462.5</ele>
        <time>2016-01-17T14:54:11Z</time>
      </trkpt>
      <trkpt lat="43.3439" lon="5.982">
        <ele>462.23046875</ele>
        <time>2016-01-17T14:54:12Z</time>
      </trkpt>
      <trkpt lat="43.34388" lon="5.98193">
        <ele>461.25</ele>
        <time>2016-01-17T14:54:25Z</time>
      </trkpt>
      <trkpt lat="43.34388" lon="5.98194">
        <ele>461.265625</ele>
        <time>2016-01-17T14:54:26Z</time>
      </trkpt>
      <trkpt lat="43.34388" lon="5.98195">
        <ele>461.33203125</ele>
        <time>2016-01-17T14:54:27Z</time>
      </trkpt>
      <trkpt lat="43.34388" lon="5.98199">
        <ele>461.60546875</ele>
        <time>2016-01-17T14:54:31Z</time>
      </trkpt>
      <trkpt lat="43.34388" lon="5.98204">
        <ele>461.53515625</ele>
        <time>2016-01-17T14:54:34Z</time>
      </trkpt>
      <trkpt lat="43.34386" lon="5.98207">
        <ele>460.86328125</ele>
        <time>2016-01-17T14:54:43Z</time>
      </trkpt>
      <trkpt lat="43.34377" lon="5.98195">
        <ele>457.55078125</ele>
        <time>2016-01-17T14:54:54Z</time>
      </trkpt>
      <trkpt lat="43.34373" lon="5.98182">
        <ele>454.78125</ele>
        <time>2016-01-17T14:55:05Z</time>
      </trkpt>
      <trkpt lat="43.34371" lon="5.98166">
        <ele>452.54296875</ele>
        <time>2016-01-17T14:55:17Z</time>
      </trkpt>
      <trkpt lat="43.3437" lon="5.98161">
        <ele>451.4375</ele>
        <time>2016-01-17T14:55:26Z</time>
      </trkpt>
      <trkpt lat="43.34367" lon="5.98163">
        <ele>450.9453125</ele>
        <time>2016-01-17T14:55:30Z</time>
      </trkpt>
      <trkpt lat="43.34367" lon="5.98164">
        <ele>450.84765625</ele>
        <time>2016-01-17T14:55:31Z</time>
      </trkpt>
      <trkpt lat="43.34366" lon="5.98165">
        <ele>450.765625</ele>
        <time>2016-01-17T14:55:32Z</time>
      </trkpt>
      <trkpt lat="43.34364" lon="5.98177">
        <ele>451.44921875</ele>
        <time>2016-01-17T14:55:42Z</time>
      </trkpt>
      <trkpt lat="43.34371" lon="5.982">
        <ele>455.078125</ele>
        <time>2016-01-17T14:55:57Z</time>
      </trkpt>
      <trkpt lat="43.34371" lon="5.98204">
        <ele>455.11328125</ele>
        <time>2016-01-17T14:56:00Z</time>
      </trkpt>
      <trkpt lat="43.34371" lon="5.98205">
        <ele>455.08984375</ele>
        <time>2016-01-17T14:56:01Z</time>
      </trkpt>
      <trkpt lat="43.34371" lon="5.98219">
        <ele>455.16796875</ele>
        <time>2016-01-17T14:56:11Z</time>
      </trkpt>
      <trkpt lat="43.3437" lon="5.98229">
        <ele>454.46484375</ele>
        <time>2016-01-17T14:56:21Z</time>
      </trkpt>
      <trkpt lat="43.34362" lon="5.98233">
        <ele>451.3828125</ele>
        <time>2016-01-17T14:56:35Z</time>
      </trkpt>
      <trkpt lat="43.34362" lon="5.98231">
        <ele>451.25</ele>
        <time>2016-01-17T14:56:36Z</time>
      </trkpt>
      <trkpt lat="43.34356" lon="5.98212">
        <ele>449.37890625</ele>
        <time>2016-01-17T14:56:51Z</time>
      </trkpt>
      <trkpt lat="43.34349" lon="5.98192">
        <ele>446.26171875</ele>
        <time>2016-01-17T14:57:04Z</time>
      </trkpt>
      <trkpt lat="43.34347" lon="5.98189">
        <ele>445.48828125</ele>
        <time>2016-01-17T14:57:07Z</time>
      </trkpt>
      <trkpt lat="43.34346" lon="5.98187">
        <ele>444.86328125</ele>
        <time>2016-01-17T14:57:08Z</time>
      </trkpt>
      <trkpt lat="43.34345" lon="5.98181">
        <ele>444.17578125</ele>
        <time>2016-01-17T14:57:13Z</time>
      </trkpt>
      <trkpt lat="43.34338" lon="5.98165">
        <ele>440.44140625</ele>
        <time>2016-01-17T14:57:26Z</time>
      </trkpt>
      <trkpt lat="43.34336" lon="5.98161">
        <ele>439.4453125</ele>
        <time>2016-01-17T14:57:29Z</time>
      </trkpt>
      <trkpt lat="43.34332" lon="5.98157">
        <ele>438.0078125</ele>
        <time>2016-01-17T14:57:34Z</time>
      </trkpt>
      <trkpt lat="43.34324" lon="5.98148">
        <ele>434.6640625</ele>
        <time>2016-01-17T14:57:49Z</time>
      </trkpt>
      <trkpt lat="43.3432" lon="5.98142">
        <ele>433.421875</ele>
        <time>2016-01-17T14:57:57Z</time>
      </trkpt>
      <trkpt lat="43.34306" lon="5.98136">
        <ele>428.65234375</ele>
        <time>2016-01-17T14:58:15Z</time>
      </trkpt>
      <trkpt lat="43.34298" lon="5.98132">
        <ele>426.44140625</ele>
        <time>2016-01-17T14:58:26Z</time>
      </trkpt>
      <trkpt lat="43.34297" lon="5.98132">
        <ele>426.2734375</ele>
        <time>2016-01-17T14:58:27Z</time>
      </trkpt>
      <trkpt lat="43.34284" lon="5.98125">
        <ele>423.09765625</ele>
        <time>2016-01-17T14:58:40Z</time>
      </trkpt>
      <trkpt lat="43.3428" lon="5.98117">
        <ele>421.51171875</ele>
        <time>2016-01-17T14:58:49Z</time>
      </trkpt>
      <trkpt lat="43.34275" lon="5.98107">
        <ele>419.54296875</ele>
        <time>2016-01-17T14:59:00Z</time>
      </trkpt>
      <trkpt lat="43.3427" lon="5.98091">
        <ele>416.99609375</ele>
        <time>2016-01-17T14:59:17Z</time>
      </trkpt>
      <trkpt lat="43.3426" lon="5.98071">
        <ele>413.03515625</ele>
        <time>2016-01-17T14:59:35Z</time>
      </trkpt>
      <trkpt lat="43.34265" lon="5.9806">
        <ele>411.51953125</ele>
        <time>2016-01-17T14:59:51Z</time>
      </trkpt>
      <trkpt lat="43.34269" lon="5.98046">
        <ele>409.1796875</ele>
        <time>2016-01-17T15:00:07Z</time>
      </trkpt>
      <trkpt lat="43.34267" lon="5.98037">
        <ele>407.43359375</ele>
        <time>2016-01-17T15:00:15Z</time>
      </trkpt>
      <trkpt lat="43.34266" lon="5.98034">
        <ele>406.6796875</ele>
        <time>2016-01-17T15:00:18Z</time>
      </trkpt>
      <trkpt lat="43.34266" lon="5.98029">
        <ele>405.8125</ele>
        <time>2016-01-17T15:00:23Z</time>
      </trkpt>
      <trkpt lat="43.34267" lon="5.98023">
        <ele>404.765625</ele>
        <time>2016-01-17T15:00:38Z</time>
      </trkpt>
      <trkpt lat="43.34269" lon="5.98019">
        <ele>404.234375</ele>
        <time>2016-01-17T15:00:53Z</time>
      </trkpt>
      <trkpt lat="43.3427" lon="5.98016">
        <ele>403.796875</ele>
        <time>2016-01-17T15:01:14Z</time>
      </trkpt>
      <trkpt lat="43.34271" lon="5.98013">
        <ele>403.38671875</ele>
        <time>2016-01-17T15:01:42Z</time>
      </trkpt>
      <trkpt lat="43.34272" lon="5.98009">
        <ele>402.88671875</ele>
        <time>2016-01-17T15:02:07Z</time>
      </trkpt>
      <trkpt lat="43.34272" lon="5.98008">
        <ele>402.6796875</ele>
        <time>2016-01-17T15:02:07Z</time>
      </trkpt>
      <trkpt lat="43.34271" lon="5.97988">
        <ele>399.61328125</ele>
        <time>2016-01-17T15:02:24Z</time>
      </trkpt>
      <trkpt lat="43.3427" lon="5.97974">
        <ele>397.41015625</ele>
        <time>2016-01-17T15:02:33Z</time>
      </trkpt>
      <trkpt lat="43.34273" lon="5.97948">
        <ele>394.21875</ele>
        <time>2016-01-17T15:02:50Z</time>
      </trkpt>
      <trkpt lat="43.34277" lon="5.97917">
        <ele>390.1796875</ele>
        <time>2016-01-17T15:03:10Z</time>
      </trkpt>
      <trkpt lat="43.3427" lon="5.97893">
        <ele>388.30078125</ele>
        <time>2016-01-17T15:03:29Z</time>
      </trkpt>
      <trkpt lat="43.34255" lon="5.97863">
        <ele>387.34375</ele>
        <time>2016-01-17T15:03:51Z</time>
      </trkpt>
      <trkpt lat="43.34252" lon="5.97856">
        <ele>386.91015625</ele>
        <time>2016-01-17T15:03:56Z</time>
      </trkpt>
      <trkpt lat="43.34245" lon="5.97836">
        <ele>385.0390625</ele>
        <time>2016-01-17T15:04:08Z</time>
      </trkpt>
      <trkpt lat="43.34232" lon="5.9781">
        <ele>383.4609375</ele>
        <time>2016-01-17T15:04:24Z</time>
      </trkpt>
      <trkpt lat="43.34222" lon="5.97794">
        <ele>382.94140625</ele>
        <time>2016-01-17T15:04:36Z</time>
      </trkpt>
      <trkpt lat="43.34198" lon="5.97773">
        <ele>383.875</ele>
        <time>2016-01-17T15:04:58Z</time>
      </trkpt>
      <trkpt lat="43.3418" lon="5.97753">
        <ele>381.99609375</ele>
        <time>2016-01-17T15:05:18Z</time>
      </trkpt>
      <trkpt lat="43.34159" lon="5.97735">
        <ele>380.32421875</ele>
        <time>2016-01-17T15:05:36Z</time>
      </trkpt>
      <trkpt lat="43.34135" lon="5.97723">
        <ele>379.25</ele>
        <time>2016-01-17T15:05:57Z</time>
      </trkpt>
      <trkpt lat="43.34113" lon="5.97721">
        <ele>379.05859375</ele>
        <time>2016-01-17T15:06:13Z</time>
      </trkpt>
      <trkpt lat="43.3409" lon="5.97718">
        <ele>378.66796875</ele>
        <time>2016-01-17T15:06:30Z</time>
      </trkpt>
      <trkpt lat="43.34073" lon="5.97705">
        <ele>376.5234375</ele>
        <time>2016-01-17T15:06:44Z</time>
      </trkpt>
      <trkpt lat="43.34073" lon="5.97704">
        <ele>376.40625</ele>
        <time>2016-01-17T15:06:46Z</time>
      </trkpt>
      <trkpt lat="43.34071" lon="5.97704">
        <ele>376.359375</ele>
        <time>2016-01-17T15:06:47Z</time>
      </trkpt>
      <trkpt lat="43.34067" lon="5.97706">
        <ele>376.69921875</ele>
        <time>2016-01-17T15:06:48Z</time>
      </trkpt>
      <trkpt lat="43.34064" lon="5.97706">
        <ele>376.796875</ele>
        <time>2016-01-17T15:06:49Z</time>
      </trkpt>
      <trkpt lat="43.34062" lon="5.97706">
        <ele>376.7421875</ele>
        <time>2016-01-17T15:06:50Z</time>
      </trkpt>
      <trkpt lat="43.34061" lon="5.97706">
        <ele>376.77734375</ele>
        <time>2016-01-17T15:06:51Z</time>
      </trkpt>
      <trkpt lat="43.34059" lon="5.97706">
        <ele>376.796875</ele>
        <time>2016-01-17T15:06:52Z</time>
      </trkpt>
      <trkpt lat="43.34057" lon="5.97706">
        <ele>376.84765625</ele>
        <time>2016-01-17T15:06:53Z</time>
      </trkpt>
      <trkpt lat="43.34055" lon="5.97706">
        <ele>376.94921875</ele>
        <time>2016-01-17T15:06:54Z</time>
      </trkpt>
      <trkpt lat="43.34027" lon="5.97703">
        <ele>376.4453125</ele>
        <time>2016-01-17T15:07:12Z</time>
      </trkpt>
      <trkpt lat="43.3402" lon="5.977">
        <ele>375.7578125</ele>
        <time>2016-01-17T15:07:30Z</time>
      </trkpt>
      <trkpt lat="43.34014" lon="5.97693">
        <ele>374.04296875</ele>
        <time>2016-01-17T15:07:53Z</time>
      </trkpt>
      <trkpt lat="43.34013" lon="5.97688">
        <ele>373.390625</ele>
        <time>2016-01-17T15:08:00Z</time>
      </trkpt>
      <trkpt lat="43.34023" lon="5.97668">
        <ele>371.42578125</ele>
        <time>2016-01-17T15:08:18Z</time>
      </trkpt>
      <trkpt lat="43.34023" lon="5.97658">
        <ele>370.26953125</ele>
        <time>2016-01-17T15:08:40Z</time>
      </trkpt>
      <trkpt lat="43.3402" lon="5.97654">
        <ele>369.82421875</ele>
        <time>2016-01-17T15:08:44Z</time>
      </trkpt>
      <trkpt lat="43.33997" lon="5.97657">
        <ele>369.46875</ele>
        <time>2016-01-17T15:08:54Z</time>
      </trkpt>
      <trkpt lat="43.33991" lon="5.97646">
        <ele>367.95703125</ele>
        <time>2016-01-17T15:09:04Z</time>
      </trkpt>
      <trkpt lat="43.33983" lon="5.97647">
        <ele>367.828125</ele>
        <time>2016-01-17T15:09:22Z</time>
      </trkpt>
      <trkpt lat="43.33979" lon="5.97664">
        <ele>369.83984375</ele>
        <time>2016-01-17T15:09:37Z</time>
      </trkpt>
      <trkpt lat="43.33959" lon="5.97662">
        <ele>368.67578125</ele>
        <time>2016-01-17T15:09:56Z</time>
      </trkpt>
      <trkpt lat="43.33951" lon="5.9767">
        <ele>368.97265625</ele>
        <time>2016-01-17T15:10:03Z</time>
      </trkpt>
      <trkpt lat="43.33918" lon="5.97677">
        <ele>367.17578125</ele>
        <time>2016-01-17T15:10:22Z</time>
      </trkpt>
      <trkpt lat="43.33899" lon="5.9769">
        <ele>366.73046875</ele>
        <time>2016-01-17T15:10:36Z</time>
      </trkpt>
      <trkpt lat="43.33881" lon="5.97698">
        <ele>366.703125</ele>
        <time>2016-01-17T15:10:57Z</time>
      </trkpt>
      <trkpt lat="43.33855" lon="5.97715">
        <ele>367.02734375</ele>
        <time>2016-01-17T15:11:17Z</time>
      </trkpt>
      <trkpt lat="43.33847" lon="5.97708">
        <ele>365.55859375</ele>
        <time>2016-01-17T15:11:34Z</time>
      </trkpt>
      <trkpt lat="43.33841" lon="5.97704">
        <ele>364.7578125</ele>
        <time>2016-01-17T15:11:57Z</time>
      </trkpt>
      <trkpt lat="43.33837" lon="5.97698">
        <ele>363.9453125</ele>
        <time>2016-01-17T15:12:04Z</time>
      </trkpt>
      <trkpt lat="43.33829" lon="5.97677">
        <ele>362.40625</ele>
        <time>2016-01-17T15:12:23Z</time>
      </trkpt>
      <trkpt lat="43.33825" lon="5.97676">
        <ele>362.26953125</ele>
        <time>2016-01-17T15:12:37Z</time>
      </trkpt>
      <trkpt lat="43.33825" lon="5.97677">
        <ele>362.296875</ele>
        <time>2016-01-17T15:12:52Z</time>
      </trkpt>
      <trkpt lat="43.33815" lon="5.9769">
        <ele>362.38671875</ele>
        <time>2016-01-17T15:13:06Z</time>
      </trkpt>
      <trkpt lat="43.33804" lon="5.97708">
        <ele>362.8984375</ele>
        <time>2016-01-17T15:13:23Z</time>
      </trkpt>
      <trkpt lat="43.33796" lon="5.9772">
        <ele>363.0703125</ele>
        <time>2016-01-17T15:13:33Z</time>
      </trkpt>
      <trkpt lat="43.33779" lon="5.97726">
        <ele>362.40234375</ele>
        <time>2016-01-17T15:13:51Z</time>
      </trkpt>
      <trkpt lat="43.33775" lon="5.97726">
        <ele>362.18359375</ele>
        <time>2016-01-17T15:14:16Z</time>
      </trkpt>
      <trkpt lat="43.33777" lon="5.9773">
        <ele>362.45703125</ele>
        <time>2016-01-17T15:14:40Z</time>
      </trkpt>
    </trkseg>
  </trk>
</gpx>